[[{"header":{"parameterUnit":"m.s-1","parameterCategory":1,"la1":31.0,"la2":29.5877,"lo1":-88.7671,"lo2":-86.6584,"dy":0.0162,"dx":0.0185,"nx":115,"ny":88,"refTime":"2026-05-01T12:00:00:Z","depth":0,"parameterNumber":2,"parameterNumberName":"U-component_of_WINDS"},"data":[0.0,0.0,0.0,0.0,0.0,0.0,0.0,0.0,0.0,0.0,0.0,0.0,0.0,0.0,0.0,0.0,0.0,0.0,0.0,0.0,0.0,0.0,0.0,0.0,0.0,0.0,0.0,0.0,0.0,0.0,0.0,0.0,0.0,0.0,0.0,0.0,0.0,0.0,0.0,0.0,0.0,0.0,0.0,0.0,0.0,0.0,0.0,0.0,0.0,0.0,0.0,0.0,0.0,0.0,0.0,0.0,0.0,0.0,0.0,0.0,0.0,0.0,0.0,0.0,0.0,0.0,0.0,0.0,0.0,0.0,0.0,0.0,0.0,0.0,0.0,0.0,0.0,0.0,0.0,0.0,0.0,0.0,0.0,0.0,0.0,0.0,0.0,0.0,0.0,0.0,0.0,0.0,0.0,0.0,0.0,0.0,0.0,0.0,0.0,0.0,0.0,0.0,0.0,0.0,0.0,0.0,0.0,0.0,0.0,0.0,0.0,0.0,0.0,0.0,0.0,0.0,0.0,0.0,0.0,0.0,0.0,0.0,0.0,0.0,0.0,0.0,0.0,0.0,0.0,0.0,0.0,0.0,0.0,0.0,0.0,0.0,0.0,0.0,0.0,0.0,0.0,0.0,0.0,0.0,0.0,0.0,0.0,0.0,0.0,0.0,0.0,0.0,0.0,0.0,0.0,0.0,0.0,0.0,0.0,0.0,0.0,0.0,0.0,0.0,0.0,0.0,0.0,0.0,0.0,0.0,0.0,0.0,0.0,0.0,0.0,0.0,0.0,0.0,0.0,0.0,0.0,0.0,0.0,0.0,0.0,0.0,0.0,0.0,0.0,0.0,0.0,0.0,0.0,0.0,0.0,0.0,0.0,0.0,0.0,0.0,0.0,0.0,0.0,0.0,0.0,0.0,0.0,0.0,0.0,0.0,0.0,0.0,0.0,0.0,0.0,0.0,0.0,0.0,0.0,0.0,0.0,0.0,0.0,0.0,0.0,0.0,0.0,0.0,0.0,0.0,0.0,0.0,0.0,0.0,0.0,0.0,0.0,0.0,0.0,0.0,0.0,0.0,0.0,0.0,0.0,0.0,0.0,0.0,0.0,0.0,0.0,0.0,0.0,0.0,0.0,0.0,0.0,0.0,0.0,0.0,0.0,0.0,0.0,0.0,0.0,0.0,0.0,0.0,0.0,0.0,0.0,0.0,0.0,0.0,0.0,0.0,0.0,0.0,0.0,0.0,0.0,0.0,0.0,0.0,0.0,0.0,0.0,0.0,0.0,0.0,0.0,0.0,0.0,0.0,0.0,0.0,0.0,0.0,0.0,0.0,0.0,0.0,0.0,0.0,0.0,0.0,0.0,0.0,0.0,0.0,0.0,0.0,0.0,0.0,0.0,0.0,0.0,0.0,0.0,0.0,0.0,0.0,0.0,0.0,0.0,0.0,0.0,0.0,0.0,0.0,0.0,0.0,0.0,0.0,0.0,0.0,0.0,0.0,0.0,0.0,0.0,0.0,0.0,0.0,0.0,0.0,0.0,0.0,0.0,0.0,0.0,0.0,0.0,0.0,0.0,0.0,0.0,0.0,0.0,0.0,0.0,0.0,0.0,0.0,0.0,0.0,0.0,0.0,0.0,0.0,0.0,0.0,0.0,0.0,0.0,0.0,0.0,0.0,0.0,0.0,0.0,0.0,0.0,0.0,0.0,0.0,0.0,0.0,0.0,0.0,0.0,0.0,0.0,0.0,0.0,0.0,0.0,0.0,0.0,0.0,0.0,0.0,0.0,0.0,0.0,0.0,0.0,0.0,0.0,0.0,0.0,0.0,0.0,0.0,0.0,0.0,0.0,0.0,0.0,0.0,0.0,0.0,0.0,0.0,0.0,0.0,0.0,0.0,0.0,0.0,0.0,0.0,0.0,0.0,0.0,0.0,0.0,0.0,0.0,0.0,0.0,0.0,0.0,0.0,0.0,0.0,0.0,0.0,0.0,0.0,0.0,0.0,0.0,0.0,0.0,0.0,0.0,0.0,0.0,0.0,0.0,0.0,0.0,0.0,0.0,0.0,0.0,0.0,0.0,0.0,0.0,0.0,0.0,0.0,0.0,0.0,0.0,0.0,0.0,0.0,0.0,0.0,0.0,0.0,0.0,0.0,0.0,0.0,0.0,0.0,0.0,0.0,0.0,0.0,0.0,0.0,0.0,0.0,0.0,0.0,0.0,0.0,0.0,0.0,0.0,0.0,0.0,0.0,0.0,0.0,0.0,0.0,0.0,0.0,0.0,0.0,0.0,0.0,0.0,0.0,0.0,0.0,0.0,0.0,0.0,0.0,0.0,0.0,0.0,0.0,0.0,0.0,0.0,0.0,0.0,0.0,0.0,0.0,0.0,0.0,0.0,0.0,0.0,0.0,0.0,0.0,0.0,0.0,0.0,0.0,0.0,0.0,0.0,0.0,0.0,0.0,0.0,0.0,0.0,0.0,0.0,0.0,0.0,0.0,0.0,0.0,0.0,0.0,0.0,0.0,0.0,0.0,0.0,0.0,0.0,0.0,0.0,0.0,0.0,0.0,0.0,0.0,0.0,0.0,0.0,0.0,0.0,0.0,0.0,0.0,0.0,0.0,0.0,0.0,0.0,0.0,0.0,0.0,0.0,0.0,0.0,0.0,0.0,0.0,0.0,0.0,0.0,0.0,0.0,0.0,0.0,0.0,0.0,0.0,0.0,0.0,0.0,0.0,0.0,0.0,0.0,0.0,0.0,0.0,0.0,0.0,0.0,0.0,0.0,0.0,0.0,0.0,0.0,0.0,0.0,0.0,0.0,0.0,0.0,0.0,0.0,0.0,0.0,0.0,0.0,0.0,0.0,0.0,0.0,0.0,0.0,0.0,0.0,0.0,0.0,0.0,0.0,0.0,0.0,0.0,0.0,0.0,0.0,0.0,0.0,0.0,0.0,0.0,0.0,0.0,0.0,0.0,0.0,0.0,0.0,0.0,0.0,0.0,0.0,0.0,0.0,0.0,0.0,0.0,0.0,0.0,0.0,0.0,0.0,0.0,0.0,0.0,0.0,0.0,0.0,0.0,0.0,0.0,0.0,0.0,0.0,0.0,0.0,0.0,0.0,0.0,0.0,0.0,0.0,0.0,0.0,0.0,0.0,0.0,0.0,0.0,0.0,0.0,0.0,0.0,0.0,0.0,0.0,0.0,0.0,0.0,0.0,0.0,0.0,0.0,0.0,0.0,0.0,0.0,0.0,0.0,0.0,0.0,0.0,0.0,0.0,0.0,0.0,0.0,0.0,0.0,0.0,0.0,0.0,0.0,0.0,0.0,0.0,0.0,0.0,0.0,0.0,0.0,0.0,0.0,0.0,0.0,0.0,0.0,0.0,0.0,0.0,0.0,0.0,0.0,0.0,0.0,0.0,0.0,0.0,0.0,0.0,0.0,0.0,0.0,0.0,0.0,0.0,0.0,0.0,0.0,0.0,0.0,0.0,0.0,0.0,0.0,0.0,0.0,0.0,0.0,0.0,0.0,0.0,0.0,0.0,0.0,0.0,0.0,0.0,0.0,0.0,0.0,0.0,0.0,0.0,0.0,0.0,0.0,0.0,0.0,0.0,0.0,0.0,0.0,0.0,0.0,0.0,0.0,0.0,0.0,0.0,0.0,0.0,0.0,0.0,0.0,0.0,0.0,0.0,0.0,0.0,0.0,0.0,0.0,0.0,0.0,0.0,0.0,0.0,0.0,0.0,0.0,0.0,0.0,0.0,0.0,0.0,0.0,0.0,0.0,0.0,0.0,0.0,0.0,0.0,0.0,0.0,0.0,0.0,0.0,0.0,0.0,0.0,0.0,0.0,0.0,0.0,0.0,0.0,0.0,0.0,0.0,0.0,0.0,0.0,0.0,0.0,0.0,0.0,0.0,0.0,0.0,0.0,0.0,0.0,0.0,0.0,0.0,0.0,0.0,0.0,0.0,0.0,0.0,0.0,0.0,0.0,0.0,0.0,0.0,0.0,0.0,0.0,0.0,0.0,0.0,0.0,0.0,0.0,0.0,0.0,0.0,0.0,0.0,0.0,0.0,0.0,0.0,0.0,0.0,0.0,0.0,0.0,0.0,0.0,0.0,0.0,0.0,0.0,0.0,0.0,0.0,0.0,0.0,0.0,0.0,0.0,0.0,0.0,0.0,0.0,0.0,0.0,0.0,0.0,0.0,0.0,0.0,0.0,0.0,0.0,0.0,0.0,0.0,0.0,0.0,0.0,0.0,0.0,0.0,4.4709,0.0,0.0,0.0,0.0,0.0,0.0,0.0,0.0,0.0,0.0,0.0,0.0,0.0,0.0,0.0,0.0,0.0,0.0,0.0,0.0,0.0,0.0,0.0,0.0,0.0,0.0,0.0,0.0,0.0,0.0,0.0,0.0,0.0,0.0,0.0,0.0,0.0,0.0,0.0,0.0,0.0,0.0,0.0,0.0,0.0,0.0,0.0,0.0,0.0,0.0,0.0,0.0,0.0,0.0,0.0,0.0,0.0,0.0,0.0,0.0,0.0,0.0,0.0,0.0,0.0,0.0,0.0,0.0,0.0,0.0,0.0,0.0,0.0,0.0,0.0,0.0,0.0,0.0,0.0,0.0,0.0,0.0,0.0,0.0,0.0,0.0,0.0,0.0,0.0,0.0,0.0,0.0,0.0,0.0,0.0,0.0,0.0,0.0,0.0,0.0,0.0,0.0,0.0,0.0,0.0,0.0,0.0,0.0,0.0,0.0,4.7085,4.77,4.6544,4.5736,4.5333,0.0,0.0,0.0,0.0,0.0,0.0,0.0,0.0,0.0,0.0,0.0,0.0,0.0,0.0,0.0,0.0,0.0,0.0,0.0,0.0,0.0,0.0,0.0,0.0,0.0,0.0,0.0,0.0,0.0,0.0,0.0,0.0,0.0,0.0,0.0,0.0,0.0,0.0,0.0,0.0,0.0,0.0,0.0,0.0,0.0,0.0,0.0,0.0,0.0,0.0,0.0,0.0,0.0,0.0,0.0,0.0,0.0,0.0,0.0,0.0,0.0,0.0,0.0,0.0,0.0,0.0,0.0,0.0,0.0,0.0,0.0,0.0,0.0,0.0,0.0,0.0,0.0,0.0,0.0,0.0,0.0,0.0,0.0,0.0,0.0,0.0,0.0,0.0,0.0,0.0,0.0,0.0,0.0,0.0,0.0,0.0,0.0,0.0,0.0,0.0,0.0,0.0,0.0,0.0,0.0,0.0,0.0,0.0,0.0,0.0,0.0,0.0,4.7498,4.6471,4.5883,0.0,0.0,0.0,0.0,0.0,0.0,0.0,0.0,0.0,0.0,0.0,0.0,0.0,0.0,0.0,0.0,0.0,0.0,0.0,0.0,0.0,0.0,0.0,0.0,0.0,0.0,0.0,0.0,0.0,0.0,0.0,0.0,0.0,0.0,0.0,0.0,0.0,0.0,0.0,0.0,0.0,0.0,0.0,0.0,0.0,0.0,0.0,0.0,0.0,0.0,0.0,0.0,0.0,0.0,0.0,0.0,0.0,0.0,0.0,0.0,0.0,0.0,0.0,0.0,0.0,0.0,0.0,0.0,0.0,0.0,0.0,0.0,0.0,0.0,0.0,0.0,0.0,0.0,0.0,0.0,0.0,0.0,0.0,0.0,0.0,0.0,0.0,0.0,0.0,0.0,0.0,0.0,0.0,0.0,0.0,0.0,0.0,0.0,0.0,0.0,0.0,0.0,0.0,0.0,0.0,0.0,0.0,0.0,0.0,0.0,4.709,5.0431,4.9701,0.0,4.6104,0.0,0.0,0.0,0.0,0.0,0.0,0.0,0.0,0.0,0.0,0.0,0.0,0.0,0.0,0.0,0.0,0.0,0.0,0.0,0.0,0.0,0.0,0.0,0.0,0.0,0.0,0.0,0.0,0.0,0.0,0.0,0.0,0.0,0.0,0.0,0.0,0.0,0.0,0.0,0.0,0.0,0.0,0.0,0.0,0.0,0.0,0.0,0.0,0.0,0.0,0.0,0.0,0.0,0.0,0.0,0.0,0.0,0.0,0.0,0.0,0.0,0.0,0.0,0.0,0.0,0.0,0.0,0.0,0.0,0.0,0.0,0.0,0.0,0.0,0.0,0.0,0.0,0.0,0.0,0.0,0.0,0.0,0.0,0.0,0.0,0.0,0.0,0.0,0.0,0.0,0.0,0.0,0.0,0.0,0.0,0.0,0.0,0.0,0.0,0.0,0.0,0.0,0.0,0.0,0.0,0.0,0.0,0.0,0.0,0.0,4.8388,5.0745,4.9517,4.7902,0.0,0.0,0.0,0.0,0.0,0.0,0.0,0.0,0.0,0.0,0.0,0.0,0.0,0.0,0.0,0.0,0.0,0.0,0.0,0.0,0.0,0.0,0.0,0.0,0.0,0.0,0.0,0.0,0.0,0.0,0.0,0.0,0.0,0.0,0.0,0.0,0.0,0.0,0.0,0.0,0.0,0.0,0.0,0.0,0.0,0.0,0.0,0.0,0.0,0.0,0.0,0.0,0.0,0.0,0.0,0.0,0.0,0.0,0.0,0.0,0.0,0.0,0.0,0.0,0.0,0.0,0.0,0.0,0.0,0.0,0.0,0.0,0.0,0.0,0.0,0.0,0.0,0.0,0.0,0.0,0.0,0.0,0.0,0.0,0.0,0.0,0.0,0.0,0.0,0.0,0.0,0.0,0.0,0.0,0.0,0.0,0.0,0.0,0.0,0.0,0.0,0.0,0.0,0.0,0.0,0.0,0.0,0.0,0.0,0.0,4.8537,0.0,5.0982,5.0178,4.8379,4.57,0.0,0.0,0.0,0.0,0.0,0.0,0.0,0.0,0.0,0.0,0.0,0.0,0.0,0.0,0.0,0.0,0.0,0.0,0.0,0.0,0.0,0.0,0.0,0.0,0.0,0.0,0.0,0.0,0.0,0.0,0.0,0.0,0.0,0.0,0.0,0.0,0.0,0.0,0.0,0.0,0.0,0.0,0.0,0.0,0.0,0.0,0.0,0.0,0.0,0.0,0.0,0.0,0.0,0.0,0.0,0.0,0.0,0.0,0.0,0.0,0.0,0.0,0.0,0.0,0.0,0.0,0.0,0.0,0.0,0.0,0.0,0.0,0.0,0.0,0.0,0.0,0.0,0.0,0.0,0.0,0.0,0.0,0.0,0.0,0.0,0.0,0.0,0.0,0.0,0.0,0.0,0.0,0.0,0.0,0.0,0.0,0.0,0.0,0.0,0.0,0.0,0.0,0.0,0.0,0.0,0.0,0.0,0.0,0.0,5.0185,5.0461,5.194,5.2601,5.0378,0.0,0.0,0.0,0.0,0.0,0.0,0.0,0.0,0.0,0.0,0.0,0.0,0.0,0.0,0.0,0.0,0.0,0.0,0.0,0.0,0.0,0.0,0.0,0.0,0.0,0.0,0.0,0.0,0.0,0.0,0.0,0.0,0.0,0.0,0.0,0.0,0.0,0.0,0.0,0.0,0.0,0.0,0.0,0.0,0.0,0.0,0.0,0.0,0.0,0.0,0.0,0.0,0.0,0.0,0.0,0.0,0.0,0.0,0.0,0.0,0.0,0.0,0.0,0.0,0.0,0.0,0.0,0.0,0.0,0.0,0.0,0.0,0.0,0.0,0.0,0.0,0.0,0.0,0.0,0.0,0.0,0.0,0.0,0.0,0.0,0.0,0.0,0.0,0.0,0.0,0.0,0.0,0.0,0.0,0.0,0.0,0.0,0.0,0.0,0.0,0.0,0.0,0.0,0.0,0.0,0.0,0.0,0.0,0.0,4.815,4.9639,5.1679,5.4106,5.1573,4.9114,0.0,0.0,0.0,0.0,0.0,0.0,0.0,0.0,0.0,0.0,0.0,0.0,0.0,0.0,0.0,0.0,0.0,0.0,0.0,0.0,0.0,0.0,0.0,0.0,0.0,0.0,0.0,0.0,0.0,0.0,0.0,0.0,0.0,0.0,0.0,0.0,0.0,0.0,0.0,0.0,0.0,0.0,0.0,0.0,0.0,0.0,0.0,0.0,0.0,0.0,0.0,0.0,0.0,0.0,0.0,0.0,0.0,0.0,0.0,0.0,0.0,0.0,0.0,0.0,0.0,0.0,0.0,0.0,0.0,0.0,0.0,0.0,0.0,0.0,0.0,0.0,0.0,0.0,0.0,0.0,0.0,0.0,0.0,0.0,0.0,0.0,0.0,0.0,0.0,0.0,0.0,0.0,0.0,0.0,0.0,0.0,0.0,0.0,0.0,0.0,0.0,0.0,0.0,0.0,0.0,0.0,0.0,0.0,0.0,4.8191,0.0,5.2894,0.0,5.1096,4.8416,0.0,0.0,0.0,0.0,0.0,0.0,0.0,0.0,0.0,0.0,0.0,0.0,0.0,0.0,0.0,0.0,0.0,0.0,0.0,0.0,0.0,0.0,0.0,0.0,0.0,0.0,0.0,0.0,0.0,0.0,0.0,0.0,0.0,0.0,0.0,0.0,0.0,0.0,0.0,0.0,0.0,0.0,0.0,0.0,0.0,0.0,0.0,0.0,0.0,0.0,0.0,0.0,0.0,0.0,0.0,0.0,0.0,0.0,0.0,0.0,0.0,0.0,0.0,0.0,0.0,0.0,0.0,0.0,0.0,0.0,0.0,0.0,0.0,0.0,0.0,0.0,0.0,0.0,0.0,0.0,0.0,0.0,0.0,0.0,0.0,0.0,0.0,0.0,0.0,0.0,0.0,0.0,0.0,0.0,0.0,0.0,0.0,0.0,0.0,0.0,0.0,0.0,0.0,0.0,0.0,0.0,0.0,0.0,4.746,5.1768,5.4179,5.3995,5.1059,5.1536,4.8563,0.0,0.0,0.0,0.0,0.0,0.0,0.0,0.0,0.0,0.0,0.0,0.0,0.0,0.0,0.0,0.0,0.0,0.0,0.0,0.0,0.0,0.0,0.0,0.0,0.0,0.0,0.0,0.0,0.0,0.0,0.0,0.0,0.0,0.0,0.0,0.0,0.0,0.0,0.0,0.0,0.0,0.0,0.0,0.0,0.0,0.0,0.0,0.0,0.0,0.0,0.0,0.0,0.0,0.0,0.0,0.0,0.0,0.0,0.0,0.0,0.0,0.0,0.0,0.0,0.0,0.0,0.0,0.0,0.0,0.0,0.0,0.0,0.0,0.0,0.0,0.0,0.0,0.0,0.0,0.0,0.0,0.0,0.0,0.0,0.0,0.0,0.0,0.0,0.0,0.0,0.0,0.0,0.0,0.0,0.0,0.0,0.0,0.0,0.0,0.0,0.0,0.0,0.0,0.0,0.0,0.0,0.0,0.0,0.0,5.1149,5.3004,5.4289,5.4766,5.1353,4.893,0.0,0.0,0.0,0.0,0.0,0.0,0.0,0.0,0.0,0.0,0.0,0.0,0.0,0.0,0.0,0.0,0.0,0.0,0.0,0.0,0.0,0.0,0.0,0.0,0.0,0.0,0.0,0.0,0.0,0.0,0.0,0.0,0.0,0.0,0.0,0.0,0.0,0.0,0.0,0.0,0.0,0.0,0.0,0.0,0.0,0.0,0.0,0.0,0.0,0.0,0.0,0.0,0.0,0.0,0.0,0.0,0.0,0.0,0.0,0.0,0.0,0.0,0.0,0.0,0.0,0.0,0.0,0.0,0.0,0.0,0.0,0.0,0.0,0.0,0.0,0.0,0.0,0.0,0.0,0.0,0.0,0.0,0.0,0.0,0.0,0.0,0.0,0.0,0.0,0.0,0.0,0.0,0.0,0.0,0.0,0.0,0.0,0.0,0.0,0.0,0.0,0.0,0.0,0.0,0.0,0.0,0.0,0.0,0.0,5.3431,5.4706,5.57,5.6403,5.1782,4.9089,4.8462,0.0,0.0,0.0,0.0,0.0,0.0,0.0,0.0,0.0,0.0,0.0,0.0,0.0,0.0,0.0,0.0,0.0,0.0,0.0,0.0,0.0,0.0,0.0,0.0,0.0,0.0,0.0,0.0,0.0,0.0,0.0,0.0,0.0,0.0,0.0,0.0,0.0,0.0,0.0,0.0,0.0,0.0,0.0,0.0,0.0,0.0,0.0,0.0,0.0,0.0,0.0,0.0,0.0,0.0,0.0,0.0,0.0,0.0,0.0,0.0,0.0,0.0,0.0,0.0,0.0,0.0,0.0,0.0,0.0,0.0,0.0,0.0,0.0,0.0,0.0,0.0,0.0,0.0,0.0,0.0,0.0,0.0,0.0,0.0,0.0,0.0,0.0,0.0,0.0,0.0,0.0,0.0,0.0,0.0,0.0,0.0,0.0,0.0,0.0,0.0,0.0,0.0,0.0,0.0,0.0,0.0,0.0,0.0,5.7927,5.887,5.8287,5.6124,5.2889,4.9228,0.0,0.0,0.0,0.0,0.0,0.0,0.0,0.0,0.0,0.0,0.0,0.0,0.0,0.0,0.0,0.0,0.0,0.0,0.0,0.0,0.0,0.0,0.0,0.0,0.0,0.0,0.0,0.0,0.0,0.0,0.0,0.0,0.0,0.0,0.0,0.0,0.0,0.0,0.0,0.0,0.0,0.0,0.0,0.0,0.0,0.0,0.0,0.0,0.0,0.0,0.0,0.0,0.0,0.0,0.0,0.0,0.0,0.0,0.0,0.0,0.0,0.0,0.0,0.0,0.0,0.0,0.0,0.0,0.0,0.0,0.0,0.0,0.0,0.0,0.0,0.0,0.0,0.0,0.0,0.0,0.0,0.0,0.0,0.0,0.0,0.0,0.0,0.0,0.0,0.0,0.0,0.0,0.0,0.0,0.0,0.0,0.0,0.0,0.0,0.0,0.0,0.0,0.0,0.0,0.0,0.0,0.0,0.0,0.0,5.9481,6.1379,6.1548,5.9875,5.52,5.1635,0.0,0.0,0.0,0.0,0.0,0.0,0.0,0.0,0.0,0.0,0.0,0.0,0.0,0.0,0.0,0.0,0.0,0.0,0.0,0.0,0.0,0.0,0.0,0.0,0.0,0.0,0.0,0.0,0.0,0.0,0.0,0.0,0.0,0.0,0.0,0.0,0.0,0.0,0.0,0.0,0.0,0.0,0.0,0.0,0.0,0.0,0.0,0.0,0.0,0.0,0.0,0.0,0.0,0.0,0.0,0.0,0.0,0.0,0.0,0.0,0.0,0.0,0.0,0.0,0.0,0.0,0.0,0.0,0.0,0.0,0.0,0.0,0.0,0.0,0.0,0.0,0.0,0.0,0.0,0.0,0.0,0.0,0.0,0.0,0.0,0.0,0.0,0.0,0.0,0.0,0.0,0.0,0.0,0.0,0.0,0.0,0.0,0.0,0.0,0.0,0.0,0.0,0.0,0.0,0.0,0.0,0.0,0.0,5.8136,6.0614,6.3485,6.4094,6.2334,5.7376,5.3401,0.0,0.0,0.0,0.0,0.0,0.0,0.0,0.0,0.0,0.0,0.0,0.0,0.0,0.0,0.0,0.0,0.0,0.0,0.0,0.0,0.0,0.0,0.0,0.0,0.0,0.0,0.0,0.0,0.0,0.0,0.0,0.0,0.0,0.0,0.0,0.0,0.0,0.0,0.0,0.0,0.0,0.0,0.0,0.0,0.0,0.0,0.0,0.0,0.0,0.0,0.0,0.0,0.0,0.0,0.0,0.0,0.0,0.0,0.0,0.0,0.0,0.0,0.0,0.0,0.0,0.0,0.0,0.0,0.0,0.0,0.0,0.0,0.0,0.0,0.0,0.0,0.0,0.0,0.0,0.0,0.0,0.0,0.0,0.0,0.0,0.0,0.0,0.0,0.0,0.0,0.0,0.0,0.0,0.0,0.0,0.0,0.0,0.0,0.0,0.0,0.0,0.0,0.0,0.0,0.0,0.0,0.0,0.0,5.976,6.1396,6.5054,6.5906,6.3605,5.9268,5.4737,0.0,0.0,0.0,0.0,0.0,0.0,0.0,0.0,0.0,0.0,0.0,0.0,0.0,0.0,0.0,0.0,0.0,0.0,0.0,0.0,0.0,0.0,0.0,0.0,0.0,0.0,0.0,0.0,0.0,0.0,0.0,0.0,0.0,0.0,0.0,0.0,0.0,0.0,0.0,0.0,0.0,0.0,0.0,0.0,0.0,0.0,0.0,0.0,0.0,0.0,0.0,0.0,0.0,0.0,0.0,0.0,0.0,0.0,0.0,0.0,0.0,0.0,0.0,0.0,0.0,0.0,0.0,0.0,0.0,0.0,0.0,0.0,0.0,0.0,0.0,0.0,0.0,0.0,0.0,0.0,0.0,0.0,0.0,0.0,0.0,0.0,0.0,0.0,0.0,0.0,0.0,0.0,0.0,0.0,0.0,0.0,0.0,0.0,0.0,0.0,0.0,0.0,0.0,0.0,0.0,0.0,0.0,0.0,5.9975,6.2084,6.5186,6.6038,6.4377,6.0013,5.5549,0.0,0.0,0.0,0.0,0.0,0.0,0.0,0.0,0.0,0.0,0.0,0.0,0.0,0.0,0.0,0.0,0.0,0.0,0.0,0.0,0.0,0.0,0.0,0.0,0.0,0.0,0.0,0.0,0.0,0.0,0.0,0.0,0.0,0.0,0.0,0.0,0.0,0.0,0.0,0.0,0.0,0.0,0.0,0.0,0.0,0.0,0.0,0.0,3.3267,0.0,0.0,0.0,0.0,0.0,0.0,0.0,0.0,0.0,0.0,0.0,0.0,0.0,0.0,0.0,0.0,0.0,0.0,0.0,0.0,0.0,0.0,0.0,0.0,0.0,0.0,0.0,0.0,0.0,0.0,0.0,0.0,0.0,0.0,0.0,0.0,0.0,0.0,0.0,0.0,0.0,0.0,0.0,0.0,0.0,0.0,0.0,0.0,0.0,0.0,0.0,0.0,0.0,0.0,0.0,0.0,0.0,0.0,0.0,6.0388,6.232,6.5257,6.6102,6.458,6.1264,5.7036,0.0,0.0,0.0,0.0,0.0,0.0,0.0,0.0,0.0,0.0,0.0,0.0,0.0,0.0,0.0,0.0,0.0,0.0,0.0,0.0,0.0,0.0,0.0,0.0,0.0,0.0,0.0,0.0,0.0,0.0,0.0,0.0,0.0,0.0,0.0,0.0,0.0,0.0,0.0,0.0,0.0,0.0,0.0,0.0,0.0,0.0,0.0,0.0,0.0,0.0,0.0,0.0,0.0,0.0,0.0,0.0,0.0,0.0,0.0,0.0,0.0,0.0,0.0,0.0,0.0,0.0,0.0,0.0,0.0,0.0,0.0,0.0,0.0,0.0,0.0,0.0,0.0,0.0,0.0,0.0,0.0,0.0,0.0,0.0,0.0,0.0,0.0,0.0,0.0,0.0,0.0,0.0,0.0,0.0,0.0,0.0,0.0,0.0,0.0,0.0,0.0,0.0,0.0,0.0,0.0,0.0,0.0,5.7051,6.0752,6.2725,6.5392,6.6102,6.4647,6.233,5.8238,5.237,0.0,0.0,0.0,0.0,0.0,0.0,0.0,0.0,0.0,0.0,0.0,0.0,0.0,0.0,0.0,0.0,0.0,0.0,0.0,0.0,0.0,0.0,0.0,0.0,0.0,0.0,0.0,0.0,0.0,0.0,0.0,0.0,0.0,0.0,0.0,0.0,0.0,0.0,3.2856,3.3086,0.0,0.0,0.0,0.0,0.0,0.0,0.0,0.0,3.5397,0.0,0.0,0.0,0.0,0.0,0.0,0.0,0.0,0.0,0.0,0.0,0.0,0.0,0.0,0.0,0.0,0.0,0.0,0.0,0.0,0.0,0.0,0.0,0.0,0.0,0.0,0.0,0.0,0.0,0.0,0.0,0.0,0.0,0.0,0.0,0.0,0.0,0.0,0.0,0.0,0.0,0.0,0.0,0.0,0.0,0.0,0.0,0.0,0.0,0.0,0.0,0.0,0.0,0.0,0.0,0.0,5.4839,5.7148,6.0197,6.414,6.5933,6.6102,6.4573,6.1588,5.7266,5.1723,0.0,0.0,0.0,0.0,0.0,0.0,0.0,0.0,0.0,0.0,0.0,0.0,0.0,0.0,0.0,0.0,0.0,0.0,0.0,0.0,0.0,0.0,0.0,0.0,0.0,0.0,0.0,0.0,0.0,0.0,0.0,0.0,0.0,0.0,0.0,0.0,0.0,0.0,0.0,3.413,3.3945,0.0,0.0,0.0,0.0,0.0,0.0,0.0,0.0,3.5309,0.0,0.0,0.0,0.0,0.0,0.0,0.0,0.0,0.0,0.0,0.0,0.0,0.0,0.0,0.0,0.0,0.0,0.0,0.0,0.0,0.0,0.0,0.0,0.0,0.0,0.0,0.0,0.0,0.0,0.0,0.0,0.0,0.0,0.0,0.0,0.0,0.0,0.0,0.0,0.0,0.0,0.0,0.0,0.0,0.0,0.0,0.0,0.0,0.0,0.0,0.0,0.0,0.0,0.0,0.0,5.4431,5.7915,6.1264,6.4478,6.5662,6.5413,6.3651,5.9731,5.4865,0.0,0.0,0.0,0.0,0.0,0.0,0.0,0.0,0.0,0.0,0.0,0.0,0.0,0.0,0.0,0.0,0.0,0.0,0.0,0.0,0.0,0.0,0.0,0.0,0.0,0.0,0.0,0.0,0.0,0.0,0.0,0.0,0.0,0.0,0.0,0.0,0.0,0.0,0.0,0.0,3.45,3.4968,3.5488,0.0,0.0,0.0,0.0,0.0,0.0,3.5179,3.543,0.0,0.0,0.0,0.0,0.0,0.0,0.0,0.0,0.0,0.0,0.0,0.0,0.0,0.0,0.0,0.0,0.0,0.0,0.0,0.0,0.0,0.0,0.0,0.0,0.0,0.0,0.0,0.0,0.0,0.0,0.0,0.0,0.0,0.0,0.0,0.0,0.0,0.0,0.0,0.0,0.0,0.0,0.0,0.0,0.0,0.0,0.0,0.0,0.0,0.0,0.0,0.0,0.0,0.0,0.0,5.328,5.8118,6.1722,6.3956,6.4723,6.4118,6.2049,5.7642,5.2683,0.0,0.0,0.0,0.0,0.0,0.0,0.0,0.0,0.0,0.0,0.0,0.0,0.0,0.0,0.0,0.0,0.0,0.0,0.0,0.0,0.0,0.0,0.0,0.0,0.0,0.0,0.0,0.0,0.0,0.0,0.0,0.0,0.0,0.0,0.0,0.0,0.0,0.0,0.0,0.0,0.0,3.6176,3.5569,3.5852,0.0,0.0,0.0,0.0,3.5729,3.6161,0.0,0.0,0.0,0.0,0.0,0.0,0.0,0.0,0.0,0.0,0.0,0.0,0.0,0.0,0.0,0.0,0.0,0.0,0.0,0.0,0.0,0.0,0.0,0.0,0.0,0.0,0.0,0.0,0.0,0.0,0.0,0.0,0.0,0.0,0.0,0.0,0.0,0.0,0.0,0.0,0.0,0.0,0.0,0.0,0.0,0.0,0.0,0.0,0.0,0.0,0.0,0.0,0.0,0.0,0.0,0.0,5.2434,5.6292,5.9487,6.1905,6.2756,6.1939,5.9427,5.6024,5.1748,0.0,0.0,0.0,0.0,0.0,0.0,0.0,0.0,0.0,0.0,0.0,0.0,0.0,0.0,0.0,0.0,0.0,0.0,0.0,0.0,0.0,0.0,0.0,0.0,0.0,0.0,0.0,0.0,0.0,0.0,0.0,0.0,0.0,0.0,0.0,0.0,0.0,0.0,0.0,0.0,0.0,3.7402,3.6839,3.6733,3.6317,0.0,0.0,3.7015,3.6447,3.8321,0.0,0.0,0.0,0.0,0.0,0.0,0.0,0.0,0.0,0.0,0.0,0.0,0.0,0.0,0.0,0.0,0.0,0.0,0.0,0.0,0.0,0.0,0.0,0.0,0.0,0.0,0.0,0.0,0.0,0.0,0.0,0.0,0.0,0.0,0.0,0.0,0.0,0.0,0.0,0.0,0.0,0.0,0.0,0.0,0.0,0.0,0.0,0.0,0.0,0.0,0.0,0.0,0.0,0.0,0.0,4.9018,5.1356,5.6254,5.9399,6.0639,6.1016,6.0122,5.7915,5.3571,4.9326,0.0,0.0,0.0,0.0,0.0,0.0,0.0,0.0,0.0,0.0,0.0,0.0,0.0,0.0,0.0,0.0,0.0,0.0,0.0,0.0,0.0,0.0,0.0,0.0,0.0,0.0,0.0,0.0,0.0,0.0,0.0,0.0,0.0,0.0,0.0,0.0,0.0,0.0,0.0,0.0,0.0,0.0,3.7601,3.8535,0.0,0.0,0.0,3.8302,3.7674,0.0,0.0,0.0,0.0,0.0,0.0,0.0,0.0,0.0,0.0,0.0,0.0,0.0,0.0,0.0,0.0,0.0,0.0,0.0,0.0,0.0,0.0,0.0,0.0,0.0,0.0,0.0,0.0,0.0,0.0,0.0,0.0,0.0,0.0,0.0,0.0,0.0,0.0,0.0,0.0,0.0,0.0,0.0,0.0,0.0,0.0,0.0,0.0,0.0,0.0,0.0,0.0,0.0,0.0,0.0,0.0,0.0,5.0287,5.5883,5.8918,5.915,5.9168,5.82,5.6149,5.1894,0.0,0.0,0.0,0.0,0.0,0.0,0.0,0.0,0.0,0.0,0.0,0.0,0.0,0.0,0.0,0.0,0.0,0.0,0.0,0.0,0.0,0.0,0.0,0.0,0.0,0.0,0.0,2.5854,0.0,0.0,0.0,0.0,0.0,0.0,0.0,0.0,0.0,0.0,0.0,0.0,0.0,0.0,3.9832,3.8306,4.0149,4.1148,0.0,0.0,3.9499,3.899,3.949,3.8782,0.0,0.0,0.0,0.0,0.0,0.0,0.0,0.0,0.0,0.0,0.0,0.0,0.0,0.0,0.0,0.0,0.0,0.0,0.0,0.0,0.0,0.0,0.0,0.0,0.0,0.0,0.0,0.0,0.0,0.0,0.0,0.0,0.0,0.0,0.0,0.0,0.0,0.0,0.0,0.0,0.0,0.0,0.0,0.0,0.0,0.0,0.0,0.0,0.0,0.0,0.0,0.0,0.0,0.0,0.0,4.9594,5.4366,5.7026,5.7181,5.7196,5.6005,5.3567,5.191,4.8625,0.0,0.0,0.0,0.0,0.0,0.0,0.0,0.0,0.0,0.0,0.0,0.0,0.0,0.0,0.0,0.0,0.0,0.0,0.0,0.0,0.0,0.0,0.0,0.0,0.0,0.0,0.0,0.0,0.0,0.0,0.0,0.0,0.0,0.0,0.0,0.0,0.0,0.0,0.0,0.0,0.0,4.0121,3.939,4.1017,4.2282,0.0,0.0,4.0307,4.0277,4.092,4.0274,3.6866,0.0,0.0,0.0,0.0,0.0,0.0,0.0,0.0,0.0,0.0,0.0,0.0,0.0,0.0,0.0,0.0,0.0,0.0,0.0,0.0,0.0,0.0,0.0,0.0,0.0,0.0,0.0,0.0,0.0,0.0,0.0,0.0,0.0,0.0,0.0,0.0,0.0,0.0,0.0,0.0,0.0,0.0,0.0,0.0,0.0,0.0,0.0,0.0,0.0,0.0,0.0,0.0,0.0,4.6949,4.7675,5.289,5.5674,5.5876,5.5493,5.4612,5.3253,5.1528,4.8282,0.0,0.0,0.0,0.0,0.0,0.0,0.0,0.0,0.0,0.0,0.0,0.0,0.0,0.0,0.0,0.0,0.0,0.0,0.0,0.0,0.0,0.0,0.0,0.0,0.0,0.0,0.0,0.0,2.9624,2.9804,2.9265,0.0,0.0,0.0,0.0,0.0,0.0,0.0,0.0,0.0,0.0,3.9946,4.1069,4.2222,0.0,0.0,4.2192,4.1512,4.1093,4.1249,3.9962,3.5603,3.4059,0.0,0.0,0.0,0.0,0.0,0.0,0.0,0.0,0.0,0.0,0.0,0.0,0.0,0.0,0.0,0.0,0.0,0.0,0.0,0.0,0.0,0.0,0.0,0.0,0.0,0.0,0.0,0.0,0.0,0.0,0.0,0.0,0.0,0.0,0.0,0.0,0.0,0.0,0.0,0.0,0.0,0.0,0.0,0.0,0.0,0.0,0.0,0.0,0.0,0.0,0.0,0.0,4.5927,4.6542,5.169,5.4466,5.4581,5.4341,5.3803,5.2905,5.1349,4.8402,0.0,0.0,0.0,0.0,0.0,0.0,0.0,0.0,0.0,0.0,0.0,0.0,0.0,0.0,0.0,0.0,0.0,0.0,0.0,0.0,0.0,0.0,0.0,0.0,0.0,0.0,0.0,0.0,3.1032,3.0731,2.9445,0.0,0.0,0.0,0.0,0.0,0.0,0.0,0.0,0.0,0.0,3.9702,4.1778,4.2641,4.303,4.303,4.2162,4.1384,4.1115,4.0642,3.9002,3.5282,0.0,0.0,0.0,0.0,0.0,0.0,0.0,0.0,0.0,0.0,0.0,0.0,0.0,0.0,0.0,0.0,0.0,0.0,0.0,0.0,0.0,0.0,0.0,0.0,0.0,0.0,0.0,0.0,0.0,0.0,4.3539,0.0,0.0,0.0,0.0,0.0,0.0,0.0,0.0,0.0,0.0,0.0,0.0,0.0,0.0,0.0,0.0,0.0,0.0,0.0,0.0,0.0,0.0,4.5195,4.6533,5.0955,5.3253,5.3264,5.3862,5.3563,5.2276,5.1558,4.9314,4.5334,0.0,0.0,0.0,0.0,0.0,0.0,0.0,0.0,0.0,0.0,0.0,0.0,0.0,0.0,0.0,0.0,0.0,0.0,0.0,0.0,0.0,0.0,0.0,0.0,0.0,0.0,3.1391,3.0883,3.0043,0.0,0.0,0.0,0.0,0.0,0.0,0.0,0.0,0.0,0.0,3.6785,3.945,4.1211,4.2021,4.247,4.247,4.0786,3.9738,4.0367,3.8977,3.7461,0.0,0.0,0.0,0.0,0.0,0.0,0.0,0.0,0.0,0.0,0.0,0.0,0.0,0.0,0.0,0.0,0.0,0.0,0.0,0.0,0.0,0.0,0.0,0.0,0.0,0.0,0.0,4.8209,4.6442,0.0,0.0,0.0,0.0,0.0,0.0,0.0,0.0,0.0,0.0,0.0,5.0439,5.0439,0.0,0.0,0.0,0.0,0.0,0.0,0.0,0.0,0.0,0.0,0.0,0.0,4.4357,4.5837,5.0199,5.2755,5.3144,5.2965,5.2665,5.2217,5.1558,4.9134,4.4766,0.0,0.0,0.0,0.0,0.0,0.0,0.0,0.0,0.0,0.0,0.0,0.0,0.0,0.0,0.0,0.0,0.0,0.0,0.0,0.0,0.0,0.0,0.0,0.0,0.0,3.172,0.0,0.0,0.0,0.0,0.0,0.0,0.0,0.0,0.0,0.0,0.0,3.2448,3.5454,3.6997,3.8864,4.1671,4.2261,4.256,0.0,0.0,0.0,0.0,0.0,0.0,0.0,0.0,0.0,0.0,0.0,0.0,0.0,0.0,3.3293,2.9744,2.8656,2.811,2.7579,0.0,0.0,0.0,0.0,0.0,0.0,0.0,0.0,0.0,0.0,0.0,0.0,0.0,0.0,5.0347,0.0,4.9057,0.0,0.0,0.0,0.0,0.0,0.0,0.0,0.0,5.2503,5.3788,5.4228,5.3815,5.3104,0.0,5.0257,4.7593,0.0,0.0,0.0,0.0,0.0,0.0,0.0,0.0,4.4396,4.6112,5.0301,5.2636,5.2815,5.2875,5.2546,5.1887,5.099,4.8805,4.5125,4.1444,3.8571,0.0,0.0,0.0,0.0,0.0,0.0,0.0,0.0,0.0,0.0,0.0,0.0,0.0,0.0,0.0,0.0,0.0,0.0,0.0,0.0,0.0,0.0,0.0,3.2017,0.0,0.0,0.0,0.0,0.0,0.0,0.0,0.0,0.0,3.0859,3.1833,3.3586,3.6542,3.7692,3.9075,4.1373,0.0,0.0,0.0,0.0,0.0,0.0,0.0,3.7769,3.5947,3.5492,3.503,3.3991,3.4934,3.5857,3.5932,0.0,0.0,3.1561,3.0214,2.9473,2.9194,3.0197,3.1148,3.1378,3.2539,3.3365,0.0,0.0,0.0,0.0,0.0,0.0,0.0,0.0,5.2931,5.1862,0.0,5.1645,0.0,0.0,0.0,0.0,0.0,0.0,0.0,0.0,5.6833,5.7949,5.7839,5.6729,5.5429,5.4142,5.3528,5.1455,4.8066,4.5927,0.0,0.0,0.0,0.0,0.0,0.0,4.5334,4.7399,5.1169,5.2815,5.2276,5.3443,5.3204,5.1242,5.0002,4.8416,4.6441,4.4496,4.1923,3.8626,3.5962,0.0,0.0,0.0,0.0,0.0,0.0,0.0,0.0,0.0,0.0,0.0,0.0,0.0,0.0,0.0,0.0,0.0,0.0,0.0,0.0,3.0857,0.0,0.0,0.0,0.0,0.0,0.0,0.0,0.0,0.0,0.0,3.1266,3.2998,3.5058,3.6967,0.0,0.0,0.0,0.0,4.0905,3.9738,3.8931,3.8542,3.8542,3.8512,3.8452,3.8322,0.0,0.0,3.7535,3.7126,3.6539,3.5196,3.5468,3.5565,3.4529,3.3093,3.2109,3.1853,3.2297,3.3106,3.3762,3.4547,3.518,6.0718,0.0,0.0,0.0,0.0,5.6192,5.6595,5.7655,5.7579,5.5878,5.3206,5.3556,0.0,0.0,0.0,0.0,0.0,0.0,5.5243,5.6968,5.8152,5.8824,5.8986,5.8096,5.7299,5.6604,5.4648,5.2953,5.1463,4.9561,4.6432,4.2147,0.0,0.0,0.0,0.0,4.6232,4.873,5.1199,5.2396,5.2187,5.2576,5.2276,5.1229,5.0421,4.9254,4.7758,4.6262,4.3772,4.0149,3.7957,0.0,0.0,0.0,0.0,0.0,0.0,0.0,0.0,0.0,0.0,0.0,0.0,0.0,0.0,0.0,0.0,0.0,0.0,0.0,3.0358,3.1123,3.1303,0.0,0.0,0.0,0.0,0.0,0.0,0.0,0.0,0.0,3.465,3.4952,3.5669,0.0,0.0,3.8713,3.9563,4.0247,4.0726,4.0816,0.0,0.0,0.0,4.0127,3.9393,3.8127,3.7767,3.7338,3.6588,3.6799,3.6811,3.5962,3.5409,3.4954,3.4634,3.3553,3.2435,3.186,3.2814,3.3963,3.424,3.5046,3.5601,6.4953,6.1769,5.954,5.8777,5.909,5.9055,5.9426,6.0153,6.0582,5.9,5.6024,5.6567,5.4695,5.1163,5.1518,0.0,0.0,0.0,5.7814,5.9708,6.0452,6.0881,6.0976,5.961,5.8508,5.7648,5.5224,5.3682,5.3009,5.1345,4.881,4.5379,0.0,0.0,4.4035,4.5913,4.7908,5.0002,5.1977,5.2995,5.2995,5.2486,5.2007,5.1618,5.096,5.0002,4.876,4.7668,4.5306,4.1542,3.956,3.677,0.0,0.0,0.0,0.0,0.0,0.0,0.0,0.0,0.0,0.0,0.0,2.5959,2.3966,0.0,0.0,0.0,2.6454,2.8088,3.0105,3.0604,0.0,0.0,0.0,0.0,0.0,0.0,0.0,3.2371,3.2861,3.4116,3.6853,3.7398,3.7929,3.9147,3.9693,4.0047,4.0203,0.0,4.1272,4.1384,4.1422,4.1422,4.1384,4.0893,4.0062,3.8785,3.8337,3.7772,3.7029,3.7207,3.6975,3.5859,3.5102,3.4594,3.4137,3.34,3.2935,3.2757,3.3635,3.4594,3.4992,3.5591,3.5835,6.8477,6.5781,6.1521,6.0202,6.0916,6.155,6.1595,6.1278,6.2329,6.1099,5.8504,5.9804,5.8342,5.4869,5.5095,0.0,0.0,5.9742,6.1129,6.2584,6.318,6.3364,6.3168,6.089,5.906,5.7714,5.5333,5.3952,5.3432,5.2037,5.075,4.9599,4.8267,4.7219,4.6518,4.8297,4.9942,5.1289,5.3114,5.4072,5.4102,5.2875,5.2157,5.2037,5.1468,5.0465,4.9134,4.8402,4.6299,4.2582,4.0551,3.7603,3.3547,0.0,0.0,0.0,0.0,0.0,0.0,0.0,0.0,0.0,0.0,0.0,0.0,0.0,0.0,0.0,2.6766,0.0,2.9026,2.9859,0.0,0.0,0.0,3.0387,3.2,3.1423,3.1559,3.3331,0.0,0.0,3.8173,0.0,4.1081,4.1856,4.2688,4.2821,4.1624,4.1991,4.2171,4.1564,4.1534,4.1526,4.1424,4.0779,4.0067,3.9581,3.964,3.889,3.7836,3.7508,3.6739,3.4944,3.4594,3.4262,3.3283,3.3104,3.3428,3.4417,3.4665,3.4967,3.5732,3.5943,3.5818,6.7849,6.6642,6.5006,6.4248,6.3876,6.3091,6.3244,6.3904,6.2768,6.1564,6.0351,5.9199,5.8326,5.7775,5.7833,5.9446,6.2212,6.255,6.3193,6.3998,6.3266,6.2409,6.1426,5.9427,5.8058,5.7192,5.518,5.464,5.5329,5.3593,5.2546,5.2234,5.093,4.9194,4.7219,4.8536,5.0152,5.1947,5.2426,5.2935,5.3384,5.2606,5.1708,5.0704,5.0524,4.941,4.7182,4.6512,4.4436,4.0738,3.932,3.6924,3.3363,3.2278,0.0,0.0,0.0,0.0,0.0,0.0,0.0,0.0,0.0,2.6889,2.4958,0.0,2.7494,0.0,2.7896,2.9276,3.1083,3.1403,0.0,0.0,3.262,3.2592,3.2829,3.3022,3.3305,3.3748,3.4495,3.6278,3.9869,4.0681,4.201,4.4706,4.3677,4.2462,4.2201,4.2291,4.2351,4.2192,4.2482,4.2505,4.1494,3.9912,3.8684,3.8532,3.7449,3.6322,3.5627,3.5138,3.4563,3.3666,3.3471,3.3368,3.3154,3.3136,3.3513,3.4428,3.4718,3.4733,3.502,3.5061,3.4874,6.8315,6.7388,6.7029,6.6522,6.5833,6.5197,6.4954,6.495,6.4167,6.3165,6.1882,6.0206,5.985,6.0561,6.0544,6.1839,6.3883,6.3742,6.3869,6.4152,6.3284,6.2312,6.1293,5.9704,5.8423,5.7456,5.5872,5.5448,5.6047,5.3799,5.2818,5.3053,5.1374,4.9548,4.7654,4.8988,5.0242,5.1319,5.2217,5.2815,5.3193,5.2815,5.1738,4.9912,4.9258,4.7809,4.5309,4.4171,4.2004,3.8618,3.7626,3.5721,3.2542,3.185,3.0771,0.0,0.0,0.0,0.0,0.0,0.0,0.0,0.0,0.0,0.0,0.0,2.8925,2.9101,2.9679,3.0694,3.2349,3.2452,3.2798,3.3688,3.3749,3.3785,3.4142,3.4449,3.4726,3.4977,3.5729,3.7487,4.089,4.1824,4.3141,4.5917,4.4796,4.3609,4.324,4.3,4.2634,4.2168,4.2313,4.1947,4.0333,3.8979,3.7952,3.7376,3.6345,3.5332,3.4781,3.4274,3.3721,3.3219,3.3136,3.3136,3.3136,3.3136,3.3326,3.3742,3.3995,3.4137,3.4594,3.4304,3.3814,6.9243,6.8106,6.8016,6.7597,6.7031,6.7041,6.6348,6.5143,6.5604,6.4789,6.2869,6.1732,6.1829,6.279,6.2839,6.3464,6.4481,6.4068,6.3776,6.3666,6.305,6.2412,6.1711,6.0459,5.919,5.798,5.6758,5.6205,5.6006,5.3396,5.2368,5.2701,5.0675,4.8977,4.7876,4.9106,4.9868,5.0084,5.2031,5.3054,5.3054,5.2729,5.1369,4.8909,4.7578,4.57,4.3169,4.1571,3.9393,3.6647,3.5943,3.4481,3.187,3.1383,3.0701,0.0,2.9228,0.0,0.0,0.0,0.0,0.0,0.0,0.0,0.0,2.9804,3.0633,3.1637,3.1712,3.2098,3.2953,3.3127,3.3239,3.3578,3.3861,3.4304,3.5226,3.549,3.5855,3.6455,3.7392,3.891,4.1142,4.258,4.3965,4.521,4.5048,4.4294,4.3867,4.3256,4.257,4.1545,4.1253,4.0376,3.8667,3.788,3.7165,3.6207,3.545,3.4977,3.4334,3.399,3.3646,3.3194,3.3136,3.3025,3.2939,3.2853,3.2766,3.2568,3.2451,3.2782,3.3814,3.342,3.2639,6.9512,6.8764,6.8196,6.7597,6.6969,6.7004,6.6523,6.5742,6.4779,6.3607,6.2301,6.2032,6.2318,6.2955,6.2976,6.3375,6.4076,6.4014,6.3661,6.3067,6.1932,6.1333,6.1076,5.9314,5.8332,5.803,5.6831,5.6048,5.5742,5.3815,5.2491,5.1822,4.9884,4.8592,4.7823,0.0,0.0,0.0,5.1409,5.2396,5.2288,5.0309,4.8283,4.6276,4.4595,0.0,4.0086,3.881,3.7429,3.5811,3.5187,0.0,0.0,0.0,0.0,0.0,0.0,0.0,0.0,0.0,0.0,0.0,3.1468,3.1009,3.0407,3.1612,3.2717,3.3345,3.342,3.3275,3.2827,3.3167,3.3007,3.2147,3.3361,3.4366,3.4607,3.5567,3.648,3.7008,3.725,3.8122,4.002,4.1315,4.2234,4.2693,4.2912,4.2639,4.1605,4.1751,4.1491,4.0404,3.9464,3.8667,3.8198,3.6445,3.5136,3.4246,3.3669,3.3164,3.2795,3.3024,3.3269,3.3093,3.3136,3.2698,3.1821,3.1557,3.1267,3.0328,2.987,3.0255,3.2214,3.1833,3.0893,7.0051,0.0,6.8764,6.8076,0.0,6.7119,6.6789,6.643,6.5413,6.4246,6.3019,6.269,6.291,6.3455,6.3455,6.3682,6.393,6.3318,6.2657,6.1946,6.0691,6.0045,6.0045,5.9031,5.8261,5.755,5.6202,5.5279,5.4694,5.2098,5.0709,5.057,4.8558,4.7415,4.7126,4.7839,4.8858,5.0112,5.0515,5.1033,5.1542,4.9373,4.7144,4.4978,0.0,0.0,0.0,0.0,0.0,0.0,0.0,0.0,0.0,0.0,0.0,3.1464,3.1231,3.0788,3.006,3.0242,3.0858,3.1967,3.3419,3.3822,3.2717,3.3671,3.4625,3.5429,3.4876,3.4364,3.4242,3.3811,3.3298,3.2689,3.4055,3.5096,3.5246,3.6358,3.7287,3.761,3.812,3.8943,3.9796,4.0966,4.156,4.1373,4.1539,4.1159,3.9868,4.0225,4.0318,3.9183,3.8043,3.7031,3.6351,3.5354,3.3952,3.3023,3.27,3.2533,3.2172,3.214,3.2326,3.281,3.2152,3.1134,3.1223,3.0709,3.0055,2.9286,2.8431,2.7966,2.8872,2.9114,2.8991,7.056,6.9931,6.9273,6.8615,6.7926,6.7268,6.6999,6.6939,0.0,0.0,0.0,6.3348,6.3403,6.3817,6.3872,6.3689,6.3407,6.2364,6.1409,6.064,5.9576,5.9099,5.9099,5.9099,5.8304,5.6674,5.5463,5.4271,5.3013,4.9975,4.8647,4.8911,4.7189,4.6326,4.6431,4.8323,4.9688,5.0351,4.9631,4.9601,5.0325,4.8311,4.6055,4.3606,4.2248,4.0195,3.7386,3.5744,3.449,3.3605,3.3039,3.2818,3.2892,3.2818,3.2277,3.1152,3.1155,3.0744,2.9678,3.0075,3.1029,3.2511,3.5127,3.6279,3.5228,3.5422,3.5953,3.6896,3.5639,3.4824,3.5039,3.4282,3.3523,3.3334,3.4803,3.5856,3.5907,3.7119,3.799,3.8264,3.9265,3.9907,3.9611,4.0827,4.1286,4.0322,4.0059,3.9726,3.8376,3.863,3.8872,3.7906,3.7057,3.6001,3.48,3.4291,3.3543,3.1965,3.2157,3.2391,3.1984,3.1532,3.1669,3.2457,3.0866,2.9988,3.0305,2.9625,2.8739,2.798,2.6886,2.5719,2.4927,2.5585,2.5997,7.056,6.9931,6.9273,6.8615,6.7926,6.7268,6.6999,6.6879,6.5712,6.4725,6.3947,6.3348,6.3134,6.3243,6.3243,6.2578,6.1478,6.1313,6.0541,0.0,5.9207,5.9099,5.9099,5.9099,5.7705,5.5333,5.4944,5.3191,5.0139,4.8969,4.8146,4.7465,4.6698,4.6326,4.6371,4.732,4.792,4.8177,4.8836,4.8724,4.7652,4.5194,4.2839,4.0668,3.8622,3.645,3.4159,3.3118,3.2424,3.2266,3.1792,3.1702,3.2108,3.1844,3.1472,3.13,3.1632,3.1828,3.1728,3.2174,3.3203,3.5112,3.6825,3.7513,3.691,3.616,3.5798,3.5914,3.4659,3.3351,3.2427,3.3165,3.3294,3.247,3.4439,3.5958,3.6057,3.7218,3.8241,3.8743,3.991,3.9969,3.8825,4.0248,4.0394,3.8048,3.8116,3.8076,3.7155,3.6756,3.6849,3.6662,3.6546,3.581,3.4631,3.3909,3.2906,3.1318,3.1599,3.1916,3.1484,3.1229,3.1223,3.1444,3.0214,2.9074,2.8426,2.764,2.6506,2.4836,2.3579,2.241,2.1349,2.1126,2.1095,7.0739,7.041,6.9782,6.9153,6.8465,6.7418,6.6999,6.6909,6.5981,6.5173,6.4515,6.3857,6.3408,6.3137,6.3137,6.2361,6.1104,6.1104,6.0386,5.9159,5.9099,5.9099,5.9045,5.8221,5.677,5.4892,5.319,5.115,4.8927,4.7814,4.7121,4.6652,4.6426,4.6326,4.6336,4.7484,4.7388,4.6103,4.6948,4.6727,4.523,4.2983,4.0771,3.8642,3.7354,3.5959,3.44,3.3688,3.3198,3.2879,3.2656,3.2634,3.2834,3.2656,3.2215,3.1512,3.1653,3.1466,3.0817,3.242,3.3855,3.5067,3.649,3.7307,3.7356,3.6668,3.609,3.5557,3.4183,3.309,3.2503,3.3035,3.3145,3.2559,3.5077,3.674,3.6948,3.8105,3.9019,3.9398,4.0171,4.005,3.8213,3.9349,3.9408,3.6955,3.6943,3.6943,3.6405,3.5763,3.5619,3.6168,3.581,3.4993,3.4053,3.3019,3.1931,3.0606,3.1252,3.1612,3.1252,3.0777,3.0553,3.0843,2.9212,2.7593,2.7051,2.5913,2.442,2.3037,2.1097,1.9821,1.891,1.8132,1.7979,7.0919,7.0829,7.0081,6.9303,6.8465,6.7448,6.6999,6.6939,6.646,6.5772,6.4994,6.4306,6.3647,6.3109,6.3137,6.2361,6.1224,6.1104,6.0386,5.9189,5.9099,5.8936,5.844,5.7272,5.5707,5.381,5.1404,4.9489,4.8023,4.6747,4.605,4.5974,4.605,4.6125,4.6125,4.6916,4.6203,4.4211,4.4251,4.3877,4.2917,4.1081,3.9104,3.7192,3.6567,3.5755,3.4549,3.3973,3.3496,3.3041,3.2911,3.289,3.2944,3.2911,3.2361,3.1422,3.1361,3.1,3.0145,3.2226,3.382,3.425,3.5566,3.6443,3.6449,3.6117,3.5619,3.4781,3.343,3.2659,3.3035,3.343,3.3754,3.4181,3.6379,3.7959,3.8113,3.9025,3.9697,3.9776,4.0327,4.0099,3.8679,3.8666,3.8376,3.6908,3.6405,3.631,3.5906,3.4969,3.4872,3.4945,3.4557,3.3781,3.3143,3.2453,3.1536,3.0576,3.141,3.1786,3.1318,3.0214,2.9579,2.9875,2.776,2.6032,2.5879,2.4504,2.2742,2.1304,1.9586,1.811,1.7431,1.6683,1.615,7.0919,7.0709,6.9632,6.8345,6.7268,6.7059,6.6999,6.6969,6.6909,6.6191,6.4994,6.4306,6.3677,6.3196,6.3137,6.2361,6.1194,6.1104,6.0416,5.9219,5.9099,5.8331,5.7075,5.6736,5.4595,5.1218,5.0366,4.8919,4.6721,4.5943,4.5321,4.4895,4.5296,4.5573,4.5429,4.4279,4.3301,4.2508,4.0602,4.0032,4.0721,3.9311,3.7641,3.5987,3.5544,3.4443,3.2715,3.2038,3.1583,3.1168,3.0789,3.0769,3.1106,3.0809,3.0458,3.0364,3.0738,3.0878,3.0858,3.2235,3.3212,3.3332,3.4593,3.4891,3.3789,3.3522,3.3388,3.3134,3.1977,3.1883,3.2964,3.4292,3.5563,3.6649,3.8295,3.9542,3.9413,3.9645,3.9697,3.9697,4.0201,4.0073,3.8483,3.8519,3.8231,3.6669,3.6405,3.6001,3.4969,3.4434,3.3723,3.3032,3.2532,3.2334,3.198,3.2271,3.202,3.1735,3.241,3.2318,3.138,3.0214,2.9212,2.8275,2.6539,2.4946,2.388,2.2695,2.1316,1.9602,1.83,1.7369,1.6339,1.5913,1.5961,7.0919,7.0799,6.9931,6.8794,6.7597,6.7148,6.6999,6.6999,6.6999,6.6251,6.5024,6.4725,6.4036,6.3166,6.3137,6.257,6.1702,6.1313,6.0625,5.9558,5.8342,5.7328,5.6593,5.4713,5.2598,5.0326,4.9369,4.8004,4.6496,4.5748,4.5347,4.5146,4.5045,4.465,4.3977,4.3108,4.2013,4.0747,3.8719,3.7684,3.7648,3.7122,3.599,3.4509,3.4022,3.3414,3.2603,3.1894,3.1445,3.125,3.084,3.0703,3.0879,3.0703,3.0605,3.0625,3.0781,3.0898,3.0898,3.2264,3.3134,3.3134,3.362,3.3677,3.3134,3.2322,3.1825,3.1825,3.2035,3.2473,3.3247,3.5233,3.6865,3.7583,3.8792,3.9697,3.9697,3.9697,3.9697,3.9673,3.9321,3.8932,3.8136,3.7693,3.7249,3.6477,3.6358,3.581,3.4581,3.3723,3.2605,3.1447,3.0845,3.1208,3.1789,3.143,3.1645,3.235,3.2872,3.2612,3.1356,3.0214,2.8916,2.7429,2.5429,2.3824,2.2767,2.0955,1.9304,1.7983,1.7094,1.6386,1.5879,1.5832,1.5832,7.0919,7.0769,7.0021,6.9004,6.7926,6.7268,6.6999,6.6999,6.6999,6.6251,6.5084,6.5024,6.4306,6.3199,6.3137,6.272,6.2061,6.1403,6.0492,5.9333,5.7477,5.6251,5.5241,5.316,5.1198,4.9646,4.8502,4.7179,4.5974,4.5648,4.5069,4.4293,4.4002,4.326,4.1878,4.1126,4.0175,3.8839,3.6874,3.5541,3.5191,3.515,3.455,3.3524,3.3125,3.291,3.2773,3.2207,3.1816,3.1699,3.1289,3.1055,3.1055,3.0957,3.0898,3.0898,3.0898,3.0898,3.0898,3.1883,3.2473,3.2473,3.2473,3.2473,3.2322,3.1498,3.0957,3.1054,3.2587,3.3677,3.3957,3.5999,3.7583,3.8084,3.9154,3.9697,3.9697,3.9697,3.9697,3.9597,3.8844,3.7864,3.7513,3.6908,3.6358,3.5858,3.5763,3.5114,3.365,3.2331,3.1243,2.9881,2.9383,3.0119,3.1662,3.153,3.1454,3.2347,3.3068,3.2525,3.1131,2.9829,2.8096,2.6013,2.4193,2.2435,2.0968,1.9115,1.7918,1.7225,1.648,1.5879,1.5832,1.5832,1.5832,7.0919,7.0709,6.9572,6.8645,6.7926,6.7268,6.6999,6.6999,6.6937,6.619,6.4994,6.4785,6.4247,6.2905,6.2759,6.2662,6.2091,6.1291,5.99,5.806,5.6967,5.5066,5.2332,5.2024,5.0581,4.8393,4.8094,4.6817,4.4878,4.5187,4.386,4.1099,4.1911,4.1302,3.937,3.7972,3.6977,3.6666,3.481,3.3627,3.3607,3.3607,3.3544,3.3418,3.3398,3.3184,3.2871,3.2773,3.2539,3.2209,3.1719,3.1504,3.1465,3.1133,3.0957,3.0937,3.0918,3.0918,3.0918,3.1093,3.1132,3.1054,3.1034,3.0995,3.0976,3.082,3.0762,3.0879,3.3417,3.5013,3.5343,3.6757,3.819,3.9258,3.9594,3.9697,3.9697,3.9697,3.9697,3.9546,3.8693,3.7663,3.6707,3.6455,3.5715,3.4969,3.4532,3.3624,3.1542,3.0618,2.985,2.8859,2.8655,2.9338,3.0567,3.1135,3.1926,3.2766,3.2939,3.2283,3.0568,2.8764,2.6667,2.457,2.2821,2.0981,1.9162,1.7936,1.716,1.6574,1.6197,1.5832,1.5832,1.5832,1.5832,7.0649,7.0201,6.9363,6.8615,6.7926,6.7268,6.6999,6.6846,6.5764,6.4593,6.3356,6.2222,6.1007,5.9839,5.9839,6.0932,6.2428,6.0583,5.9103,5.7972,5.5158,5.3099,5.2051,5.0954,4.9659,4.8183,4.7908,4.6551,4.4245,4.3941,4.2685,4.0701,4.0197,3.9338,3.7879,3.6662,3.577,3.4986,3.3887,3.3418,3.3418,3.3418,3.3418,3.3418,3.3418,3.3359,3.3203,3.2949,3.2715,3.2578,3.2168,3.1934,3.1914,3.1797,3.1699,3.1699,3.1719,3.1582,3.1348,3.1289,3.1172,3.0859,2.9884,2.9313,2.9275,2.9335,2.967,3.0974,3.3543,3.5508,3.6757,3.8031,3.9077,3.9594,3.9697,3.9697,3.9697,3.9697,3.9697,3.9521,3.8718,3.7588,3.6493,3.5667,3.4969,3.4434,3.3601,3.2252,3.0876,3.0276,2.9798,2.926,2.9486,3.0308,3.1251,3.1363,3.1749,3.2624,3.2853,3.1689,3.0167,2.8091,2.6008,2.2939,2.1109,1.9334,1.7512,1.6871,1.6197,1.6197,1.5832,1.5832,1.5832,1.5832,1.5832,7.035,6.9842,6.9034,6.8405,6.7897,6.7268,6.6661,6.6044,6.4822,6.3335,6.1607,6.032,5.9137,5.8143,5.7977,5.9132,6.1082,5.8975,5.7633,5.6833,5.3578,5.1403,5.0219,4.9057,4.7675,4.6309,4.5872,4.4616,4.2857,4.2413,4.1263,3.9311,3.8766,3.7781,3.6449,3.5621,3.4808,3.4137,3.3652,3.3418,3.3418,3.3418,3.3418,3.3418,3.3418,3.3418,3.3418,3.3144,3.2988,3.2949,3.2598,3.2305,3.2187,3.2229,3.2229,3.2229,3.2229,3.1789,3.1016,3.0838,3.0464,2.9661,2.8642,2.7957,2.7939,2.8318,2.9227,3.0976,3.3487,3.589,3.7263,3.84,3.9129,3.9542,3.9697,3.9697,3.9697,3.9697,3.9496,3.9044,3.799,3.6924,3.5865,3.4556,3.3624,3.3155,3.218,3.1184,3.0016,2.965,2.9424,2.8993,2.9777,3.0418,3.1113,3.1305,3.1829,3.2723,3.2035,3.0953,2.8968,2.6964,2.44,2.1423,1.9177,1.7479,1.636,1.5724,1.5629,1.5676,1.5832,1.5832,1.5832,1.5832,1.5718,6.9991,6.9782,6.8588,6.8016,6.7867,6.7053,6.5919,6.463,6.4088,6.2247,5.9948,5.9539,5.8554,5.7852,5.7369,5.7815,5.7658,5.6486,5.5379,5.4143,5.2365,4.999,4.7305,4.6658,4.5216,4.3188,4.1868,4.1107,4.0513,4.0826,3.9796,3.7698,3.763,3.6814,3.4792,3.4575,3.4191,3.4004,3.3672,3.3457,3.3418,3.3418,3.3418,3.3418,3.3418,3.3418,3.3418,3.3398,3.3359,3.334,3.3008,3.2598,3.2344,3.2285,3.2226,3.2082,3.2105,3.1252,2.9741,2.9475,2.8772,2.7604,2.6978,2.6849,2.7223,2.8078,2.9391,3.1486,3.3742,3.5936,3.7203,3.766,3.819,3.9362,3.931,3.9154,3.931,3.9517,3.9194,3.8016,3.6793,3.5607,3.4447,3.3155,3.1977,3.1081,3.0463,2.9911,2.89,2.8654,2.8015,2.7953,2.919,3.0561,3.0928,3.1291,3.2084,3.2605,3.1236,2.985,2.6919,2.4551,2.1285,1.8305,1.6292,1.4652,1.4688,1.422,1.4841,1.5045,1.5343,1.5724,1.5818,1.5744,1.5444,6.9991,6.9812,6.8525,6.7986,6.7742,6.5966,6.4758,6.4024,6.1797,5.9657,5.8066,5.6804,5.5589,5.4707,5.4526,5.45,5.4422,5.336,5.3114,5.3019,5.015,4.7962,4.6684,4.5362,4.3961,4.2659,4.1651,4.0471,3.9325,3.9301,3.8298,3.6743,3.6276,3.5891,3.5223,3.4726,3.4375,3.4082,3.3945,3.373,3.3457,3.3418,3.3418,3.3418,3.3418,3.3418,3.3418,3.3418,3.3418,3.3355,3.3301,3.3164,3.3047,3.3027,3.2445,3.1399,3.1254,3.0284,2.8511,2.8077,2.7785,2.6838,2.5896,2.5945,2.6837,2.7495,2.9433,3.2631,3.4796,3.6337,3.755,3.7721,3.766,3.8113,3.7317,3.6834,3.6942,3.6834,3.6714,3.6504,3.5371,3.4159,3.305,3.1774,3.0773,3.0255,2.9565,2.8761,2.8441,2.8301,2.8403,2.842,2.9759,3.0611,3.0743,3.037,3.0299,2.9667,2.8337,2.6687,2.407,2.0717,1.7618,1.5415,1.3382,1.2689,1.2678,1.3199,1.3884,1.4615,1.5092,1.5425,1.571,1.551,1.5105,6.9482,6.903,6.736,6.6635,6.6353,6.4232,6.2859,6.2036,5.9678,5.7712,5.6219,5.4918,5.3783,5.3055,5.2861,5.2804,5.2553,5.1674,5.1362,5.1195,4.8533,4.6556,4.5432,4.2801,4.1225,4.0387,3.9619,3.875,3.7709,3.7575,3.7059,3.6093,3.5742,3.5625,3.5547,3.5,3.4551,3.4297,3.3984,3.3691,3.3476,3.3418,3.3418,3.3418,3.3418,3.3082,3.2556,3.2428,3.2765,3.3228,3.3418,3.3418,3.3355,3.281,3.1963,3.0964,3.0042,2.8898,2.7066,2.6771,2.6315,2.5524,2.5035,2.5232,2.6632,2.7627,3.087,3.3523,3.5277,3.6551,3.755,3.6587,3.5999,3.5868,3.5672,3.5288,3.5288,3.5288,3.5219,3.5021,3.3915,3.2743,3.162,3.0432,2.9618,2.9408,2.8847,2.8301,2.8301,2.8301,2.8465,2.8906,2.99,3.0359,3.0445,2.9693,2.8629,2.6739,2.4753,2.2545,2.0061,1.598,1.2425,1.1468,0.9764,1.0739,1.0916,1.2231,1.3102,1.3932,1.4746,1.536,1.5591,1.4897,1.4334,6.8492,6.7555,6.5362,6.4396,6.4045,6.2281,6.0729,5.9173,5.8219,5.6718,5.489,5.418,5.3507,5.2961,5.2861,5.2678,5.2076,5.1548,5.0122,4.8463,4.6816,4.5434,4.3068,3.9741,3.7958,3.7252,3.6621,3.6307,3.6287,3.6287,3.6016,3.6016,3.5918,3.5957,3.5723,3.5098,3.4648,3.4453,3.3867,3.3535,3.3437,3.3418,3.3228,3.3146,3.3019,3.2301,3.0918,3.066,3.1368,3.2765,3.2702,3.2575,3.2638,3.1497,3.0578,3.006,2.8821,2.7238,2.5838,2.5256,2.4733,2.3569,2.4689,2.5636,2.6366,2.9375,3.2238,3.3966,3.5179,3.6195,3.6438,3.5035,3.3586,3.3191,3.3901,3.457,3.5068,3.4958,3.435,3.3599,3.2512,3.1303,3.0266,2.9006,2.8422,2.8388,2.8228,2.796,2.8262,2.8304,2.8453,2.9081,2.9884,2.9657,2.9555,2.8305,2.6662,2.1893,1.9787,1.7365,1.5668,1.1958,0.9221,0.8156,0.8045,0.8825,0.9657,1.0925,1.2231,1.3199,1.4124,1.5128,1.5211,1.4604,1.3539,6.7386,6.5944,6.5189,6.3903,6.2242,6.0765,5.9694,5.8719,5.7338,5.5939,5.4758,5.4411,5.3808,5.298,5.2929,5.2628,5.2051,5.1431,4.9988,4.7675,4.5643,4.2769,4.005,3.8175,3.709,3.666,3.623,3.6035,3.6035,3.6035,3.6035,3.6016,3.5723,3.5586,3.5449,3.498,3.4551,3.4277,3.4062,3.3711,3.333,3.3292,3.2702,3.1561,3.1497,3.0578,2.9083,2.8886,2.9017,2.9492,2.954,2.9557,2.9752,2.9213,2.841,2.7288,2.6573,2.545,2.406,2.3665,2.3324,2.3119,2.4723,2.6054,2.7437,2.9742,3.231,3.4123,3.4976,3.4833,3.4745,3.3756,3.2664,3.171,3.2113,3.2644,3.3247,3.268,3.2087,3.212,3.097,2.9848,2.8677,2.7741,2.7149,2.778,2.7618,2.7276,2.7975,2.8094,2.8105,2.8832,2.9338,2.8895,2.8236,2.6962,2.3762,1.7663,1.4252,1.1438,1.0264,0.8697,0.7229,0.6414,0.7596,0.8528,0.8874,0.9657,1.0916,1.2474,1.3561,1.4551,1.4782,1.4406,1.2984,6.5265,6.4045,6.3464,6.2261,6.0696,5.9215,5.8295,5.759,5.6471,5.5541,5.4963,5.4637,5.4084,5.3281,5.303,5.2477,5.1682,5.0387,4.843,4.5896,4.29,4.0224,3.828,3.75,3.707,3.666,3.623,3.6055,3.6035,3.6035,3.6035,3.5937,3.5605,3.541,3.5371,3.4746,3.4336,3.4082,3.3906,3.3378,3.2384,3.2301,3.1368,3.006,2.967,2.8886,2.7304,2.6373,2.6573,2.7768,2.8229,2.8163,2.8098,2.7437,2.6573,2.5517,2.4858,2.3924,2.3188,2.2928,2.3256,2.4128,2.5651,2.7354,2.9292,3.1248,3.3655,3.4482,3.4442,3.4038,3.3503,3.2731,3.1845,3.117,3.0898,3.1286,3.215,3.1299,3.0425,2.9856,2.8983,2.7809,2.6682,2.6173,2.6554,2.7114,2.7457,2.7618,2.8101,2.7924,2.8081,2.8943,2.8634,2.7914,2.5976,2.4258,1.9701,1.3748,0.9527,0.6493,0.6167,0.569,0.5792,0.5711,0.7048,0.8088,0.8435,0.9072,1.0485,1.194,1.3006,1.3969,1.4402,1.3802,1.2338,6.2949,6.2123,6.1078,6.0138,5.9255,5.7709,5.6696,5.5876,5.5694,5.5346,5.4855,5.4645,5.416,5.3607,5.3055,5.2166,5.0747,4.901,4.6423,4.3562,4.0406,3.8053,3.7877,3.7344,3.6934,3.6543,3.6172,3.6055,3.6035,3.6035,3.5976,3.5801,3.5488,3.5273,3.498,3.4394,3.4043,3.3842,3.3187,3.2358,3.124,3.0707,2.967,2.8163,2.737,2.6706,2.5248,2.4196,2.4452,2.7437,2.7652,2.7304,2.7172,2.592,2.5315,2.4926,2.3856,2.3133,2.3256,2.3461,2.406,2.5651,2.7437,2.9017,3.0699,3.2719,3.4125,3.3994,3.3868,3.3298,3.2695,3.1672,3.117,3.0898,3.0898,3.0879,3.0742,3.0449,2.9431,2.7596,2.697,2.5828,2.4847,2.4765,2.57,2.6427,2.6698,2.6877,2.7443,2.7676,2.832,2.9385,2.8437,2.6851,2.4212,2.1377,1.546,0.9579,0.5545,0.2879,0.334,0.3341,0.4147,0.5002,0.6842,0.7839,0.8137,0.9072,1.0386,1.1648,1.2958,1.3978,1.4604,1.3077,1.1612,6.2415,6.0989,6.069,5.944,5.7687,5.7145,5.5757,5.3852,5.5286,5.4671,5.3571,5.4047,5.3964,5.3105,5.2673,5.1371,4.885,4.7916,4.6128,4.1799,3.9282,3.7806,3.7422,3.6992,3.6582,3.623,3.6094,3.6035,3.6035,3.5996,3.584,3.5527,3.5137,3.4687,3.4355,3.3817,3.3574,3.3281,3.2128,3.1111,3.0384,2.9279,2.79,2.6172,2.4926,2.406,2.3597,2.3133,2.3338,2.3856,2.4196,2.4452,2.4331,2.3924,2.3652,2.3597,2.3461,2.3529,2.4588,2.4993,2.5719,2.7503,2.9017,3.0384,3.0753,3.2325,3.3049,3.2713,3.2276,3.1976,3.1578,3.117,3.0957,3.0898,3.0859,3.0723,3.043,3.0197,2.9032,2.7397,2.6527,2.594,2.3944,2.287,2.3805,2.5371,2.5973,2.5955,2.6611,2.7357,2.8127,2.9101,2.7337,2.5392,2.2042,1.8391,1.2336,0.7809,0.4019,0.1959,0.2369,0.2803,0.4217,0.5591,0.6942,0.759,0.7988,0.9072,1.0386,1.1648,1.2828,1.3637,1.3814,1.231,1.0723,5.9928,5.9363,5.9363,5.7769,5.5508,5.5406,5.3912,5.188,5.2703,5.2965,5.2586,5.323,5.3286,5.2792,5.1659,4.979,4.7569,4.5462,4.3001,3.987,3.7992,3.7277,3.6992,3.6601,3.623,3.6035,3.6035,3.6035,3.6035,3.5996,3.5801,3.5391,3.4941,3.4531,3.3869,3.2912,3.2192,3.179,3.0448,2.9279,2.8213,2.7421,2.6121,2.4588,2.3393,2.2859,2.2928,2.2928,2.2859,2.2859,2.2859,2.2859,2.2859,2.2859,2.2859,2.2996,2.3788,2.4385,2.5383,2.6373,2.7503,2.9279,3.0319,3.1048,3.1518,3.2281,3.1754,3.1191,3.0969,3.1113,3.0918,3.0898,3.0898,3.084,3.0684,3.0391,2.9963,2.9297,2.8029,2.6092,2.4727,2.3432,2.2101,2.1487,2.2589,2.4488,2.5559,2.5684,2.6688,2.74,2.7533,2.759,2.5898,2.3489,1.9961,1.5415,0.9548,0.6305,0.424,0.3648,0.4177,0.4618,0.5181,0.6276,0.7235,0.769,0.8187,0.9312,1.0337,1.1483,1.2502,1.3263,1.3032,1.1486,0.9849,5.7273,5.7625,5.7225,5.553,5.3374,5.3086,5.1347,4.8927,4.9483,5.0605,5.1334,5.1561,5.1513,5.1652,4.9715,4.8118,4.5806,4.2583,3.9515,3.8161,3.7269,3.6836,3.6641,3.6328,3.6074,3.6035,3.6035,3.6035,3.6035,3.5976,3.5723,3.5293,3.4922,3.4134,3.3237,3.1912,3.0771,3.0254,2.8689,2.7304,2.6039,2.545,2.4317,2.3461,2.2996,2.2859,2.2859,2.2859,2.2859,2.2859,2.2859,2.2859,2.2859,2.2859,2.2859,2.2996,2.4385,2.5517,2.6373,2.7701,2.9344,3.1047,3.1148,3.1657,3.244,3.2241,3.145,3.0705,3.0462,3.0937,3.0898,3.0898,3.0898,3.082,3.0469,2.9906,2.9086,2.7881,2.6193,2.4771,2.3392,2.2002,2.1074,2.0486,2.1983,2.3422,2.4496,2.5625,2.6612,2.7012,2.6973,2.5748,2.3935,1.9628,1.586,1.3572,0.7537,0.5922,0.4293,0.4909,0.5658,0.6068,0.6387,0.6581,0.7285,0.7739,0.8329,0.9262,1.0271,1.1317,1.1939,1.2436,1.1773,1.0584,0.893,5.6821,5.6298,5.4228,5.3072,5.2336,5.0486,4.812,4.6278,4.7815,4.8787,4.8582,4.8254,4.8815,4.9015,4.7398,4.4984,4.2511,3.9768,3.8133,3.7363,3.6855,3.6621,3.6523,3.6211,3.6035,3.6035,3.5996,3.5957,3.5976,3.5996,3.5586,3.498,3.4746,3.3816,3.2023,3.0854,2.98,2.8492,2.6906,2.5651,2.5113,2.4196,2.3461,2.2859,2.2859,2.2859,2.2859,2.2859,2.2859,2.2859,2.2859,2.2859,2.2859,2.2859,2.2859,2.3256,2.452,2.592,2.7172,2.9213,3.1047,3.2416,3.2541,3.233,3.2536,3.2109,3.1421,3.1069,3.0701,3.082,3.0898,3.0898,3.0879,3.0781,3.0199,2.9336,2.7785,2.6119,2.4805,2.3698,2.2328,2.1088,2.0371,2.0127,2.1442,2.264,2.3616,2.5127,2.6602,2.6377,2.5802,2.4031,2.1795,1.6534,1.1307,0.9689,0.6709,0.6138,0.535,0.5836,0.6519,0.722,0.7553,0.7441,0.7484,0.7839,0.8528,0.9312,1.0064,1.1009,1.1342,1.1615,1.0837,0.9876,0.7603,5.516,5.4108,5.2593,5.0685,4.8613,4.7333,4.529,4.3351,4.453,4.5464,4.5739,4.5788,4.6239,4.6524,4.4897,4.233,3.978,3.8156,3.7187,3.6894,3.6562,3.6328,3.6348,3.6094,3.6055,3.5957,3.582,3.5703,3.5723,3.5937,3.541,3.4668,3.457,3.3375,3.1081,2.9865,2.8541,2.6839,2.5196,2.4196,2.4196,2.3188,2.2996,2.2928,2.2928,2.2859,2.2859,2.2859,2.2859,2.2859,2.2859,2.2859,2.2846,2.2846,2.2846,2.3174,2.4506,2.5771,2.7172,2.9065,3.102,3.1582,3.2291,3.2497,3.2207,3.1758,3.1426,3.1014,3.0092,3.002,3.0762,3.0879,3.0412,2.9562,2.9011,2.7895,2.6114,2.4203,2.3262,2.262,2.1274,2.0256,1.9866,2.0069,2.1,2.1917,2.2792,2.4351,2.6149,2.5547,2.4522,2.2232,1.98,1.5376,1.0599,0.8749,0.7281,0.6603,0.6336,0.6807,0.7106,0.7641,0.7852,0.7839,0.7988,0.7988,0.8718,0.9452,1.0061,1.0553,1.0913,1.1017,1.0284,0.901,0.6599,5.3008,5.1723,5.0584,4.8,4.4939,4.4238,4.2993,4.1287,4.1504,4.2544,4.3569,4.3389,4.3731,4.4011,4.2364,4.0004,3.7656,3.6934,3.6699,3.6484,3.623,3.6035,3.6035,3.6035,3.6016,3.5957,3.5625,3.541,3.5488,3.5703,3.5195,3.4452,3.4394,3.2927,3.0538,2.8477,2.6804,2.5128,2.3802,2.2928,2.2859,2.2928,2.3133,2.3393,2.3461,2.3665,2.4331,2.4285,2.3865,2.3649,2.335,2.3052,2.2808,2.2686,2.2686,2.2957,2.4458,2.5212,2.6249,2.8598,3.0429,3.0482,3.1737,3.1966,3.1758,3.1465,3.123,3.0723,3.002,2.9589,3.0684,3.0801,3.0103,2.9008,2.7911,2.653,2.4872,2.3244,2.1934,2.1045,1.9982,1.9577,1.9403,1.9428,2.0288,2.1122,2.1985,2.2666,2.4148,2.3892,2.2686,2.0374,1.7603,1.4051,1.0887,0.9392,0.831,0.7765,0.7491,0.7692,0.7775,0.7945,0.7939,0.7789,0.7988,0.8137,0.8867,0.9208,0.9308,0.9638,1.0371,0.9985,0.8543,0.7063,0.5057,5.0627,4.9369,4.6315,4.4442,4.3473,4.2229,4.1146,4.0271,4.0527,4.1269,4.2168,4.0693,4.0874,4.1173,3.9401,3.774,3.6942,3.6491,3.6219,3.6123,3.6074,3.6035,3.6035,3.6035,3.6035,3.5918,3.5566,3.543,3.5371,3.543,3.5062,3.4274,3.2935,3.1261,2.8993,2.7165,2.4993,2.3529,2.2996,2.2928,2.3065,2.3065,2.3856,2.4858,2.5315,2.5688,2.6628,2.644,2.5905,2.4657,2.4305,2.3534,2.2415,2.2084,2.2084,2.2681,2.3799,2.515,2.5434,2.7791,2.9565,2.9653,3.0884,3.1421,3.1366,3.0995,3.0761,3.0918,3.045,3.047,3.0626,3.0527,3.014,2.907,2.7598,2.6105,2.4324,2.1593,2.0357,2.0127,1.9287,1.9332,1.9319,1.9347,1.9484,2.0361,2.1117,2.1645,2.1794,2.1469,1.9882,1.7304,1.5728,1.2424,1.0724,0.9283,0.8535,0.8295,0.8059,0.7897,0.727,0.698,0.7484,0.7434,0.7534,0.7614,0.7921,0.814,0.8213,0.8745,0.9477,0.8132,0.6153,0.4692,0.3705,4.6156,4.5856,4.4132,4.2787,4.1701,4.0574,4.0019,3.9902,3.9805,4.0073,4.0011,3.8399,3.7241,3.6476,3.4595,3.4447,3.4841,3.4915,3.5299,3.5938,3.6035,3.6035,3.6035,3.6035,3.6035,3.5859,3.5391,3.498,3.5059,3.5043,3.466,3.2842,3.212,3.0357,2.7697,2.6139,2.4617,2.3461,2.2928,2.3393,2.4128,2.4452,2.5181,2.6906,2.6972,2.739,2.7654,2.7621,2.6534,2.5111,2.4446,2.3652,2.2438,2.1991,2.1991,2.2057,2.2566,2.3093,2.3665,2.6487,2.7775,2.8659,2.9902,3.1386,3.1014,3.0213,3.0079,3.084,2.9962,2.9962,3.0607,3.0469,2.9527,2.8464,2.6947,2.5145,2.314,2.0428,1.8655,1.868,1.868,1.8487,1.834,1.823,1.841,1.9358,1.951,1.9343,1.9165,1.8547,1.6426,1.359,1.237,1.0992,0.996,0.8825,0.7911,0.7539,0.6929,0.6578,0.577,0.5622,0.5817,0.5817,0.5468,0.5792,0.6596,0.7738,0.8497,0.859,0.8567,0.7156,0.5769,0.4376,0.3215,4.2533,4.2402,4.2175,4.1292,4.0156,3.959,3.9512,3.9648,3.9375,3.886,3.7722,3.5976,3.3742,3.2157,3.1733,3.2362,3.3637,3.3296,3.4402,3.5451,3.6035,3.6035,3.6035,3.6035,3.6035,3.5996,3.5156,3.4805,3.4654,3.4211,3.3057,3.1223,3.0371,2.8923,2.6731,2.5101,2.3924,2.3133,2.3461,2.4249,2.5181,2.5905,2.7108,2.8114,2.8717,2.8711,2.8644,2.8056,2.6949,2.5467,2.3735,2.2521,2.1137,2.0733,2.0811,2.0915,2.1343,2.1808,2.2871,2.4822,2.6395,2.7791,2.9161,3.1191,3.082,2.9471,2.9098,3.0762,2.9471,2.9533,3.0161,3.0273,2.9505,2.7864,2.5909,2.4022,2.1987,1.9408,1.7723,1.7677,1.7441,1.6796,1.6702,1.6801,1.7322,1.836,1.8156,1.7185,1.609,1.5006,1.326,1.0514,0.9263,0.8824,0.9131,0.8304,0.747,0.6343,0.5756,0.4959,0.3927,0.3354,0.3249,0.3202,0.3257,0.4278,0.5223,0.7099,0.8729,0.8219,0.7685,0.702,0.5858,0.4243,0.2635,4.1109,3.9539,3.9932,3.9778,3.9355,3.9707,3.959,3.8999,3.9051,3.7497,3.5044,3.3042,3.1619,3.0802,3.0526,3.1229,3.3015,3.3188,3.402,3.5158,3.6035,3.5879,3.5928,3.5996,3.5957,3.582,3.5039,3.4648,3.4093,3.2411,3.184,3.1139,2.8774,2.7118,2.5579,2.4229,2.3475,2.3256,2.4114,2.5181,2.6105,2.7124,2.87,2.9683,3.0167,3.0571,3.1577,2.9444,2.7266,2.5407,2.2792,2.0604,1.9269,1.9205,1.9346,1.9515,2.0618,2.1256,2.2349,2.4393,2.6587,2.8241,2.9468,3.0252,2.9922,2.9098,2.9275,3.0216,2.9098,2.9149,2.9719,2.9863,2.9308,2.8051,2.6069,2.3947,2.1628,1.8584,1.7079,1.6844,1.6166,1.5194,1.4327,1.4204,1.4607,1.553,1.3986,1.2955,1.1413,1.0279,0.965,0.7932,0.6402,0.6368,0.7967,0.7166,0.536,0.4119,0.3375,0.2631,0.1803,0.1349,0.0549,0.095,0.1149,0.2474,0.3525,0.4279,0.5195,0.6575,0.6692,0.5752,0.4425,0.2638,0.1343,3.8823,3.698,3.7147,3.795,3.916,3.8828,3.8204,3.7315,3.6738,3.456,3.1371,2.9965,2.8679,2.7733,2.7232,2.8046,2.9488,2.9702,3.1685,3.3448,3.4314,3.4952,3.5393,3.5714,3.5605,3.5449,3.4785,3.4316,3.3979,3.1389,2.9817,2.861,2.7097,2.5668,2.4357,2.3557,2.3092,2.3393,2.4655,2.5905,2.7389,2.8632,3.0165,3.159,3.0218,3.0025,2.9782,2.7333,2.5264,2.3087,2.0674,1.8709,1.7387,1.7784,1.818,1.85,2.0005,2.1285,2.2577,2.464,2.6651,2.7811,2.8188,2.8009,2.8247,2.7314,2.7871,2.8486,2.8883,2.8898,2.9872,2.9824,2.9247,2.8176,2.6352,2.4022,2.1213,1.8023,1.595,1.5429,1.4331,1.3162,1.2235,1.1388,1.1966,1.2338,1.0491,0.8736,0.748,0.6488,0.6111,0.5881,0.4561,0.4361,0.5863,0.4645,0.294,0.1853,0.0858,-0.0401,-0.1446,-0.175,-0.2302,-0.1752,-0.1344,-0.0687,-0.0097,0.0524,0.1914,0.4032,0.4525,0.4028,0.2549,0.0851,-0.0045,3.6624,3.5353,3.4773,3.5602,3.6998,3.6551,3.5815,3.4932,3.4285,3.2093,2.8717,2.7584,2.6316,2.5175,2.4905,2.5873,2.7433,2.8068,2.9774,3.1544,3.3101,3.3877,3.4705,3.521,3.5351,3.5059,3.4531,3.4082,3.3953,3.0597,2.9216,2.8064,2.6169,2.4382,2.3653,2.2993,2.2859,2.3324,2.5078,2.6499,2.808,2.9867,3.0424,3.1423,3.0039,2.8448,2.7074,2.4642,2.2495,2.0371,1.8215,1.6454,1.5958,1.6172,1.7152,1.8116,1.9407,2.1145,2.2827,2.4901,2.6409,2.7194,2.6832,2.6349,2.5984,2.6045,2.7013,2.8289,2.8437,2.8747,2.9831,2.957,2.8661,2.7489,2.5564,2.3287,2.0345,1.737,1.5397,1.3944,1.2362,1.0435,0.9278,0.8298,0.7927,0.814,0.6951,0.5609,0.4782,0.3956,0.357,0.3395,0.311,0.3291,0.3676,0.1853,0.0156,-0.1269,-0.245,-0.4242,-0.5232,-0.5499,-0.535,-0.4939,-0.4548,-0.4148,-0.3167,-0.1883,0.0,0.2002,0.1844,0.1334,0.0178,-0.1385,-0.1564,3.4864,3.468,3.317,3.2565,3.2733,3.2733,3.2458,3.19,3.1495,3.0064,2.7495,2.5746,2.4972,2.4676,2.4649,2.5506,2.6648,2.7215,2.8413,3.0184,3.1861,3.2623,3.3539,3.4231,3.498,3.4668,3.4219,3.3945,3.4004,3.1488,2.9752,2.7405,2.4911,2.2777,2.2817,2.2859,2.2846,2.3284,2.5769,2.6824,2.7682,2.9708,3.0064,2.9054,2.8123,2.6343,2.3822,2.1379,1.9333,1.7844,1.5226,1.3766,1.3578,1.4101,1.507,1.6312,1.7988,1.9674,2.1222,2.4209,2.5497,2.5802,2.5314,2.513,2.5619,2.6045,2.6359,2.7568,2.8161,2.8609,2.9048,2.9163,2.8079,2.6646,2.4816,2.2358,1.9415,1.6786,1.4816,1.2055,0.9493,0.7331,0.6165,0.5036,0.423,0.3687,0.3017,0.2459,0.2124,0.1565,0.1174,0.089,0.083,0.0271,0.0053,-0.1152,-0.2617,-0.4071,-0.5669,-0.7359,-0.8652,-0.9158,-0.8807,-0.816,-0.757,-0.7062,-0.5511,-0.3871,-0.3009,-0.2455,-0.1473,-0.1775,-0.2806,-0.352,-0.3827,3.2026,3.091,3.0432,2.9426,2.8674,3.101,3.0631,2.8077,2.6383,2.5027,2.4383,2.4136,2.4636,2.4636,2.4636,2.4991,2.5492,2.5639,2.6561,2.8454,3.0236,3.1548,3.2553,3.3643,3.4492,3.4219,3.3887,3.3672,3.3613,3.1873,3.0012,2.7603,2.3147,2.1283,2.0902,2.0965,2.1114,2.2633,2.4444,2.5587,2.5798,2.7349,2.7665,2.5808,2.458,2.2721,2.0205,1.7832,1.6185,1.5226,1.2668,1.1886,1.2274,1.298,1.505,1.6485,1.8233,2.0399,2.1109,2.2452,2.3248,2.3668,2.3606,2.3109,2.2812,2.5008,2.5869,2.6925,2.8257,2.8842,2.9147,2.9008,2.8077,2.6409,2.4344,2.1466,1.8654,1.62,1.3756,1.0395,0.7493,0.5669,0.418,0.3079,0.2135,0.1509,0.1006,0.0895,0.0671,-0.0391,-0.1117,-0.15,-0.1873,-0.2806,-0.3651,-0.4505,-0.6088,-0.7858,-0.9014,-1.0236,-1.1395,-1.2308,-1.1764,-1.0852,-1.0398,-0.9897,-0.8652,-0.775,-0.7849,-0.7381,-0.6293,-0.5156,-0.544,-0.6011,-0.6311,2.9684,2.8626,2.8002,2.7066,2.6185,2.7965,2.7136,2.4636,2.2887,2.2317,2.3129,2.4171,2.4636,2.4636,2.4636,2.4636,2.4623,2.4516,2.4696,2.6648,2.8646,2.9931,3.129,3.303,3.3889,3.3828,3.3613,3.3437,3.3457,3.2301,2.9038,2.4635,2.06,1.7792,1.7368,1.7707,1.956,2.1124,2.2645,2.3472,2.3883,2.4434,2.4362,2.2432,2.0777,1.9106,1.6754,1.4716,1.2997,1.2281,1.149,1.0683,1.1571,1.2963,1.5055,1.636,1.862,2.0516,2.0971,2.0998,2.1832,2.2391,2.1456,2.1105,2.154,2.4009,2.5016,2.6243,2.8194,2.8858,2.8914,2.8723,2.7086,2.5371,2.2959,2.0045,1.7159,1.4638,1.2311,0.8859,0.621,0.4359,0.0,0.1364,0.0336,-0.0224,-0.0728,-0.084,-0.1007,-0.2176,-0.3337,-0.3813,-0.4473,-0.5386,-0.6474,-0.7579,-0.9294,-1.1521,-1.2314,-1.2802,-1.4184,-1.5076,-1.4267,-1.3528,-1.2983,-1.2495,-1.2171,-1.1761,-1.137,-1.1198,-1.0804,-0.9686,-0.8568,-0.849,-0.8828,2.7674,2.7437,2.5965,2.5185,2.4995,2.3708,2.2633,2.2077,2.1754,2.2632,2.4341,2.4267,2.4636,2.4636,2.4623,2.4583,2.4516,2.4302,2.4354,2.5226,2.7393,2.8422,3.0017,3.204,3.3129,3.3428,3.3359,3.3262,3.3296,3.1283,2.6987,2.0999,1.6654,1.395,1.3308,1.4199,1.6797,1.8928,2.016,2.0722,2.1016,2.188,2.075,1.9066,1.778,1.6175,1.4382,1.2898,1.2053,1.1402,1.0677,1.0602,1.1055,1.2089,1.3617,1.5836,1.8668,1.9963,2.0615,2.0655,2.0717,2.1177,2.1043,2.0855,2.1602,2.3399,2.4752,2.5659,2.7151,2.8032,2.8575,2.6958,2.5331,2.3271,2.1156,1.8217,1.5209,1.2746,1.0517,0.7888,0.5383,0.0,0.0,0.0,0.0,-0.1399,-0.2012,-0.3124,-0.3453,-0.4264,-0.5296,-0.6082,-0.6904,-0.7949,-0.9086,-1.0245,-1.1932,-1.3981,-1.4338,-1.4912,-1.6378,-1.7331,-1.6607,-1.5869,-1.5427,-1.4943,-1.4408,-1.4306,-1.4324,-1.4172,-1.3868,-1.3381,-1.2024,-1.1262,-1.1284,2.268,2.1551,2.1043,2.0846,2.0758,2.0124,2.0626,2.1878,2.1819,2.2178,2.2509,2.4031,2.4522,2.4623,2.4422,2.4342,2.4222,2.4075,2.3941,2.4876,2.6171,2.7416,2.8977,3.0752,3.2158,3.2961,3.3101,3.2844,3.1753,2.9879,2.4337,1.7829,1.3654,1.0545,0.9217,0.9627,1.3124,1.5956,1.7141,1.7596,1.7551,1.8006,1.6551,1.5206,1.4697,1.3291,1.2045,1.1512,1.0967,1.075,1.046,1.0371,1.0486,1.2044,1.3922,1.696,1.8998,2.0233,2.0347,2.0361,2.0361,2.0361,2.0468,2.0441,2.1199,2.2722,2.4512,2.5114,2.5891,2.681,2.6536,2.5145,2.3389,2.1308,1.9118,1.6495,1.3641,1.1236,0.8978,0.6241,0.3782,0.0,0.0,0.0,0.0,0.0,-0.3235,-0.4564,-0.5817,-0.6608,-0.7714,-0.8588,-0.9407,-1.0476,-1.1663,-1.2839,-1.4556,-1.6129,-1.6203,-1.6659,-1.8041,-1.8684,-1.8559,-1.8076,-1.7339,-1.6873,-1.6464,-1.6456,-1.6571,-1.6497,-1.6236,-1.6006,-1.5554,-1.4476,-1.3778,1.8042,1.6451,1.6383,1.673,1.7578,1.818,1.9308,2.0508,2.1366,2.1995,2.2744,2.3922,2.4396,2.4249,2.4102,2.4022,2.3995,2.3741,2.3594,2.3923,2.4813,2.6186,2.768,2.9375,3.0975,3.1923,3.2296,3.2088,3.0047,2.5293,1.9703,1.4364,1.0853,0.7636,0.5779,0.5968,0.8045,1.1217,1.3416,1.4083,1.4065,1.3731,1.2366,1.0993,1.0868,1.0524,0.9958,0.9928,1.0402,1.0419,1.0304,1.0249,1.0692,1.2296,1.4443,1.7276,1.8873,1.9741,2.0027,2.0067,2.0067,2.0067,2.0054,1.9987,2.0676,2.195,2.2806,2.3479,2.4603,2.5318,2.4368,2.3271,2.1335,1.938,1.7095,1.4755,1.2273,0.9856,0.7141,0.434,0.0,0.0,0.0,0.0,0.0,0.0,-0.4398,-0.5923,-0.7422,-0.8784,-1.0251,-1.1601,-1.2238,-1.3032,-1.4056,-1.4727,-1.5811,-1.6767,-1.7109,-1.784,-1.9434,-1.958,-1.9018,-1.9013,-1.9148,-1.8737,-1.8336,-1.8541,-1.8643,-1.8541,-1.8443,-1.8386,-1.7768,-1.6732,-1.6201,1.2809,1.0714,1.1118,1.2114,1.4596,1.6109,1.7099,1.7872,1.9499,2.176,2.3066,2.3562,2.3156,2.2582,2.2527,2.2561,2.2329,2.2057,2.1778,2.2688,2.3036,2.4096,2.5804,2.7881,2.8725,2.9951,3.0296,2.9516,2.6839,2.1929,1.5904,1.0677,0.7416,0.46,0.3032,0.3299,0.497,0.6702,0.9678,1.1315,1.0511,0.978,0.8795,0.6685,0.7071,0.7908,0.8356,0.9145,1.0263,1.024,1.0215,1.0148,1.0954,1.2422,1.474,1.6501,1.8059,1.9161,1.9588,1.976,1.9773,1.9773,1.976,1.9666,2.0272,2.138,2.2184,2.215,2.311,2.3006,2.222,2.0273,1.8199,1.6691,1.4808,1.2521,1.0142,0.7677,0.5111,0.2538,0.0,0.0,0.0,0.0,0.0,0.0,-0.5159,-0.6772,-0.8997,-1.0693,-1.2068,-1.3868,-1.4622,-1.4923,-1.4996,-1.5665,-1.6461,-1.7217,-1.7731,-1.9177,-2.0899,-2.0404,-1.9307,-1.9691,-2.0201,-2.036,-2.0253,-2.0274,-2.0236,-2.0314,-2.0353,-2.0624,-2.006,-1.9022,-1.8123,0.2007,-0.0812,0.0519,0.3864,0.8262,0.9012,1.0927,1.3594,1.4179,1.6141,1.9071,1.9435,1.9475,1.9365,1.92,1.9146,1.9091,1.8823,1.8687,1.8578,1.9187,2.0749,2.2459,2.3622,2.5399,2.7264,2.7452,2.5357,2.1398,1.669,1.2057,0.7119,0.4297,0.2556,0.1143,0.1747,0.2954,0.3622,0.5556,0.7341,0.6801,0.6614,0.596,0.5408,0.5981,0.6587,0.7163,0.789,0.904,0.9718,0.9916,0.9917,0.9992,1.1812,1.3467,1.5074,1.668,1.7926,1.868,1.8979,1.892,1.92,1.9245,1.9381,1.9935,2.1018,2.1432,2.1187,2.0972,2.0616,1.9644,1.7368,1.5269,1.3908,1.2512,1.0229,0.7823,0.5311,0.286,0.1077,-0.0674,-0.14,-0.179,-0.2728,-0.4212,-0.5127,-0.5759,-0.7373,-1.0429,-1.2485,-1.3153,-1.4749,-1.6249,-1.6625,-1.6449,-1.6082,-1.6555,-1.7669,-1.8442,-2.0223,-2.2145,-2.1429,-2.0473,-2.0818,-2.1214,-2.1308,-2.1341,-2.1395,-2.1431,-2.1642,-2.1735,-2.1794,-2.2226,-2.1597,-2.0333,-0.7075,-0.8702,-0.6176,-0.3229,-0.0365,0.0729,0.2468,0.4261,0.5213,0.6741,0.9663,1.2967,1.5235,1.5093,1.4962,1.4768,1.4733,1.4719,1.464,1.4571,1.4733,1.6274,1.7749,1.9196,2.102,2.278,2.1837,1.9385,1.5681,1.156,0.7356,0.427,0.2414,0.0,0.0,0.0,0.0,0.1545,0.0,0.0,0.0,0.3673,0.3537,0.3455,0.3892,0.4701,0.5269,0.5942,0.6902,0.7846,0.8144,0.861,0.9207,1.1012,1.2449,1.3646,1.4955,1.6326,1.7032,1.7384,1.743,1.7489,1.7325,1.6973,1.6868,1.7793,1.8493,1.8326,1.8745,1.85,1.6912,1.4786,1.298,1.1503,0.9817,0.7795,0.4979,0.2153,0.0508,-0.0619,-0.2069,-0.3075,-0.3344,-0.3311,-0.4669,-0.5737,-0.6408,-0.7986,-1.1072,-1.3926,-1.4704,-1.5896,-1.7495,-1.7746,-1.7135,-1.6522,-1.6211,-1.7483,-1.8856,-2.0323,-2.159,-2.1828,-2.1779,-2.1709,-2.1734,-2.2012,-2.2075,-2.243,-2.2542,-2.2675,-2.275,-2.2802,-2.3356,-2.394,-2.2774,-1.5132,-1.4656,-1.1339,-0.9474,-0.895,-0.7254,-0.6204,-0.5729,-0.4461,-0.3477,-0.1775,0.5655,0.8958,1.0013,0.9983,0.9971,0.9783,0.9126,0.9509,1.0115,1.0079,1.1675,1.3151,1.4554,1.612,1.6494,1.5812,1.4125,1.169,0.7741,0.4666,0.2415,0.0,0.0,0.0,0.0,0.0,0.0,0.0,0.0,0.0,0.1396,0.1259,0.1252,0.1373,0.2259,0.2981,0.3696,0.4602,0.5502,0.6451,0.6813,0.7479,0.8994,1.0258,1.1395,1.2166,1.3361,1.4262,1.4577,1.4695,1.4716,1.4479,1.44,1.4439,1.4595,1.5301,1.5221,1.5631,1.5365,1.3761,1.2235,1.0478,0.8597,0.6853,0.5055,0.2082,-0.0671,-0.1621,-0.2571,-0.3572,-0.4634,-0.4757,-0.4658,-0.5431,-0.6378,-0.751,-0.9286,-1.1353,-1.4023,-1.5824,-1.7419,-1.9206,-1.8961,-1.7902,-1.7358,-1.6749,-1.703,-1.8395,-1.9876,-2.1094,-2.1514,-2.1827,-2.1989,-2.2113,-2.2691,-2.3334,-2.3786,-2.3845,-2.4062,-2.4424,-2.4826,-2.5296,-2.561,-2.5039,-2.2435,-2.0914,-1.8718,-1.6075,-1.3405,-1.2738,-1.1783,-1.0389,-0.973,-0.8728,-0.7104,-0.566,-0.2232,0.2328,0.2328,0.2602,0.3349,0.3117,0.3746,0.4436,0.4581,0.6601,0.8386,0.9154,1.0557,1.0647,1.0032,0.8475,0.6666,0.4193,0.228,0.0538,0.0403,0.0,0.0,0.0,0.0,0.0,0.0,0.0,0.0,0.0261,0.0262,0.026,0.032,0.1333,0.2201,0.2736,0.3769,0.4616,0.51,0.5345,0.5827,0.649,0.7559,0.8497,0.9273,1.0271,1.1082,1.161,1.1888,1.2944,1.2839,1.2846,1.2587,1.1917,1.1851,1.0686,1.0925,1.1313,1.0149,0.8904,0.7248,0.5131,0.3223,0.1348,-0.1115,-0.2678,-0.3854,-0.4682,-0.5511,-0.6198,-0.6458,-0.6813,-0.7581,-0.821,-0.8157,-0.9886,-1.1845,-1.4316,-1.6933,-1.8865,-2.0793,-1.9629,-1.8395,-1.8211,-1.784,-1.7716,-1.798,-1.9621,-2.0839,-2.1393,-2.1769,-2.2492,-2.315,-2.375,-2.4363,-2.5505,-2.5896,-2.6248,-2.6637,-2.7004,-2.7347,-2.7413,-2.6963]},{"header":{"parameterUnit":"m.s-1","parameterCategory":1,"la1":31.0,"la2":29.5877,"lo1":-88.7671,"lo2":-86.6584,"dy":0.0162,"dx":0.0185,"nx":115,"ny":88,"refTime":"2026-05-01T12:00:00:Z","depth":0,"parameterNumber":3,"parameterNumberName":"V-component_of_WINDS"},"data":[0.0,0.0,0.0,0.0,0.0,0.0,0.0,0.0,0.0,0.0,0.0,0.0,0.0,0.0,0.0,0.0,0.0,0.0,0.0,0.0,0.0,0.0,0.0,0.0,0.0,0.0,0.0,0.0,0.0,0.0,0.0,0.0,0.0,0.0,0.0,0.0,0.0,0.0,0.0,0.0,0.0,0.0,0.0,0.0,0.0,0.0,0.0,0.0,0.0,0.0,0.0,0.0,0.0,0.0,0.0,0.0,0.0,0.0,0.0,0.0,0.0,0.0,0.0,0.0,0.0,0.0,0.0,0.0,0.0,0.0,0.0,0.0,0.0,0.0,0.0,0.0,0.0,0.0,0.0,0.0,0.0,0.0,0.0,0.0,0.0,0.0,0.0,0.0,0.0,0.0,0.0,0.0,0.0,0.0,0.0,0.0,0.0,0.0,0.0,0.0,0.0,0.0,0.0,0.0,0.0,0.0,0.0,0.0,0.0,0.0,0.0,0.0,0.0,0.0,0.0,0.0,0.0,0.0,0.0,0.0,0.0,0.0,0.0,0.0,0.0,0.0,0.0,0.0,0.0,0.0,0.0,0.0,0.0,0.0,0.0,0.0,0.0,0.0,0.0,0.0,0.0,0.0,0.0,0.0,0.0,0.0,0.0,0.0,0.0,0.0,0.0,0.0,0.0,0.0,0.0,0.0,0.0,0.0,0.0,0.0,0.0,0.0,0.0,0.0,0.0,0.0,0.0,0.0,0.0,0.0,0.0,0.0,0.0,0.0,0.0,0.0,0.0,0.0,0.0,0.0,0.0,0.0,0.0,0.0,0.0,0.0,0.0,0.0,0.0,0.0,0.0,0.0,0.0,0.0,0.0,0.0,0.0,0.0,0.0,0.0,0.0,0.0,0.0,0.0,0.0,0.0,0.0,0.0,0.0,0.0,0.0,0.0,0.0,0.0,0.0,0.0,0.0,0.0,0.0,0.0,0.0,0.0,0.0,0.0,0.0,0.0,0.0,0.0,0.0,0.0,0.0,0.0,0.0,0.0,0.0,0.0,0.0,0.0,0.0,0.0,0.0,0.0,0.0,0.0,0.0,0.0,0.0,0.0,0.0,0.0,0.0,0.0,0.0,0.0,0.0,0.0,0.0,0.0,0.0,0.0,0.0,0.0,0.0,0.0,0.0,0.0,0.0,0.0,0.0,0.0,0.0,0.0,0.0,0.0,0.0,0.0,0.0,0.0,0.0,0.0,0.0,0.0,0.0,0.0,0.0,0.0,0.0,0.0,0.0,0.0,0.0,0.0,0.0,0.0,0.0,0.0,0.0,0.0,0.0,0.0,0.0,0.0,0.0,0.0,0.0,0.0,0.0,0.0,0.0,0.0,0.0,0.0,0.0,0.0,0.0,0.0,0.0,0.0,0.0,0.0,0.0,0.0,0.0,0.0,0.0,0.0,0.0,0.0,0.0,0.0,0.0,0.0,0.0,0.0,0.0,0.0,0.0,0.0,0.0,0.0,0.0,0.0,0.0,0.0,0.0,0.0,0.0,0.0,0.0,0.0,0.0,0.0,0.0,0.0,0.0,0.0,0.0,0.0,0.0,0.0,0.0,0.0,0.0,0.0,0.0,0.0,0.0,0.0,0.0,0.0,0.0,0.0,0.0,0.0,0.0,0.0,0.0,0.0,0.0,0.0,0.0,0.0,0.0,0.0,0.0,0.0,0.0,0.0,0.0,0.0,0.0,0.0,0.0,0.0,0.0,0.0,0.0,0.0,0.0,0.0,0.0,0.0,0.0,0.0,0.0,0.0,0.0,0.0,0.0,0.0,0.0,0.0,0.0,0.0,0.0,0.0,0.0,0.0,0.0,0.0,0.0,0.0,0.0,0.0,0.0,0.0,0.0,0.0,0.0,0.0,0.0,0.0,0.0,0.0,0.0,0.0,0.0,0.0,0.0,0.0,0.0,0.0,0.0,0.0,0.0,0.0,0.0,0.0,0.0,0.0,0.0,0.0,0.0,0.0,0.0,0.0,0.0,0.0,0.0,0.0,0.0,0.0,0.0,0.0,0.0,0.0,0.0,0.0,0.0,0.0,0.0,0.0,0.0,0.0,0.0,0.0,0.0,0.0,0.0,0.0,0.0,0.0,0.0,0.0,0.0,0.0,0.0,0.0,0.0,0.0,0.0,0.0,0.0,0.0,0.0,0.0,0.0,0.0,0.0,0.0,0.0,0.0,0.0,0.0,0.0,0.0,0.0,0.0,0.0,0.0,0.0,0.0,0.0,0.0,0.0,0.0,0.0,0.0,0.0,0.0,0.0,0.0,0.0,0.0,0.0,0.0,0.0,0.0,0.0,0.0,0.0,0.0,0.0,0.0,0.0,0.0,0.0,0.0,0.0,0.0,0.0,0.0,0.0,0.0,0.0,0.0,0.0,0.0,0.0,0.0,0.0,0.0,0.0,0.0,0.0,0.0,0.0,0.0,0.0,0.0,0.0,0.0,0.0,0.0,0.0,0.0,0.0,0.0,0.0,0.0,0.0,0.0,0.0,0.0,0.0,0.0,0.0,0.0,0.0,0.0,0.0,0.0,0.0,0.0,0.0,0.0,0.0,0.0,0.0,0.0,0.0,0.0,0.0,0.0,0.0,0.0,0.0,0.0,0.0,0.0,0.0,0.0,0.0,0.0,0.0,0.0,0.0,0.0,0.0,0.0,0.0,0.0,0.0,0.0,0.0,0.0,0.0,0.0,0.0,0.0,0.0,0.0,0.0,0.0,0.0,0.0,0.0,0.0,0.0,0.0,0.0,0.0,0.0,0.0,0.0,0.0,0.0,0.0,0.0,0.0,0.0,0.0,0.0,0.0,0.0,0.0,0.0,0.0,0.0,0.0,0.0,0.0,0.0,0.0,0.0,0.0,0.0,0.0,0.0,0.0,0.0,0.0,0.0,0.0,0.0,0.0,0.0,0.0,0.0,0.0,0.0,0.0,0.0,0.0,0.0,0.0,0.0,0.0,0.0,0.0,0.0,0.0,0.0,0.0,0.0,0.0,0.0,0.0,0.0,0.0,0.0,0.0,0.0,0.0,0.0,0.0,0.0,0.0,0.0,0.0,0.0,0.0,0.0,0.0,0.0,0.0,0.0,0.0,0.0,0.0,0.0,0.0,0.0,0.0,0.0,0.0,0.0,0.0,0.0,0.0,0.0,0.0,0.0,0.0,0.0,0.0,0.0,0.0,0.0,0.0,0.0,0.0,0.0,0.0,0.0,0.0,0.0,0.0,0.0,0.0,0.0,0.0,0.0,0.0,0.0,0.0,0.0,0.0,0.0,0.0,0.0,0.0,0.0,0.0,0.0,0.0,0.0,0.0,0.0,0.0,0.0,0.0,0.0,0.0,0.0,0.0,0.0,0.0,0.0,0.0,0.0,0.0,0.0,0.0,0.0,0.0,0.0,0.0,0.0,0.0,0.0,0.0,0.0,0.0,0.0,0.0,0.0,0.0,0.0,0.0,0.0,0.0,0.0,0.0,0.0,0.0,0.0,0.0,0.0,0.0,0.0,0.0,0.0,0.0,0.0,0.0,0.0,0.0,0.0,0.0,0.0,0.0,0.0,0.0,0.0,0.0,0.0,0.0,0.0,0.0,0.0,0.0,0.0,0.0,0.0,0.0,0.0,0.0,0.0,0.0,0.0,0.0,0.0,0.0,0.0,0.0,0.0,0.0,0.0,0.0,0.0,0.0,0.0,0.0,0.0,0.0,0.0,0.0,0.0,0.0,0.0,0.0,0.0,0.0,0.0,0.0,0.0,0.0,0.0,0.0,0.0,0.0,0.0,0.0,0.0,0.0,0.0,0.0,0.0,0.0,0.0,0.0,0.0,0.0,0.0,0.0,0.0,0.0,0.0,0.0,0.0,0.0,0.0,0.0,0.0,0.0,0.0,0.0,0.0,0.0,0.0,0.0,0.0,0.0,0.0,0.0,0.0,0.0,0.0,0.0,0.0,0.0,0.0,0.0,0.0,0.0,0.0,0.0,0.0,0.0,0.0,0.0,0.0,0.0,0.0,0.0,0.0,0.0,0.0,0.0,0.0,0.0,0.0,0.0,0.0,0.0,0.0,0.0,0.0,0.0,0.0,0.0,0.0,0.0,0.0,0.0,0.0,0.0,0.0,0.0,0.0,0.0,0.0,0.0,0.0,0.0,0.0,0.0,0.0,0.0,0.0,0.0,0.0,0.0,0.0,0.0,0.0,0.0,0.0,0.0,0.0,0.0,0.0,0.0,0.0,0.0,1.6273,0.0,0.0,0.0,0.0,0.0,0.0,0.0,0.0,0.0,0.0,0.0,0.0,0.0,0.0,0.0,0.0,0.0,0.0,0.0,0.0,0.0,0.0,0.0,0.0,0.0,0.0,0.0,0.0,0.0,0.0,0.0,0.0,0.0,0.0,0.0,0.0,0.0,0.0,0.0,0.0,0.0,0.0,0.0,0.0,0.0,0.0,0.0,0.0,0.0,0.0,0.0,0.0,0.0,0.0,0.0,0.0,0.0,0.0,0.0,0.0,0.0,0.0,0.0,0.0,0.0,0.0,0.0,0.0,0.0,0.0,0.0,0.0,0.0,0.0,0.0,0.0,0.0,0.0,0.0,0.0,0.0,0.0,0.0,0.0,0.0,0.0,0.0,0.0,0.0,0.0,0.0,0.0,0.0,0.0,0.0,0.0,0.0,0.0,0.0,0.0,0.0,0.0,0.0,0.0,0.0,0.0,0.0,0.0,0.0,0.0,1.7839,1.742,1.6941,1.6647,1.65,0.0,0.0,0.0,0.0,0.0,0.0,0.0,0.0,0.0,0.0,0.0,0.0,0.0,0.0,0.0,0.0,0.0,0.0,0.0,0.0,0.0,0.0,0.0,0.0,0.0,0.0,0.0,0.0,0.0,0.0,0.0,0.0,0.0,0.0,0.0,0.0,0.0,0.0,0.0,0.0,0.0,0.0,0.0,0.0,0.0,0.0,0.0,0.0,0.0,0.0,0.0,0.0,0.0,0.0,0.0,0.0,0.0,0.0,0.0,0.0,0.0,0.0,0.0,0.0,0.0,0.0,0.0,0.0,0.0,0.0,0.0,0.0,0.0,0.0,0.0,0.0,0.0,0.0,0.0,0.0,0.0,0.0,0.0,0.0,0.0,0.0,0.0,0.0,0.0,0.0,0.0,0.0,0.0,0.0,0.0,0.0,0.0,0.0,0.0,0.0,0.0,0.0,0.0,0.0,0.0,0.0,0.0,0.0,0.0,0.0,0.0,0.0,1.7288,1.6914,1.67,0.0,0.0,0.0,0.0,0.0,0.0,0.0,0.0,0.0,0.0,0.0,0.0,0.0,0.0,0.0,0.0,0.0,0.0,0.0,0.0,0.0,0.0,0.0,0.0,0.0,0.0,0.0,0.0,0.0,0.0,0.0,0.0,0.0,0.0,0.0,0.0,0.0,0.0,0.0,0.0,0.0,0.0,0.0,0.0,0.0,0.0,0.0,0.0,0.0,0.0,0.0,0.0,0.0,0.0,0.0,0.0,0.0,0.0,0.0,0.0,0.0,0.0,0.0,0.0,0.0,0.0,0.0,0.0,0.0,0.0,0.0,0.0,0.0,0.0,0.0,0.0,0.0,0.0,0.0,0.0,0.0,0.0,0.0,0.0,0.0,0.0,0.0,0.0,0.0,0.0,0.0,0.0,0.0,0.0,0.0,0.0,0.0,0.0,0.0,0.0,0.0,0.0,0.0,0.0,0.0,0.0,0.0,0.0,0.0,0.0,1.9928,1.848,1.809,0.0,1.678,0.0,0.0,0.0,0.0,0.0,0.0,0.0,0.0,0.0,0.0,0.0,0.0,0.0,0.0,0.0,0.0,0.0,0.0,0.0,0.0,0.0,0.0,0.0,0.0,0.0,0.0,0.0,0.0,0.0,0.0,0.0,0.0,0.0,0.0,0.0,0.0,0.0,0.0,0.0,0.0,0.0,0.0,0.0,0.0,0.0,0.0,0.0,0.0,0.0,0.0,0.0,0.0,0.0,0.0,0.0,0.0,0.0,0.0,0.0,0.0,0.0,0.0,0.0,0.0,0.0,0.0,0.0,0.0,0.0,0.0,0.0,0.0,0.0,0.0,0.0,0.0,0.0,0.0,0.0,0.0,0.0,0.0,0.0,0.0,0.0,0.0,0.0,0.0,0.0,0.0,0.0,0.0,0.0,0.0,0.0,0.0,0.0,0.0,0.0,0.0,0.0,0.0,0.0,0.0,0.0,0.0,0.0,0.0,0.0,0.0,1.9858,1.8532,1.8023,1.7435,0.0,0.0,0.0,0.0,0.0,0.0,0.0,0.0,0.0,0.0,0.0,0.0,0.0,0.0,0.0,0.0,0.0,0.0,0.0,0.0,0.0,0.0,0.0,0.0,0.0,0.0,0.0,0.0,0.0,0.0,0.0,0.0,0.0,0.0,0.0,0.0,0.0,0.0,0.0,0.0,0.0,0.0,0.0,0.0,0.0,0.0,0.0,0.0,0.0,0.0,0.0,0.0,0.0,0.0,0.0,0.0,0.0,0.0,0.0,0.0,0.0,0.0,0.0,0.0,0.0,0.0,0.0,0.0,0.0,0.0,0.0,0.0,0.0,0.0,0.0,0.0,0.0,0.0,0.0,0.0,0.0,0.0,0.0,0.0,0.0,0.0,0.0,0.0,0.0,0.0,0.0,0.0,0.0,0.0,0.0,0.0,0.0,0.0,0.0,0.0,0.0,0.0,0.0,0.0,0.0,0.0,0.0,0.0,0.0,0.0,2.0916,0.0,1.8682,1.8263,1.7609,1.6633,0.0,0.0,0.0,0.0,0.0,0.0,0.0,0.0,0.0,0.0,0.0,0.0,0.0,0.0,0.0,0.0,0.0,0.0,0.0,0.0,0.0,0.0,0.0,0.0,0.0,0.0,0.0,0.0,0.0,0.0,0.0,0.0,0.0,0.0,0.0,0.0,0.0,0.0,0.0,0.0,0.0,0.0,0.0,0.0,0.0,0.0,0.0,0.0,0.0,0.0,0.0,0.0,0.0,0.0,0.0,0.0,0.0,0.0,0.0,0.0,0.0,0.0,0.0,0.0,0.0,0.0,0.0,0.0,0.0,0.0,0.0,0.0,0.0,0.0,0.0,0.0,0.0,0.0,0.0,0.0,0.0,0.0,0.0,0.0,0.0,0.0,0.0,0.0,0.0,0.0,0.0,0.0,0.0,0.0,0.0,0.0,0.0,0.0,0.0,0.0,0.0,0.0,0.0,0.0,0.0,0.0,0.0,0.0,0.0,2.1432,1.9941,1.8905,1.9145,1.8398,0.0,0.0,0.0,0.0,0.0,0.0,0.0,0.0,0.0,0.0,0.0,0.0,0.0,0.0,0.0,0.0,0.0,0.0,0.0,0.0,0.0,0.0,0.0,0.0,0.0,0.0,0.0,0.0,0.0,0.0,0.0,0.0,0.0,0.0,0.0,0.0,0.0,0.0,0.0,0.0,0.0,0.0,0.0,0.0,0.0,0.0,0.0,0.0,0.0,0.0,0.0,0.0,0.0,0.0,0.0,0.0,0.0,0.0,0.0,0.0,0.0,0.0,0.0,0.0,0.0,0.0,0.0,0.0,0.0,0.0,0.0,0.0,0.0,0.0,0.0,0.0,0.0,0.0,0.0,0.0,0.0,0.0,0.0,0.0,0.0,0.0,0.0,0.0,0.0,0.0,0.0,0.0,0.0,0.0,0.0,0.0,0.0,0.0,0.0,0.0,0.0,0.0,0.0,0.0,0.0,0.0,0.0,0.0,0.0,2.2261,2.0308,1.9386,1.9693,1.8771,1.7876,0.0,0.0,0.0,0.0,0.0,0.0,0.0,0.0,0.0,0.0,0.0,0.0,0.0,0.0,0.0,0.0,0.0,0.0,0.0,0.0,0.0,0.0,0.0,0.0,0.0,0.0,0.0,0.0,0.0,0.0,0.0,0.0,0.0,0.0,0.0,0.0,0.0,0.0,0.0,0.0,0.0,0.0,0.0,0.0,0.0,0.0,0.0,0.0,0.0,0.0,0.0,0.0,0.0,0.0,0.0,0.0,0.0,0.0,0.0,0.0,0.0,0.0,0.0,0.0,0.0,0.0,0.0,0.0,0.0,0.0,0.0,0.0,0.0,0.0,0.0,0.0,0.0,0.0,0.0,0.0,0.0,0.0,0.0,0.0,0.0,0.0,0.0,0.0,0.0,0.0,0.0,0.0,0.0,0.0,0.0,0.0,0.0,0.0,0.0,0.0,0.0,0.0,0.0,0.0,0.0,0.0,0.0,0.0,0.0,2.0829,0.0,1.9252,0.0,1.8597,1.7622,0.0,0.0,0.0,0.0,0.0,0.0,0.0,0.0,0.0,0.0,0.0,0.0,0.0,0.0,0.0,0.0,0.0,0.0,0.0,0.0,0.0,0.0,0.0,0.0,0.0,0.0,0.0,0.0,0.0,0.0,0.0,0.0,0.0,0.0,0.0,0.0,0.0,0.0,0.0,0.0,0.0,0.0,0.0,0.0,0.0,0.0,0.0,0.0,0.0,0.0,0.0,0.0,0.0,0.0,0.0,0.0,0.0,0.0,0.0,0.0,0.0,0.0,0.0,0.0,0.0,0.0,0.0,0.0,0.0,0.0,0.0,0.0,0.0,0.0,0.0,0.0,0.0,0.0,0.0,0.0,0.0,0.0,0.0,0.0,0.0,0.0,0.0,0.0,0.0,0.0,0.0,0.0,0.0,0.0,0.0,0.0,0.0,0.0,0.0,0.0,0.0,0.0,0.0,0.0,0.0,0.0,0.0,0.0,2.0452,1.9034,1.972,1.9653,1.8584,1.8758,1.7675,0.0,0.0,0.0,0.0,0.0,0.0,0.0,0.0,0.0,0.0,0.0,0.0,0.0,0.0,0.0,0.0,0.0,0.0,0.0,0.0,0.0,0.0,0.0,0.0,0.0,0.0,0.0,0.0,0.0,0.0,0.0,0.0,0.0,0.0,0.0,0.0,0.0,0.0,0.0,0.0,0.0,0.0,0.0,0.0,0.0,0.0,0.0,0.0,0.0,0.0,0.0,0.0,0.0,0.0,0.0,0.0,0.0,0.0,0.0,0.0,0.0,0.0,0.0,0.0,0.0,0.0,0.0,0.0,0.0,0.0,0.0,0.0,0.0,0.0,0.0,0.0,0.0,0.0,0.0,0.0,0.0,0.0,0.0,0.0,0.0,0.0,0.0,0.0,0.0,0.0,0.0,0.0,0.0,0.0,0.0,0.0,0.0,0.0,0.0,0.0,0.0,0.0,0.0,0.0,0.0,0.0,0.0,0.0,0.0,1.868,1.9292,1.976,1.9933,1.8691,1.7809,0.0,0.0,0.0,0.0,0.0,0.0,0.0,0.0,0.0,0.0,0.0,0.0,0.0,0.0,0.0,0.0,0.0,0.0,0.0,0.0,0.0,0.0,0.0,0.0,0.0,0.0,0.0,0.0,0.0,0.0,0.0,0.0,0.0,0.0,0.0,0.0,0.0,0.0,0.0,0.0,0.0,0.0,0.0,0.0,0.0,0.0,0.0,0.0,0.0,0.0,0.0,0.0,0.0,0.0,0.0,0.0,0.0,0.0,0.0,0.0,0.0,0.0,0.0,0.0,0.0,0.0,0.0,0.0,0.0,0.0,0.0,0.0,0.0,0.0,0.0,0.0,0.0,0.0,0.0,0.0,0.0,0.0,0.0,0.0,0.0,0.0,0.0,0.0,0.0,0.0,0.0,0.0,0.0,0.0,0.0,0.0,0.0,0.0,0.0,0.0,0.0,0.0,0.0,0.0,0.0,0.0,0.0,0.0,0.0,2.0711,2.1205,2.1451,2.1581,2.0528,1.9584,1.8724,0.0,0.0,0.0,0.0,0.0,0.0,0.0,0.0,0.0,0.0,0.0,0.0,0.0,0.0,0.0,0.0,0.0,0.0,0.0,0.0,0.0,0.0,0.0,0.0,0.0,0.0,0.0,0.0,0.0,0.0,0.0,0.0,0.0,0.0,0.0,0.0,0.0,0.0,0.0,0.0,0.0,0.0,0.0,0.0,0.0,0.0,0.0,0.0,0.0,0.0,0.0,0.0,0.0,0.0,0.0,0.0,0.0,0.0,0.0,0.0,0.0,0.0,0.0,0.0,0.0,0.0,0.0,0.0,0.0,0.0,0.0,0.0,0.0,0.0,0.0,0.0,0.0,0.0,0.0,0.0,0.0,0.0,0.0,0.0,0.0,0.0,0.0,0.0,0.0,0.0,0.0,0.0,0.0,0.0,0.0,0.0,0.0,0.0,0.0,0.0,0.0,0.0,0.0,0.0,0.0,0.0,0.0,0.0,2.4589,2.5065,2.4741,2.3535,2.3825,2.2629,0.0,0.0,0.0,0.0,0.0,0.0,0.0,0.0,0.0,0.0,0.0,0.0,0.0,0.0,0.0,0.0,0.0,0.0,0.0,0.0,0.0,0.0,0.0,0.0,0.0,0.0,0.0,0.0,0.0,0.0,0.0,0.0,0.0,0.0,0.0,0.0,0.0,0.0,0.0,0.0,0.0,0.0,0.0,0.0,0.0,0.0,0.0,0.0,0.0,0.0,0.0,0.0,0.0,0.0,0.0,0.0,0.0,0.0,0.0,0.0,0.0,0.0,0.0,0.0,0.0,0.0,0.0,0.0,0.0,0.0,0.0,0.0,0.0,0.0,0.0,0.0,0.0,0.0,0.0,0.0,0.0,0.0,0.0,0.0,0.0,0.0,0.0,0.0,0.0,0.0,0.0,0.0,0.0,0.0,0.0,0.0,0.0,0.0,0.0,0.0,0.0,0.0,0.0,0.0,0.0,0.0,0.0,0.0,0.0,2.5325,2.9194,3.0102,2.7524,2.5813,2.4215,0.0,0.0,0.0,0.0,0.0,0.0,0.0,0.0,0.0,0.0,0.0,0.0,0.0,0.0,0.0,0.0,0.0,0.0,0.0,0.0,0.0,0.0,0.0,0.0,0.0,0.0,0.0,0.0,0.0,0.0,0.0,0.0,0.0,0.0,0.0,0.0,0.0,0.0,0.0,0.0,0.0,0.0,0.0,0.0,0.0,0.0,0.0,0.0,0.0,0.0,0.0,0.0,0.0,0.0,0.0,0.0,0.0,0.0,0.0,0.0,0.0,0.0,0.0,0.0,0.0,0.0,0.0,0.0,0.0,0.0,0.0,0.0,0.0,0.0,0.0,0.0,0.0,0.0,0.0,0.0,0.0,0.0,0.0,0.0,0.0,0.0,0.0,0.0,0.0,0.0,0.0,0.0,0.0,0.0,0.0,0.0,0.0,0.0,0.0,0.0,0.0,0.0,0.0,0.0,0.0,0.0,0.0,0.0,2.5581,2.8345,3.2173,3.3633,3.2277,2.9789,2.7356,0.0,0.0,0.0,0.0,0.0,0.0,0.0,0.0,0.0,0.0,0.0,0.0,0.0,0.0,0.0,0.0,0.0,0.0,0.0,0.0,0.0,0.0,0.0,0.0,0.0,0.0,0.0,0.0,0.0,0.0,0.0,0.0,0.0,0.0,0.0,0.0,0.0,0.0,0.0,0.0,0.0,0.0,0.0,0.0,0.0,0.0,0.0,0.0,0.0,0.0,0.0,0.0,0.0,0.0,0.0,0.0,0.0,0.0,0.0,0.0,0.0,0.0,0.0,0.0,0.0,0.0,0.0,0.0,0.0,0.0,0.0,0.0,0.0,0.0,0.0,0.0,0.0,0.0,0.0,0.0,0.0,0.0,0.0,0.0,0.0,0.0,0.0,0.0,0.0,0.0,0.0,0.0,0.0,0.0,0.0,0.0,0.0,0.0,0.0,0.0,0.0,0.0,0.0,0.0,0.0,0.0,0.0,0.0,2.7866,3.2302,3.4408,3.5877,3.663,3.4219,3.0969,0.0,0.0,0.0,0.0,0.0,0.0,0.0,0.0,0.0,0.0,0.0,0.0,0.0,0.0,0.0,0.0,0.0,0.0,0.0,0.0,0.0,0.0,0.0,0.0,0.0,0.0,0.0,0.0,0.0,0.0,0.0,0.0,0.0,0.0,0.0,0.0,0.0,0.0,0.0,0.0,0.0,0.0,0.0,0.0,0.0,0.0,0.0,0.0,0.0,0.0,0.0,0.0,0.0,0.0,0.0,0.0,0.0,0.0,0.0,0.0,0.0,0.0,0.0,0.0,0.0,0.0,0.0,0.0,0.0,0.0,0.0,0.0,0.0,0.0,0.0,0.0,0.0,0.0,0.0,0.0,0.0,0.0,0.0,0.0,0.0,0.0,0.0,0.0,0.0,0.0,0.0,0.0,0.0,0.0,0.0,0.0,0.0,0.0,0.0,0.0,0.0,0.0,0.0,0.0,0.0,0.0,0.0,0.0,3.0972,3.2924,3.6133,3.7648,3.7168,3.4648,3.191,0.0,0.0,0.0,0.0,0.0,0.0,0.0,0.0,0.0,0.0,0.0,0.0,0.0,0.0,0.0,0.0,0.0,0.0,0.0,0.0,0.0,0.0,0.0,0.0,0.0,0.0,0.0,0.0,0.0,0.0,0.0,0.0,0.0,0.0,0.0,0.0,0.0,0.0,0.0,0.0,0.0,0.0,0.0,0.0,0.0,0.0,0.0,0.0,2.9954,0.0,0.0,0.0,0.0,0.0,0.0,0.0,0.0,0.0,0.0,0.0,0.0,0.0,0.0,0.0,0.0,0.0,0.0,0.0,0.0,0.0,0.0,0.0,0.0,0.0,0.0,0.0,0.0,0.0,0.0,0.0,0.0,0.0,0.0,0.0,0.0,0.0,0.0,0.0,0.0,0.0,0.0,0.0,0.0,0.0,0.0,0.0,0.0,0.0,0.0,0.0,0.0,0.0,0.0,0.0,0.0,0.0,0.0,0.0,3.2533,3.4456,3.7203,3.8164,3.7285,3.5371,3.293,0.0,0.0,0.0,0.0,0.0,0.0,0.0,0.0,0.0,0.0,0.0,0.0,0.0,0.0,0.0,0.0,0.0,0.0,0.0,0.0,0.0,0.0,0.0,0.0,0.0,0.0,0.0,0.0,0.0,0.0,0.0,0.0,0.0,0.0,0.0,0.0,0.0,0.0,0.0,0.0,0.0,0.0,0.0,0.0,0.0,0.0,0.0,0.0,0.0,0.0,0.0,0.0,0.0,0.0,0.0,0.0,0.0,0.0,0.0,0.0,0.0,0.0,0.0,0.0,0.0,0.0,0.0,0.0,0.0,0.0,0.0,0.0,0.0,0.0,0.0,0.0,0.0,0.0,0.0,0.0,0.0,0.0,0.0,0.0,0.0,0.0,0.0,0.0,0.0,0.0,0.0,0.0,0.0,0.0,0.0,0.0,0.0,0.0,0.0,0.0,0.0,0.0,0.0,0.0,0.0,0.0,0.0,3.0655,3.3416,3.6123,3.7754,3.8164,3.7324,3.6259,3.4049,3.0618,0.0,0.0,0.0,0.0,0.0,0.0,0.0,0.0,0.0,0.0,0.0,0.0,0.0,0.0,0.0,0.0,0.0,0.0,0.0,0.0,0.0,0.0,0.0,0.0,0.0,0.0,0.0,0.0,0.0,0.0,0.0,0.0,0.0,0.0,0.0,0.0,0.0,0.0,2.757,2.9336,0.0,0.0,0.0,0.0,0.0,0.0,0.0,0.0,2.86,0.0,0.0,0.0,0.0,0.0,0.0,0.0,0.0,0.0,0.0,0.0,0.0,0.0,0.0,0.0,0.0,0.0,0.0,0.0,0.0,0.0,0.0,0.0,0.0,0.0,0.0,0.0,0.0,0.0,0.0,0.0,0.0,0.0,0.0,0.0,0.0,0.0,0.0,0.0,0.0,0.0,0.0,0.0,0.0,0.0,0.0,0.0,0.0,0.0,0.0,0.0,0.0,0.0,0.0,0.0,0.0,3.1264,3.2498,3.4406,3.7031,3.8066,3.8164,3.7375,3.728,3.5437,3.1774,0.0,0.0,0.0,0.0,0.0,0.0,0.0,0.0,0.0,0.0,0.0,0.0,0.0,0.0,0.0,0.0,0.0,0.0,0.0,0.0,0.0,0.0,0.0,0.0,0.0,0.0,0.0,0.0,0.0,0.0,0.0,0.0,0.0,0.0,0.0,0.0,0.0,0.0,0.0,3.0396,3.1585,0.0,0.0,0.0,0.0,0.0,0.0,0.0,0.0,2.8086,0.0,0.0,0.0,0.0,0.0,0.0,0.0,0.0,0.0,0.0,0.0,0.0,0.0,0.0,0.0,0.0,0.0,0.0,0.0,0.0,0.0,0.0,0.0,0.0,0.0,0.0,0.0,0.0,0.0,0.0,0.0,0.0,0.0,0.0,0.0,0.0,0.0,0.0,0.0,0.0,0.0,0.0,0.0,0.0,0.0,0.0,0.0,0.0,0.0,0.0,0.0,0.0,0.0,0.0,0.0,3.1347,3.3437,3.5371,3.7226,3.791,3.8339,3.8624,3.6873,3.529,0.0,0.0,0.0,0.0,0.0,0.0,0.0,0.0,0.0,0.0,0.0,0.0,0.0,0.0,0.0,0.0,0.0,0.0,0.0,0.0,0.0,0.0,0.0,0.0,0.0,0.0,0.0,0.0,0.0,0.0,0.0,0.0,0.0,0.0,0.0,0.0,0.0,0.0,0.0,0.0,3.1269,3.2608,3.4047,0.0,0.0,0.0,0.0,0.0,0.0,2.8807,2.7743,0.0,0.0,0.0,0.0,0.0,0.0,0.0,0.0,0.0,0.0,0.0,0.0,0.0,0.0,0.0,0.0,0.0,0.0,0.0,0.0,0.0,0.0,0.0,0.0,0.0,0.0,0.0,0.0,0.0,0.0,0.0,0.0,0.0,0.0,0.0,0.0,0.0,0.0,0.0,0.0,0.0,0.0,0.0,0.0,0.0,0.0,0.0,0.0,0.0,0.0,0.0,0.0,0.0,0.0,0.0,3.0684,3.3555,3.5905,3.7579,3.8125,3.8908,4.0007,3.7254,3.5619,0.0,0.0,0.0,0.0,0.0,0.0,0.0,0.0,0.0,0.0,0.0,0.0,0.0,0.0,0.0,0.0,0.0,0.0,0.0,0.0,0.0,0.0,0.0,0.0,0.0,0.0,0.0,0.0,0.0,0.0,0.0,0.0,0.0,0.0,0.0,0.0,0.0,0.0,0.0,0.0,0.0,3.3661,3.5029,3.3948,0.0,0.0,0.0,0.0,2.998,2.9022,0.0,0.0,0.0,0.0,0.0,0.0,0.0,0.0,0.0,0.0,0.0,0.0,0.0,0.0,0.0,0.0,0.0,0.0,0.0,0.0,0.0,0.0,0.0,0.0,0.0,0.0,0.0,0.0,0.0,0.0,0.0,0.0,0.0,0.0,0.0,0.0,0.0,0.0,0.0,0.0,0.0,0.0,0.0,0.0,0.0,0.0,0.0,0.0,0.0,0.0,0.0,0.0,0.0,0.0,0.0,0.0,3.0197,3.25,3.5391,3.8776,3.9405,4.0032,4.0843,4.0518,3.8554,0.0,0.0,0.0,0.0,0.0,0.0,0.0,0.0,0.0,0.0,0.0,0.0,0.0,0.0,0.0,0.0,0.0,0.0,0.0,0.0,0.0,0.0,0.0,0.0,0.0,0.0,0.0,0.0,0.0,0.0,0.0,0.0,0.0,0.0,0.0,0.0,0.0,0.0,0.0,0.0,0.0,3.4348,3.3979,3.3807,3.3278,0.0,0.0,3.106,3.0583,3.0824,0.0,0.0,0.0,0.0,0.0,0.0,0.0,0.0,0.0,0.0,0.0,0.0,0.0,0.0,0.0,0.0,0.0,0.0,0.0,0.0,0.0,0.0,0.0,0.0,0.0,0.0,0.0,0.0,0.0,0.0,0.0,0.0,0.0,0.0,0.0,0.0,0.0,0.0,0.0,0.0,0.0,0.0,0.0,0.0,0.0,0.0,0.0,0.0,0.0,0.0,0.0,0.0,0.0,0.0,0.0,2.8301,3.1625,3.4473,3.7478,4.0517,4.0866,4.1418,4.2368,4.0095,3.7935,0.0,0.0,0.0,0.0,0.0,0.0,0.0,0.0,0.0,0.0,0.0,0.0,0.0,0.0,0.0,0.0,0.0,0.0,0.0,0.0,0.0,0.0,0.0,0.0,0.0,0.0,0.0,0.0,0.0,0.0,0.0,0.0,0.0,0.0,0.0,0.0,0.0,0.0,0.0,0.0,0.0,0.0,3.4304,3.4318,0.0,0.0,0.0,3.2139,3.1612,0.0,0.0,0.0,0.0,0.0,0.0,0.0,0.0,0.0,0.0,0.0,0.0,0.0,0.0,0.0,0.0,0.0,0.0,0.0,0.0,0.0,0.0,0.0,0.0,0.0,0.0,0.0,0.0,0.0,0.0,0.0,0.0,0.0,0.0,0.0,0.0,0.0,0.0,0.0,0.0,0.0,0.0,0.0,0.0,0.0,0.0,0.0,0.0,0.0,0.0,0.0,0.0,0.0,0.0,0.0,0.0,0.0,3.2657,3.6377,3.9647,4.2192,4.2302,4.2772,4.3671,4.0362,0.0,0.0,0.0,0.0,0.0,0.0,0.0,0.0,0.0,0.0,0.0,0.0,0.0,0.0,0.0,0.0,0.0,0.0,0.0,0.0,0.0,0.0,0.0,0.0,0.0,0.0,0.0,2.1694,0.0,0.0,0.0,0.0,0.0,0.0,0.0,0.0,0.0,0.0,0.0,0.0,0.0,0.0,3.402,3.434,3.4671,3.5066,0.0,0.0,3.3144,3.2717,3.3579,3.3564,0.0,0.0,0.0,0.0,0.0,0.0,0.0,0.0,0.0,0.0,0.0,0.0,0.0,0.0,0.0,0.0,0.0,0.0,0.0,0.0,0.0,0.0,0.0,0.0,0.0,0.0,0.0,0.0,0.0,0.0,0.0,0.0,0.0,0.0,0.0,0.0,0.0,0.0,0.0,0.0,0.0,0.0,0.0,0.0,0.0,0.0,0.0,0.0,0.0,0.0,0.0,0.0,0.0,0.0,0.0,3.2361,3.7103,4.0864,4.3482,4.3591,4.3855,4.4452,4.3269,4.0621,0.0,0.0,0.0,0.0,0.0,0.0,0.0,0.0,0.0,0.0,0.0,0.0,0.0,0.0,0.0,0.0,0.0,0.0,0.0,0.0,0.0,0.0,0.0,0.0,0.0,0.0,0.0,0.0,0.0,0.0,0.0,0.0,0.0,0.0,0.0,0.0,0.0,0.0,0.0,0.0,0.0,3.374,3.3273,3.4494,3.5479,0.0,0.0,3.3822,3.3796,3.6044,3.6183,3.1417,0.0,0.0,0.0,0.0,0.0,0.0,0.0,0.0,0.0,0.0,0.0,0.0,0.0,0.0,0.0,0.0,0.0,0.0,0.0,0.0,0.0,0.0,0.0,0.0,0.0,0.0,0.0,0.0,0.0,0.0,0.0,0.0,0.0,0.0,0.0,0.0,0.0,0.0,0.0,0.0,0.0,0.0,0.0,0.0,0.0,0.0,0.0,0.0,0.0,0.0,0.0,0.0,0.0,3.2721,3.4797,3.9047,4.2624,4.5147,4.4937,4.472,4.4585,4.3237,4.0603,0.0,0.0,0.0,0.0,0.0,0.0,0.0,0.0,0.0,0.0,0.0,0.0,0.0,0.0,0.0,0.0,0.0,0.0,0.0,0.0,0.0,0.0,0.0,0.0,0.0,0.0,0.0,0.0,2.4858,2.5008,2.4556,0.0,0.0,0.0,0.0,0.0,0.0,0.0,0.0,0.0,0.0,3.4725,3.4614,3.5429,0.0,0.0,3.5403,3.4756,3.4405,3.5308,3.5123,3.2553,3.1347,0.0,0.0,0.0,0.0,0.0,0.0,0.0,0.0,0.0,0.0,0.0,0.0,0.0,0.0,0.0,0.0,0.0,0.0,0.0,0.0,0.0,0.0,0.0,0.0,0.0,0.0,0.0,0.0,0.0,0.0,0.0,0.0,0.0,0.0,0.0,0.0,0.0,0.0,0.0,0.0,0.0,0.0,0.0,0.0,0.0,0.0,0.0,0.0,0.0,0.0,0.0,0.0,3.414,3.6362,4.0749,4.3909,4.5799,4.5598,4.5146,4.4392,4.3087,4.0704,0.0,0.0,0.0,0.0,0.0,0.0,0.0,0.0,0.0,0.0,0.0,0.0,0.0,0.0,0.0,0.0,0.0,0.0,0.0,0.0,0.0,0.0,0.0,0.0,0.0,0.0,0.0,0.0,2.6097,2.5787,2.4707,0.0,0.0,0.0,0.0,0.0,0.0,0.0,0.0,0.0,0.0,3.5358,3.5289,3.578,3.6107,3.6107,3.5378,3.4726,3.45,3.4635,3.4203,3.2614,0.0,0.0,0.0,0.0,0.0,0.0,0.0,0.0,0.0,0.0,0.0,0.0,0.0,0.0,0.0,0.0,0.0,0.0,0.0,0.0,0.0,0.0,0.0,0.0,0.0,0.0,0.0,0.0,0.0,0.0,2.4821,0.0,0.0,0.0,0.0,0.0,0.0,0.0,0.0,0.0,0.0,0.0,0.0,0.0,0.0,0.0,0.0,0.0,0.0,0.0,0.0,0.0,0.0,3.5231,3.6437,4.1725,4.4585,4.4694,4.5196,4.4945,4.3865,4.3263,4.1379,3.804,0.0,0.0,0.0,0.0,0.0,0.0,0.0,0.0,0.0,0.0,0.0,0.0,0.0,0.0,0.0,0.0,0.0,0.0,0.0,0.0,0.0,0.0,0.0,0.0,0.0,0.0,2.6399,2.5971,2.5209,0.0,0.0,0.0,0.0,0.0,0.0,0.0,0.0,0.0,0.0,3.3634,3.5288,3.481,3.5182,3.5558,3.5558,3.4223,3.3345,3.3872,3.4408,3.3878,0.0,0.0,0.0,0.0,0.0,0.0,0.0,0.0,0.0,0.0,0.0,0.0,0.0,0.0,0.0,0.0,0.0,0.0,0.0,0.0,0.0,0.0,0.0,0.0,0.0,0.0,0.0,2.8753,2.895,0.0,0.0,0.0,0.0,0.0,0.0,0.0,0.0,0.0,0.0,0.0,2.9121,2.9121,0.0,0.0,0.0,0.0,0.0,0.0,0.0,0.0,0.0,0.0,0.0,0.0,3.6403,3.7617,4.1843,4.4267,4.4593,4.4443,4.4192,4.3815,4.3263,4.1229,3.7563,0.0,0.0,0.0,0.0,0.0,0.0,0.0,0.0,0.0,0.0,0.0,0.0,0.0,0.0,0.0,0.0,0.0,0.0,0.0,0.0,0.0,0.0,0.0,0.0,0.0,2.6675,0.0,0.0,0.0,0.0,0.0,0.0,0.0,0.0,0.0,0.0,0.0,3.1404,3.2773,3.4955,3.6162,3.5355,3.5382,3.5633,0.0,0.0,0.0,0.0,0.0,0.0,0.0,0.0,0.0,0.0,0.0,0.0,0.0,0.0,3.0043,2.7556,2.6201,2.5871,2.722,0.0,0.0,0.0,0.0,0.0,0.0,0.0,0.0,0.0,0.0,0.0,0.0,0.0,0.0,3.1767,0.0,2.9769,0.0,0.0,0.0,0.0,0.0,0.0,0.0,0.0,3.0312,3.1055,3.1309,3.1937,3.1908,0.0,3.256,3.1352,0.0,0.0,0.0,0.0,0.0,0.0,0.0,0.0,3.7335,3.8693,4.2208,4.4166,4.4317,4.4367,4.4091,4.3539,4.2785,4.0953,3.7864,3.4776,3.2365,0.0,0.0,0.0,0.0,0.0,0.0,0.0,0.0,0.0,0.0,0.0,0.0,0.0,0.0,0.0,0.0,0.0,0.0,0.0,0.0,0.0,0.0,0.0,2.7771,0.0,0.0,0.0,0.0,0.0,0.0,0.0,0.0,0.0,3.0792,3.1972,3.3367,3.4753,3.5925,3.6279,3.5102,0.0,0.0,0.0,0.0,0.0,0.0,0.0,3.2044,3.1525,3.1332,3.1265,3.1421,3.2011,3.2215,3.1304,0.0,0.0,3.0015,2.905,2.9027,3.0563,2.9739,2.8856,2.9069,2.8599,2.7996,0.0,0.0,0.0,0.0,0.0,0.0,0.0,0.0,3.4538,3.5229,0.0,3.2271,0.0,0.0,0.0,0.0,0.0,0.0,0.0,0.0,3.2812,3.3457,3.3646,3.5191,3.5568,3.4825,3.6875,3.6702,3.4523,3.3215,0.0,0.0,0.0,0.0,0.0,0.0,3.804,3.9772,4.2936,4.4317,4.3865,4.4844,4.4644,4.3092,4.1957,4.0626,3.8969,3.7337,3.5177,3.2483,3.031,0.0,0.0,0.0,0.0,0.0,0.0,0.0,0.0,0.0,0.0,0.0,0.0,0.0,0.0,0.0,0.0,0.0,0.0,0.0,0.0,2.9282,0.0,0.0,0.0,0.0,0.0,0.0,0.0,0.0,0.0,0.0,3.4345,3.4546,3.5211,3.6726,0.0,0.0,0.0,0.0,3.4324,3.3345,3.2667,3.234,3.234,3.2315,3.2265,3.2298,0.0,0.0,3.1776,3.2846,3.3555,3.2535,3.293,3.3456,3.4303,3.3529,3.3396,3.4761,3.2722,3.0939,3.1209,3.0632,2.9782,3.9903,0.0,0.0,0.0,0.0,3.817,3.9444,3.9904,3.9944,4.0319,4.0642,3.7587,0.0,0.0,0.0,0.0,0.0,0.0,3.1894,3.2891,3.3574,3.4823,3.6591,3.6834,3.7567,3.8812,3.9887,3.9812,3.8868,3.9158,3.644,3.0974,0.0,0.0,0.0,0.0,3.8793,4.0799,4.2961,4.3966,4.379,4.4116,4.3865,4.2986,4.2308,4.1329,4.0074,3.8818,3.7467,3.5913,3.4027,0.0,0.0,0.0,0.0,0.0,0.0,0.0,0.0,0.0,0.0,0.0,0.0,0.0,0.0,0.0,0.0,0.0,0.0,0.0,2.8558,2.8769,2.8747,0.0,0.0,0.0,0.0,0.0,0.0,0.0,0.0,0.0,3.7814,3.6352,3.5205,0.0,0.0,3.4705,3.3492,3.3771,3.4173,3.4248,0.0,0.0,0.0,3.3671,3.3571,3.3955,3.5219,3.59,3.5102,3.5614,3.5938,3.5186,3.5798,3.6513,3.6656,3.5903,3.5552,3.6329,3.4882,3.3375,3.3428,3.2753,3.1915,4.5692,4.2951,4.0539,3.9646,3.9951,4.1447,4.2879,4.4005,4.3413,4.3857,4.4964,4.1762,3.9556,3.8032,3.4831,0.0,0.0,0.0,3.3379,3.4473,3.4902,3.5951,3.7458,3.8527,3.9557,4.046,4.2184,4.2701,4.2166,4.242,3.9968,3.5057,0.0,0.0,3.55,3.8016,4.0199,4.1957,4.3614,4.4468,4.4468,4.4041,4.3639,4.3313,4.276,4.1957,4.0824,3.9998,3.9038,3.7983,3.633,3.4741,0.0,0.0,0.0,0.0,0.0,0.0,0.0,0.0,0.0,0.0,0.0,2.9085,2.8435,0.0,0.0,0.0,2.9059,2.9728,3.0769,3.0604,0.0,0.0,0.0,0.0,0.0,0.0,0.0,3.5716,3.7061,3.814,3.875,3.7235,3.6072,3.6029,3.5661,3.4966,3.3884,0.0,3.4555,3.4726,3.468,3.468,3.4726,3.5003,3.56,3.6646,3.7674,3.802,3.7272,3.737,3.738,3.7052,3.7396,3.7919,3.8331,3.7835,3.7308,3.7517,3.6626,3.5667,3.5221,3.4671,3.408,5.0555,5.0819,4.5836,4.3739,4.3752,4.4208,4.5474,4.7127,4.5597,4.6461,4.8657,4.5066,4.3171,4.2389,3.8043,0.0,0.0,3.4492,3.5293,3.6133,3.6661,3.7045,3.7302,4.0493,4.1643,4.0977,4.4014,4.5271,4.4736,4.3664,4.2585,4.1526,4.0501,3.9622,3.912,4.0526,4.1907,4.3037,4.4568,4.5372,4.5397,4.4367,4.3765,4.3664,4.3187,4.2439,4.1411,4.0885,4.0159,3.9276,3.7732,3.6075,3.4287,0.0,0.0,0.0,0.0,0.0,0.0,0.0,0.0,0.0,0.0,0.0,0.0,0.0,0.0,0.0,3.1898,0.0,3.4439,3.3823,0.0,0.0,0.0,3.2872,3.3501,3.5517,3.6951,3.7427,0.0,0.0,3.8173,0.0,3.7561,3.8103,3.7108,3.5931,3.4926,3.5157,3.5307,3.4876,3.4851,3.4921,3.5223,3.6556,3.8189,3.9581,4.0074,3.9661,3.8671,3.8335,3.8211,3.7968,3.7919,3.8219,3.9228,3.9277,3.9053,3.7974,3.7748,3.7415,3.6521,3.6258,3.6053,5.5066,5.4814,5.3113,5.0877,4.8682,5.0073,5.0194,4.9479,5.004,5.0412,5.0528,4.8367,4.5262,4.1496,4.0401,3.8421,3.5918,3.6113,3.6484,3.7042,3.858,3.9951,4.1238,4.3078,4.465,4.6004,4.5689,4.5849,4.6426,4.497,4.4091,4.3733,4.2735,4.1279,3.9622,4.0727,4.2082,4.3589,4.3991,4.4418,4.4794,4.4141,4.3388,4.264,4.2489,4.2293,4.2112,4.1513,4.1528,4.2277,4.0985,3.9596,3.8128,3.4313,0.0,0.0,0.0,0.0,0.0,0.0,0.0,0.0,0.0,3.1692,2.9744,0.0,3.2766,0.0,3.3245,3.4278,3.4826,3.4801,0.0,0.0,3.607,3.6516,3.7765,3.8835,3.9516,3.9602,4.0299,4.0556,3.9956,3.9803,3.9432,3.8777,3.6975,3.5629,3.5332,3.5408,3.5458,3.5403,3.5726,3.6303,3.728,3.9136,4.0675,4.114,4.15,4.1508,4.0715,4.0156,3.9673,3.9158,3.9017,3.9156,3.9337,3.9403,3.898,3.8069,3.7805,3.7738,3.7472,3.7434,3.7234,5.7323,5.6545,5.6244,5.4837,5.2837,5.2443,5.2247,5.2128,5.173,5.1723,5.1925,5.0519,4.7182,4.2701,4.259,4.0544,3.7162,3.8017,3.8566,3.8928,4.0901,4.2228,4.3018,4.4482,4.5645,4.6423,4.6262,4.6527,4.7029,4.6356,4.6116,4.6322,4.6156,4.5204,4.3571,4.2304,4.2158,4.3062,4.3815,4.4317,4.4535,4.4317,4.3413,4.1882,4.235,4.2112,4.1156,4.101,4.1187,4.1594,4.0703,3.9586,3.8525,3.545,3.2782,0.0,0.0,0.0,0.0,0.0,0.0,0.0,0.0,0.0,0.0,0.0,3.4472,3.4681,3.537,3.6097,3.6887,3.7005,3.7481,3.8414,3.8569,3.921,4.0599,4.1055,4.1384,4.1683,4.1557,4.136,4.0979,4.0477,3.9879,3.9044,3.7588,3.6511,3.6282,3.6081,3.6092,3.6575,3.6944,3.7769,3.9376,4.0718,4.1782,4.2246,4.2367,4.2201,4.1542,4.0846,4.0187,3.9589,3.9403,3.9403,3.9403,3.9403,3.9192,3.873,3.8509,3.8331,3.7919,3.8182,3.8304,5.8102,5.7148,5.7072,5.6721,5.5997,5.3327,5.3131,5.4541,5.2184,5.1766,5.2754,5.18,4.8961,4.4891,4.4823,4.2406,3.8457,4.0326,4.1219,4.1246,4.3434,4.4211,4.3916,4.5559,4.5933,4.5197,4.6477,4.7266,4.7622,4.7762,4.8197,4.893,4.9473,4.9299,4.819,4.4703,4.278,4.2587,4.3853,4.4518,4.4518,4.454,4.3487,4.1496,4.2372,4.206,4.008,4.0232,4.0262,3.9905,3.9225,3.8547,3.7814,3.5864,3.4172,0.0,3.08,0.0,0.0,0.0,0.0,0.0,0.0,0.0,0.0,3.5519,3.6507,3.7704,3.7793,3.8337,3.9709,3.992,4.0233,4.0915,4.0986,4.143,4.2543,4.2578,4.2731,4.3349,4.2544,4.1909,4.1775,4.0761,3.9847,3.9387,3.8559,3.7998,3.7715,3.7108,3.7006,3.8153,3.8469,3.9332,4.1014,4.1794,4.2379,4.315,4.2814,4.2242,4.1558,4.0778,4.0098,3.9559,3.9403,3.9445,3.9517,3.9589,3.9661,3.9773,3.9718,3.9242,3.8304,3.87,3.9157,5.8328,5.77,5.7223,5.6721,5.6194,5.5603,5.5326,5.5164,5.3757,5.2784,5.2277,5.2051,5.0351,4.7764,4.7671,4.615,4.3525,4.3893,4.3855,4.3547,4.5411,4.6217,4.6233,4.7604,4.8192,4.7943,4.737,4.8294,5.0411,4.8989,4.927,5.1037,4.9884,4.8911,4.8243,0.0,0.0,0.0,4.4102,4.3966,4.3972,4.4119,4.3284,4.1484,4.2043,0.0,4.1874,4.0986,4.0937,4.1744,4.1198,0.0,0.0,0.0,0.0,0.0,0.0,0.0,0.0,0.0,0.0,0.0,3.7336,3.6956,3.6237,3.7674,3.899,3.9738,3.9828,4.0456,4.2017,4.2643,4.3309,4.4145,4.4071,4.4086,4.4295,4.3629,4.3379,4.4007,4.3905,4.3566,4.3011,4.2043,4.1232,4.0869,3.9667,3.9157,3.9915,3.8679,3.827,3.936,4.0247,4.1014,4.1504,4.3051,4.3876,4.3734,4.3094,4.2448,4.1694,4.051,3.9649,3.9439,3.9403,3.9666,4.0274,4.0481,4.0656,4.1362,4.1019,4.015,3.8647,3.8962,3.9364,5.878,0.0,5.77,5.7123,0.0,5.6319,5.6043,5.5742,5.4888,5.3909,5.2879,5.2603,5.1171,4.8911,4.8911,4.7446,4.4973,4.5897,4.5942,4.5524,4.7311,4.8191,4.8191,4.8878,4.8887,4.8397,4.8534,4.923,5.0227,5.0531,5.1377,5.2711,5.2301,5.1972,5.1655,4.9647,4.7699,4.5919,4.4889,4.4656,4.5201,4.574,4.5032,4.3057,0.0,0.0,0.0,0.0,0.0,0.0,0.0,0.0,0.0,0.0,0.0,3.8,3.6973,3.6937,3.8131,3.8534,3.9143,4.0008,4.054,4.0307,3.899,4.0127,4.1265,4.2222,4.2781,4.3591,4.4725,4.5588,4.6253,4.6685,4.6233,4.5842,4.5727,4.4898,4.4436,4.4624,4.4241,4.3728,4.343,4.2329,4.1469,4.1103,4.0377,4.0096,4.0836,3.9876,3.9448,4.0575,4.1699,4.26,4.313,4.3952,4.475,4.4324,4.3493,4.259,4.1833,4.0769,3.992,3.9625,4.006,4.0758,4.069,4.1031,4.1367,4.1438,4.1367,4.0786,3.9377,3.9345,3.9629,5.9207,5.8679,5.8127,5.7575,5.6997,5.6445,5.6219,5.6168,0.0,0.0,0.0,5.3155,5.1803,4.9972,4.9902,4.854,4.6173,4.7637,4.7978,4.7377,4.8893,4.959,4.959,4.959,4.914,4.8404,4.9611,5.0168,5.0197,5.2091,5.3439,5.4202,5.4886,5.5209,5.4968,5.1933,4.9472,4.7781,4.5979,4.5551,4.6724,4.7476,4.6969,4.5155,4.6005,4.5332,4.2913,4.2977,4.2591,4.1498,4.08,4.0527,4.0618,4.0527,4.076,4.1528,4.1721,4.2122,4.288,4.3555,4.3602,4.2754,4.3281,4.314,4.1983,4.2685,4.3615,4.466,4.5719,4.6635,4.7352,4.7951,4.8437,4.8615,4.7574,4.6834,4.6795,4.5941,4.5274,4.5299,4.4381,4.3647,4.3704,4.2463,4.1467,4.1211,4.1032,4.1137,4.1606,4.1155,4.0873,4.1823,4.2629,4.3576,4.4441,4.4589,4.4716,4.471,4.3556,4.2404,4.1682,4.1093,4.0443,3.9814,4.0961,4.156,4.133,4.1628,4.1914,4.1579,4.1599,4.146,4.0479,4.016,4.0127,5.9207,5.8679,5.8127,5.7575,5.6997,5.6445,5.6219,5.6118,5.5139,5.431,5.3658,5.3155,5.2742,5.2366,5.2366,5.17,5.0454,5.0655,5.024,0.0,4.9461,4.959,4.959,4.959,4.9722,4.9931,5.0127,5.1254,5.3067,5.3091,5.3943,5.5575,5.5406,5.5209,5.5018,5.2901,5.1614,5.1213,4.7161,4.5635,4.7032,4.7313,4.7474,4.7511,4.7588,4.761,4.7559,4.643,4.5773,4.555,4.4881,4.4753,4.5327,4.4747,4.4532,4.4701,4.528,4.5667,4.5736,4.6378,4.6657,4.6174,4.5475,4.4706,4.3988,4.5358,4.6338,4.6593,4.7486,4.8413,4.9224,4.8824,4.8784,4.929,4.7838,4.6756,4.6779,4.5961,4.5574,4.607,4.5011,4.4487,4.4663,4.3066,4.2012,4.2536,4.2055,4.1827,4.2648,4.2941,4.286,4.3021,4.317,4.3732,4.4425,4.4291,4.4167,4.4211,4.2997,4.1783,4.1031,4.0882,4.069,4.0519,4.1396,4.2205,4.2644,4.246,4.2626,4.3125,4.2757,4.2147,4.2126,4.18,4.129,5.9357,5.9081,5.8554,5.8027,5.7449,5.657,5.6219,5.6143,5.5365,5.4687,5.4135,5.3582,5.3206,5.2861,5.2861,5.2327,5.1272,5.1272,5.067,4.964,4.959,4.959,4.9654,5.0499,5.0669,5.03,5.1929,5.2967,5.3395,5.3925,5.4687,5.5598,5.5329,5.5209,5.5099,5.3435,5.263,5.257,4.9473,4.8387,4.9577,5.0105,5.0573,5.1047,5.0596,5.0065,4.9588,4.8561,4.7854,4.7505,4.7184,4.7152,4.7441,4.7184,4.7203,4.7722,4.805,4.8453,4.896,4.8291,4.8015,4.8155,4.7234,4.6692,4.6753,4.7145,4.7785,4.8716,4.9737,5.0471,5.0897,5.0507,5.0435,5.0862,4.9063,4.788,4.7719,4.6951,4.6501,4.6642,4.5405,4.4676,4.5239,4.3415,4.2353,4.3078,4.278,4.278,4.329,4.3771,4.3888,4.3488,4.3732,4.409,4.4279,4.4521,4.4253,4.3709,4.2622,4.1572,4.0913,4.1028,4.1196,4.093,4.2109,4.3002,4.2977,4.3126,4.3272,4.2875,4.3254,4.2995,4.2849,4.2717,4.2485,5.9508,5.9433,5.8805,5.8152,5.7449,5.6595,5.6219,5.6168,5.5767,5.5189,5.4536,5.3959,5.3406,5.2955,5.2861,5.2327,5.1373,5.1272,5.067,4.9665,4.959,4.9783,5.0245,5.1455,5.1721,5.1512,5.3697,5.4364,5.3687,5.4493,5.488,5.479,5.488,5.497,5.497,5.4089,5.3621,5.3513,5.2156,5.1601,5.1947,5.2819,5.3575,5.4115,5.3455,5.2637,5.1707,5.0964,5.0249,4.9567,4.9372,4.9339,4.9538,4.9372,4.9594,5.0286,5.0555,5.096,5.1561,5.0101,4.9323,4.9834,4.8952,4.8693,4.937,4.9032,4.9251,5.0606,5.1602,5.2139,5.1855,5.1602,5.1484,5.1155,4.9615,4.8368,4.8346,4.7764,4.7309,4.7089,4.5581,4.4632,4.479,4.3608,4.2715,4.3119,4.329,4.3369,4.3654,4.4358,4.4434,4.4327,4.4631,4.483,4.4283,4.426,4.4008,4.2965,4.1872,4.1144,4.0814,4.1396,4.1853,4.1594,4.2848,4.3647,4.2964,4.309,4.3341,4.2847,4.3102,4.332,4.3008,4.3178,4.3339,5.9508,5.9332,5.8428,5.7349,5.6445,5.6269,5.6219,5.6194,5.6143,5.5541,5.4536,5.3959,5.3432,5.2911,5.2861,5.2327,5.1348,5.1272,5.0695,4.969,4.959,5.0372,5.1616,5.1989,5.2837,5.409,5.4725,5.4929,5.4824,5.451,5.4012,5.3503,5.3982,5.4311,5.4381,5.5171,5.5298,5.4777,5.4995,5.4348,5.2949,5.3859,5.4897,5.5949,5.5259,5.4986,5.4988,5.4526,5.3752,5.3044,5.227,5.2236,5.2808,5.2303,5.1966,5.2066,5.2707,5.3213,5.318,5.2219,5.151,5.1572,5.0688,5.053,5.1414,5.1496,5.1536,5.1885,5.2697,5.28,5.1993,5.108,5.0204,4.9416,4.8252,4.7439,4.7495,4.7352,4.7309,4.7309,4.5639,4.4603,4.4959,4.3634,4.274,4.322,4.329,4.3576,4.4358,4.4774,4.5264,4.5674,4.6032,4.5646,4.4938,4.3812,4.2977,4.2018,4.0654,4.0177,4.0619,4.1396,4.2109,4.2416,4.3202,4.3647,4.3528,4.3366,4.2754,4.3138,4.3113,4.2991,4.3268,4.3426,4.3409,5.9508,5.9408,5.8679,5.7725,5.6721,5.6344,5.6219,5.6219,5.6219,5.5591,5.4683,5.431,5.3733,5.2886,5.2861,5.2503,5.1774,5.1448,5.087,5.0197,5.0716,5.1393,5.2086,5.4002,5.4825,5.4921,5.5679,5.5834,5.5167,5.4521,5.4042,5.3803,5.3683,5.4164,5.5162,5.53,5.5501,5.5955,5.6337,5.6001,5.5035,5.5296,5.6087,5.7009,5.6482,5.6163,5.6187,5.5243,5.4465,5.4126,5.3416,5.3179,5.3484,5.3179,5.301,5.3044,5.3315,5.3518,5.3518,5.2522,5.1885,5.1885,5.1525,5.1488,5.1885,5.2487,5.2835,5.2835,5.2662,5.2348,5.1813,5.0435,4.9256,4.8759,4.7904,4.7309,4.7309,4.7309,4.7309,4.7176,4.5938,4.4984,4.5049,4.3938,4.3135,4.328,4.3329,4.3732,4.4662,4.5264,4.6028,4.6732,4.6712,4.562,4.4259,4.3458,4.2282,4.0852,3.9877,3.9737,4.0588,4.1396,4.2171,4.2643,4.3277,4.3425,4.293,4.3323,4.323,4.3415,4.3395,4.325,4.348,4.3497,4.3497,5.9508,5.9382,5.8755,5.7901,5.6997,5.6445,5.6219,5.6219,5.6219,5.5591,5.4612,5.4561,5.3959,5.303,5.2861,5.2628,5.2076,5.1523,5.121,5.1124,5.1753,5.2455,5.3462,5.5532,5.6241,5.5746,5.6538,5.6226,5.479,5.4401,5.407,5.3851,5.3736,5.4385,5.57,5.5579,5.5935,5.6776,5.719,5.7155,5.6729,5.6663,5.7076,5.7775,5.7374,5.7002,5.6765,5.5784,5.5108,5.4905,5.4194,5.3788,5.3788,5.3619,5.3518,5.3518,5.3518,5.3518,5.3518,5.28,5.2348,5.2348,5.2348,5.2348,5.2487,5.3076,5.3484,5.3382,5.2277,5.1488,5.1303,4.9891,4.8759,4.8418,4.7709,4.7309,4.7309,4.7309,4.7309,4.7189,4.6087,4.5125,4.4706,4.3888,4.3329,4.3693,4.3771,4.4243,4.5269,4.6173,4.6869,4.7473,4.6909,4.5505,4.3579,4.2805,4.1741,4.0304,3.9409,3.9809,4.0662,4.1531,4.2348,4.2974,4.3534,4.3677,4.323,4.3441,4.3526,4.3175,4.3214,4.348,4.3497,4.3497,4.3497,5.9508,5.9332,5.8378,5.76,5.6997,5.6445,5.6219,5.6219,5.6292,5.5663,5.4779,5.4845,5.4029,5.3136,5.3247,5.2697,5.2101,5.1657,5.1841,5.2507,5.2315,5.3643,5.6366,5.665,5.6796,5.6786,5.6937,5.5918,5.3721,5.3972,5.3801,5.32,5.4251,5.5059,5.5836,5.6561,5.7076,5.7277,5.7649,5.7806,5.7772,5.7772,5.7808,5.7881,5.7848,5.7476,5.6934,5.6765,5.6359,5.5647,5.4938,5.4566,5.4499,5.3923,5.3619,5.3585,5.3551,5.3551,5.3551,5.345,5.3382,5.3382,5.3349,5.3416,5.3382,5.3517,5.3551,5.3484,5.1704,5.0589,5.0358,4.9336,4.8335,4.7624,4.7396,4.7309,4.7309,4.7309,4.7309,4.713,4.6112,4.4885,4.3648,4.3349,4.381,4.4358,4.4699,4.5337,4.6763,4.7373,4.7538,4.7325,4.6533,4.5177,4.4165,4.2755,4.1233,4.0015,3.9517,3.9955,4.0843,4.1754,4.2572,4.3098,4.3034,4.3137,4.3421,4.3435,4.3285,4.3178,4.3321,4.3497,4.3497,4.3497,4.3497,5.9282,5.8905,5.8202,5.7575,5.6997,5.6445,5.6219,5.634,5.7421,5.7273,5.6548,5.7391,5.7264,5.6168,5.6168,5.4863,5.2732,5.2664,5.2983,5.3472,5.4441,5.559,5.6679,5.7719,5.7759,5.7169,5.7094,5.6596,5.5748,5.549,5.5628,5.5891,5.5581,5.605,5.7093,5.6861,5.7105,5.8227,5.8106,5.7881,5.7881,5.7881,5.7881,5.7881,5.7881,5.778,5.7509,5.707,5.6664,5.6427,5.5716,5.531,5.5277,5.5074,5.4905,5.4905,5.4938,5.4702,5.4296,5.4194,5.3991,5.3585,5.3912,5.4269,5.42,5.4168,5.3941,5.3112,5.1528,5.0242,4.9336,4.846,4.7722,4.7396,4.7309,4.7309,4.7309,4.7309,4.7309,4.71,4.6142,4.4796,4.3878,4.3849,4.4358,4.4774,4.5306,4.6276,4.7205,4.7638,4.7571,4.6939,4.5732,4.4201,4.2816,4.181,4.0728,3.993,3.9589,4.0378,4.1237,4.1646,4.2337,4.337,4.3161,4.3045,4.3481,4.3524,4.3321,4.3321,4.3497,4.3497,4.3497,4.3497,4.3497,5.9031,5.8604,5.7926,5.7399,5.6972,5.6445,5.6558,5.7159,5.8366,5.8546,5.8335,5.9276,5.9137,5.8143,5.7977,5.6855,5.4638,5.4516,5.4692,5.5243,5.6213,5.7214,5.8153,5.8984,5.9006,5.8349,5.7798,5.7492,5.7262,5.7057,5.7317,5.7872,5.7203,5.7625,5.8615,5.7703,5.7787,5.8683,5.8287,5.7881,5.7881,5.7881,5.7881,5.7881,5.7881,5.7881,5.7881,5.7408,5.7137,5.707,5.6461,5.5953,5.575,5.5681,5.5681,5.5681,5.5681,5.5619,5.5383,5.5348,5.5243,5.5058,5.5463,5.5768,5.5733,5.5278,5.4537,5.3382,5.1565,4.997,4.9004,4.8168,4.7679,4.7439,4.7309,4.7309,4.7309,4.7309,4.707,4.6634,4.6188,4.5193,4.4191,4.473,4.5337,4.5634,4.6279,4.7002,4.7803,4.8031,4.7665,4.6738,4.531,4.3745,4.2336,4.1168,4.0466,3.9696,4.0004,4.0798,4.166,4.192,4.2475,4.3442,4.3713,4.3536,4.3468,4.3495,4.3529,4.3512,4.3497,4.3497,4.3497,4.3497,4.3331,5.873,5.8554,5.7424,5.7072,5.6947,5.6639,5.7303,5.8578,5.9113,5.9589,5.9818,6.006,5.9715,5.8487,5.8634,5.8194,5.791,5.6981,5.6973,5.7935,5.7397,5.8402,6.0547,6.0259,6.0277,6.0407,5.938,5.8435,5.7993,5.8441,5.8723,5.8749,5.921,5.9491,6.011,5.9287,5.8923,5.8896,5.8321,5.7949,5.7881,5.7881,5.7881,5.7881,5.7881,5.7881,5.7881,5.7848,5.778,5.7746,5.7171,5.6461,5.6021,5.5919,5.5818,5.5991,5.5888,5.6235,5.6829,5.6923,5.7238,5.755,5.8019,5.7907,5.7559,5.6624,5.5423,5.399,5.1958,5.0033,4.9147,4.8749,4.8335,4.7538,4.7581,4.7709,4.7581,4.7409,4.6813,4.6015,4.6152,4.609,4.5403,4.5634,4.6419,4.707,4.7473,4.7868,4.8576,4.8767,4.8281,4.6868,4.5272,4.3645,4.2084,4.0687,4.0065,3.9642,4.0433,4.1274,4.2459,4.3064,4.3641,4.4466,4.4161,4.395,4.3897,4.3927,4.3721,4.3693,4.3631,4.3495,4.3461,4.3404,4.3015,5.873,5.8579,5.7499,5.7047,5.7095,5.7724,5.8437,5.9183,6.1394,6.2182,6.1861,6.2811,6.2694,6.17,6.1495,6.1466,6.1378,6.018,5.9248,5.8755,5.924,6.0028,6.0978,6.1725,6.1631,6.0782,5.9484,5.9161,5.9696,5.9945,6.0406,6.1,6.0824,6.078,6.0854,6.0148,5.9539,5.9032,5.8795,5.8423,5.7949,5.7881,5.7881,5.7881,5.7881,5.7881,5.7881,5.7881,5.7881,5.7918,5.7679,5.7442,5.7239,5.7205,5.7492,5.7981,5.8015,5.8175,5.8457,5.8536,5.8416,5.8384,5.868,5.8616,5.8213,5.7645,5.624,5.4173,5.22,5.0708,4.9718,4.9048,4.8749,4.8346,4.8963,4.9327,4.9247,4.9327,4.8391,4.6828,4.7153,4.7124,4.6335,4.6558,4.7273,4.7605,4.8129,4.8704,4.8892,4.9018,4.8099,4.6265,4.4854,4.3515,4.1929,4.1137,4.0946,4.1021,4.1716,4.2605,4.3647,4.4301,4.4868,4.4929,4.4639,4.4435,4.4397,4.4204,4.4035,4.3839,4.3677,4.356,4.3458,4.3198,4.2803,5.8303,5.8052,5.7785,5.767,5.7934,5.9245,6.0306,6.1096,6.3025,6.3675,6.3544,6.4159,6.4096,6.3228,6.3137,6.2929,6.263,6.1583,6.0671,5.9941,6.0471,6.1224,6.182,6.3009,6.3028,6.1895,6.0717,6.0534,6.1235,6.1317,6.1676,6.2201,6.1907,6.1704,6.1569,6.0622,5.9844,5.9404,5.8863,5.8355,5.7983,5.7881,5.7881,5.7881,5.7881,5.8029,5.8281,5.8352,5.8209,5.7991,5.7881,5.7881,5.7918,5.8139,5.8564,5.901,5.9441,5.9745,6.0084,6.013,6.016,5.9949,6.007,5.9987,5.9293,5.8577,5.6268,5.404,5.23,5.089,4.9718,4.9899,4.9891,4.9938,5.0126,5.0397,5.0397,5.0397,4.9489,4.8092,4.8211,4.7977,4.7322,4.7539,4.8096,4.8225,4.8608,4.9018,4.9018,4.9018,4.7608,4.6147,4.4854,4.3357,4.1712,4.1436,4.1753,4.2481,4.3308,4.4366,4.5458,4.5601,4.5968,4.5571,4.5208,4.4946,4.4823,4.4482,4.4233,4.402,4.3754,4.3376,4.3128,4.2959,4.2532,5.7599,5.7316,5.8466,5.9008,5.9332,6.107,6.2613,6.3873,6.3954,6.425,6.4696,6.4426,6.3767,6.3256,6.3137,6.278,6.2061,6.1433,6.1346,6.1475,6.1566,6.1964,6.3253,6.4065,6.396,6.3242,6.2481,6.2257,6.2223,6.2223,6.2381,6.2381,6.2212,6.2279,6.1873,6.0791,6.0013,5.9674,5.866,5.8084,5.7915,5.7881,5.7991,5.7993,5.8065,5.8423,5.9078,5.9212,5.884,5.8209,5.8244,5.8315,5.828,5.8772,5.9211,5.9476,6.0086,6.082,6.1428,6.1542,6.1797,6.2208,6.1688,6.1512,6.082,5.8596,5.6262,5.4225,5.2649,5.1096,5.0153,5.0621,5.1594,5.1849,5.134,5.0892,5.055,5.0627,5.0097,4.9001,4.9121,4.9254,4.7969,4.8513,4.8858,4.8923,4.9015,4.9168,4.8951,4.8655,4.7706,4.6314,4.4724,4.3557,4.2013,4.2161,4.2667,4.4517,4.5237,4.6137,4.6658,4.6656,4.6357,4.5962,4.5624,4.54,4.5191,4.4861,4.4482,4.4204,4.3794,4.3168,4.2807,4.2564,4.2136,5.7935,5.8987,5.9473,6.0114,6.1165,6.3338,6.4295,6.4503,6.5525,6.5496,6.5114,6.4844,6.4126,6.3139,6.3079,6.272,6.2032,6.1429,6.1455,6.1991,6.2392,6.3408,6.4563,6.4648,6.4241,6.3497,6.2753,6.2415,6.2415,6.2415,6.2415,6.2381,6.1873,6.1637,6.14,6.0588,5.9844,5.937,5.8998,5.8389,5.8022,5.7954,5.8244,5.8737,5.8772,5.9211,5.996,6.0055,5.9991,5.9803,5.9736,5.9771,5.9674,5.9896,6.0238,6.0754,6.1113,6.1632,6.2271,6.2464,6.2592,6.2668,6.1969,6.1379,6.073,5.9329,5.7254,5.5277,5.3858,5.2878,5.1999,5.1856,5.2274,5.2904,5.2661,5.2241,5.1813,5.2172,5.1851,4.9937,5.0291,4.9921,4.9297,4.9158,4.9487,4.9226,4.9316,4.9462,4.907,4.8416,4.7594,4.5917,4.443,4.3552,4.2863,4.294,4.3993,4.6316,4.7355,4.7871,4.7777,4.7213,4.663,4.6,4.5701,4.5457,4.539,4.5191,4.4823,4.4414,4.4013,4.3489,4.2627,4.2137,4.1656,6.0199,6.1043,6.2095,6.2807,6.3404,6.5477,6.6036,6.5668,6.612,6.6191,6.5503,6.5114,6.4455,6.3498,6.3199,6.254,6.1729,6.1533,6.1849,6.2594,6.3603,6.4685,6.5312,6.4952,6.4208,6.3497,6.2753,6.2448,6.2415,6.2415,6.2415,6.2245,6.167,6.1332,6.1264,6.0182,5.9471,5.9032,5.8727,5.84,5.8422,5.8423,5.884,5.9476,5.9671,6.0055,6.079,6.12,6.1113,6.058,6.0366,6.0397,6.0427,6.073,6.1113,6.1604,6.1915,6.2324,6.2643,6.278,6.2618,6.2245,6.1548,6.0725,5.9727,5.8462,5.6429,5.4915,5.4063,5.3301,5.2715,5.2509,5.2868,5.3314,5.3518,5.3246,5.2592,5.274,5.2302,5.1323,5.0968,5.0952,4.9918,5.0011,4.9809,4.9551,4.9406,4.9316,4.9043,4.8244,4.72,4.5431,4.4516,4.3817,4.3771,4.3989,4.5445,4.7748,4.8168,4.8907,4.8476,4.763,4.6752,4.6093,4.5789,4.5577,4.5514,4.5351,4.4966,4.4561,4.4261,4.3475,4.2427,4.2009,4.1485,6.3225,6.3217,6.5355,6.6062,6.5809,6.7271,6.7567,6.7183,6.6521,6.6252,6.6102,6.5413,6.4545,6.3887,6.3228,6.2445,6.1288,6.189,6.2594,6.3531,6.4664,6.5579,6.5275,6.4681,6.3971,6.3294,6.2651,6.2448,6.2415,6.2415,6.2313,6.2009,6.1467,6.1095,6.0588,5.9573,5.8964,5.8764,5.8509,5.8525,5.8909,5.9144,5.9671,6.0397,6.076,6.1055,6.1715,6.2219,6.2076,6.073,6.0676,6.079,6.0849,6.1436,6.1687,6.1888,6.235,6.2705,6.2618,6.2541,6.2271,6.1548,6.073,5.9991,5.8972,5.7247,5.5551,5.4667,5.3548,5.303,5.2577,5.2972,5.3314,5.3518,5.3518,5.3484,5.3247,5.2739,5.2286,5.2175,5.1533,5.1242,5.0943,5.0635,5.0167,4.9833,4.9688,4.9502,4.8877,4.7936,4.6555,4.482,4.4317,4.4248,4.4593,4.507,4.7057,4.8994,4.8669,4.8821,4.8518,4.7774,4.6809,4.6136,4.5781,4.562,4.5568,4.5351,4.4988,4.4638,4.4276,4.302,4.182,4.1954,4.1694,6.4352,6.5545,6.6087,6.6744,6.7393,6.7802,6.8243,6.8618,6.7366,6.7213,6.7197,6.5857,6.4454,6.3288,6.3192,6.2596,6.1966,6.2445,6.3344,6.4518,6.5216,6.5317,6.4816,6.4072,6.3362,6.2753,6.2516,6.2415,6.2415,6.2347,6.2076,6.1535,6.0858,6.008,5.9505,5.8869,5.8152,5.823,5.8562,5.8977,5.9311,5.9864,6.0519,6.1286,6.1888,6.2271,6.249,6.2705,6.2629,6.235,6.2219,6.2076,6.2166,6.2324,6.2427,6.249,6.2541,6.2515,6.2023,6.186,6.152,6.07,5.9991,5.9311,5.9076,5.7426,5.6107,5.5398,5.4658,5.3746,5.321,5.3314,5.3484,5.3518,5.345,5.3213,5.2706,5.2434,5.2106,5.1662,5.1367,5.1185,5.1201,5.1519,5.1051,5.0335,4.9894,4.9727,4.8757,4.7623,4.6124,4.4492,4.4501,4.4652,4.5444,4.6243,4.8132,4.9307,4.9015,4.8515,4.8223,4.7534,4.6449,4.595,4.5765,4.5662,4.5594,4.5351,4.4988,4.4638,4.4191,4.2925,4.2047,4.2064,4.165,6.6411,6.7542,6.7542,6.7939,6.8547,6.888,6.9315,6.9634,6.9308,6.8714,6.8069,6.6919,6.5218,6.3194,6.3369,6.3016,6.2416,6.3006,6.4053,6.4904,6.4982,6.4404,6.4072,6.3396,6.2753,6.2415,6.2415,6.2415,6.2415,6.2347,6.2009,6.1298,6.052,5.981,5.9109,5.8619,5.8527,5.8702,5.9278,5.9864,6.0331,6.0695,6.135,6.2023,6.2567,6.2805,6.278,6.278,6.2805,6.2805,6.2805,6.2805,6.2805,6.2805,6.2805,6.2755,6.2376,6.2103,6.1659,6.12,6.07,5.9864,5.9344,5.8701,5.805,5.6912,5.6268,5.5553,5.4737,5.389,5.3551,5.3518,5.3518,5.3416,5.3145,5.2638,5.2028,5.2047,5.2165,5.1765,5.1695,5.1866,5.2066,5.2196,5.1643,5.077,4.9493,4.9208,4.827,4.7102,4.5935,4.4803,4.4857,4.5242,4.6183,4.7441,4.912,4.9561,4.9075,4.8378,4.7747,4.6882,4.5919,4.5743,4.568,4.5646,4.5559,4.5263,4.5,4.46,4.396,4.2878,4.2132,4.177,4.1222,6.8256,6.8675,6.8805,6.888,6.9089,6.9654,7.0028,7.0364,7.0834,6.9651,6.8433,6.8115,6.5934,6.3928,6.3919,6.3422,6.3046,6.358,6.48,6.5109,6.4228,6.3802,6.3463,6.2922,6.2482,6.2415,6.2415,6.2415,6.2415,6.2313,6.1873,6.1129,6.0486,5.9722,5.9198,5.9081,5.9111,5.9377,6.0149,6.079,6.1343,6.1632,6.2129,6.2541,6.2755,6.2805,6.2805,6.2805,6.2805,6.2805,6.2805,6.2805,6.2805,6.2805,6.2805,6.2755,6.2103,6.1604,6.12,6.061,5.9832,5.9011,5.8736,5.8153,5.7046,5.6125,5.5587,5.5109,5.4395,5.3585,5.3518,5.3518,5.3518,5.3382,5.2773,5.2061,5.1673,5.189,5.2107,5.1934,5.1928,5.215,5.249,5.268,5.1946,5.1099,4.981,4.8577,4.7641,4.6786,4.5677,4.5394,4.5494,4.6665,4.7747,4.8325,5.0061,4.9569,4.907,4.8227,4.7358,4.6481,4.5807,4.574,4.5673,4.5637,4.5494,4.5273,4.4935,4.4562,4.3792,4.2841,4.2096,4.1484,4.0912,6.7717,6.7391,6.8022,6.8236,6.836,6.9012,6.9688,7.0084,6.9898,6.9032,6.8267,6.7493,6.612,6.4457,6.4495,6.4542,6.4379,6.4737,6.4899,6.4715,6.3835,6.3429,6.326,6.2719,6.2415,6.2415,6.2347,6.2279,6.2313,6.2347,6.1637,6.0588,6.0182,5.9769,5.9287,5.9112,5.9606,6.0242,6.0967,6.1548,6.177,6.2219,6.2541,6.2805,6.2805,6.2805,6.2805,6.2805,6.2805,6.2805,6.2805,6.2805,6.2805,6.2805,6.2805,6.2618,6.2049,6.1436,6.0849,5.9896,5.9011,5.818,5.7662,5.7288,5.6496,5.5615,5.4974,5.4635,5.4126,5.3517,5.3518,5.3518,5.3484,5.3315,5.2838,5.225,5.2119,5.2101,5.2004,5.1702,5.1969,5.2358,5.2725,5.2777,5.2087,5.1151,4.9931,4.8397,4.702,4.6384,4.5722,4.5797,4.6212,4.7849,4.9466,4.9848,5.0533,4.9543,4.8848,4.7966,4.7129,4.6236,4.5748,4.5687,4.564,4.562,4.5457,4.5263,4.4701,4.4156,4.3466,4.2787,4.1903,4.1136,4.102,6.6914,6.7568,6.7619,6.8186,6.9106,6.9517,7.0075,7.0742,7.0746,7.0009,6.8941,6.8204,6.6809,6.5224,6.5173,6.5338,6.5234,6.4614,6.441,6.3903,6.3328,6.2922,6.2956,6.2516,6.2448,6.2279,6.2042,6.1839,6.1873,6.2245,6.1332,6.0047,5.9877,5.9748,5.939,5.9574,6.0176,6.0997,6.1778,6.2219,6.2219,6.2643,6.2755,6.278,6.278,6.2805,6.2805,6.2805,6.2805,6.2805,6.2805,6.2805,6.2768,6.2768,6.2768,6.2606,6.2013,6.1456,6.0849,5.9925,5.8804,5.8015,5.722,5.6428,5.5784,5.5006,5.4431,5.4127,5.4288,5.3881,5.3551,5.3484,5.3481,5.3331,5.2743,5.2326,5.2234,5.2201,5.1943,5.1714,5.2325,5.2769,5.2959,5.2799,5.2141,5.1167,5.0012,4.8443,4.6692,4.6088,4.5757,4.635,4.6931,4.8397,4.9862,5.026,5.0217,4.9325,4.8533,4.768,4.6847,4.5971,4.5697,4.562,4.5594,4.5594,4.5381,4.5194,4.4462,4.3745,4.2972,4.2219,4.1438,4.0854,4.0798,6.6046,6.7255,6.7433,6.8392,6.9698,7.0283,7.0503,7.0974,7.1526,7.0456,6.8719,6.8602,6.7502,6.5868,6.5548,6.5601,6.5222,6.3971,6.3565,6.3193,6.2753,6.2415,6.2415,6.2415,6.2381,6.2279,6.1704,6.1332,6.1467,6.1839,6.096,6.0126,6.0024,6.0174,5.9934,6.0379,6.1098,6.1806,6.2412,6.278,6.2805,6.278,6.2705,6.2567,6.2541,6.2464,6.2166,6.1848,6.1969,6.2011,6.204,6.2068,6.2242,6.2328,6.2328,6.2228,6.1696,6.1434,6.0913,5.9456,5.8144,5.7631,5.6815,5.5788,5.5006,5.4499,5.4093,5.3754,5.3881,5.4074,5.3551,5.3348,5.3207,5.3012,5.2494,5.2068,5.2145,5.2208,5.2306,5.2417,5.2915,5.3066,5.313,5.2663,5.2003,5.0994,4.9818,4.8608,4.7012,4.6265,4.613,4.6856,4.7716,4.9002,4.988,5.0064,4.9661,4.8681,4.7973,4.7229,4.6463,4.5642,4.5603,4.5629,4.5594,4.5568,4.5352,4.5005,4.4266,4.3476,4.2583,4.1792,4.1074,4.0839,4.0821,6.5386,6.4777,6.7705,6.8763,6.8734,7.0281,7.0378,6.9576,7.0195,6.8853,6.6832,6.7558,6.7358,6.6211,6.5737,6.5039,6.4146,6.3685,6.321,6.2725,6.2482,6.2415,6.2415,6.2415,6.2415,6.2212,6.1603,6.1366,6.1264,6.1366,6.1037,6.0272,6.0659,6.1188,6.1129,6.1194,6.186,6.2515,6.2755,6.278,6.273,6.273,6.235,6.1915,6.1687,6.1448,6.0876,6.0447,6.0296,6.0648,6.0158,6.0129,6.0555,6.0676,6.0676,6.0664,6.0612,6.053,6.0284,5.8759,5.7404,5.6963,5.5859,5.4974,5.4465,5.4093,5.3821,5.3551,5.3684,5.3718,5.3449,5.2875,5.2602,5.2309,5.2041,5.1933,5.2015,5.2616,5.2688,5.2777,5.3172,5.3115,5.3078,5.2443,5.1767,5.0714,4.9598,4.8473,4.7548,4.6837,4.6982,4.7867,4.8407,4.96,4.9916,5.0084,4.9345,4.8277,4.7524,4.6878,4.6229,4.5681,4.564,4.5648,4.5632,4.55,4.521,4.4734,4.4045,4.3226,4.2311,4.1595,4.0867,4.0786,4.0809,6.6534,6.641,6.7474,6.8473,6.9231,6.94,6.9316,6.9113,6.8944,6.82,6.742,6.8216,6.8233,6.7181,6.6456,6.5299,6.4336,6.3806,6.3192,6.2561,6.2415,6.2415,6.2415,6.2415,6.2415,6.211,6.1298,6.0588,6.0723,6.1003,6.0951,6.0487,6.105,6.1728,6.2027,6.1767,6.2095,6.2541,6.278,6.2567,6.2245,6.2076,6.1742,6.0967,6.0938,6.0451,5.9815,5.9572,5.9423,5.9699,5.9384,5.9662,6.0213,6.0419,6.0419,6.0395,5.9956,5.9965,6.0077,5.8459,5.7424,5.6551,5.5505,5.4499,5.4127,5.4087,5.3848,5.3551,5.3913,5.3913,5.3415,5.2773,5.2456,5.2152,5.1765,5.1841,5.2126,5.287,5.3232,5.3306,5.3306,5.3125,5.2887,5.2387,5.1454,5.0101,4.9371,4.8638,4.8037,4.7692,4.8216,4.9213,4.9614,5.0097,5.0074,5.0048,4.9251,4.8282,4.7426,4.6806,4.6164,4.5789,4.5725,4.5725,4.5768,4.5531,4.5146,4.4449,4.3713,4.2938,4.2106,4.1378,4.0726,4.0781,4.085,6.7248,6.8022,6.7658,6.8383,6.9553,6.8571,6.8436,6.8673,6.8199,6.7819,6.7878,6.8379,6.8421,6.7799,6.653,6.5443,6.4445,6.3962,6.3196,6.2659,6.2415,6.2415,6.2415,6.2415,6.2415,6.2347,6.0892,6.0283,6.0325,6.0622,6.0726,6.0461,6.1417,6.2025,6.2406,6.2322,6.2324,6.2705,6.2541,6.2156,6.1742,6.14,6.0707,6.0118,5.9702,5.9358,5.8566,5.833,5.829,5.857,5.8746,5.9054,5.9688,5.9788,5.9803,5.9683,5.9241,5.9113,5.9003,5.8125,5.7255,5.6199,5.528,5.4025,5.3788,5.4139,5.4296,5.3551,5.4139,5.3971,5.3309,5.2435,5.1885,5.1722,5.1682,5.1811,5.2114,5.2962,5.355,5.3606,5.3478,5.3069,5.2771,5.2289,5.1212,4.9601,4.8886,4.8697,4.8617,4.8513,4.906,5.0,5.0287,5.0366,4.9874,4.9622,4.8886,4.8178,4.7307,4.669,4.6044,4.5815,4.5744,4.5787,4.5861,4.5463,4.4971,4.4199,4.3388,4.2533,4.172,4.1124,4.0713,4.0795,4.0892,6.6756,6.7969,6.8644,6.8553,6.8166,6.8774,6.8571,6.8235,6.798,6.7646,6.7499,6.7373,6.7233,6.6623,6.6406,6.5473,6.3931,6.3754,6.3314,6.2779,6.2415,6.2459,6.2386,6.2347,6.2279,6.2042,6.0689,6.0013,6.0106,6.032,6.0359,6.046,6.1707,6.2367,6.2719,6.2709,6.2578,6.2618,6.2209,6.1742,6.1314,6.0742,5.9667,5.8572,5.8104,5.7495,5.6098,5.6411,5.6846,5.7402,5.786,5.8385,5.9086,5.9107,5.9102,5.8964,5.8629,5.84,5.8033,5.7119,5.5742,5.4834,5.4274,5.402,5.398,5.4296,5.42,5.3816,5.4296,5.3825,5.2796,5.1725,5.1278,5.0998,5.1163,5.1501,5.2053,5.3216,5.3758,5.3832,5.3714,5.3428,5.2777,5.2325,5.1362,4.9823,4.9589,4.9424,4.9682,4.969,4.9935,5.0435,5.077,5.0498,4.9599,4.9049,4.8454,4.7674,4.6792,4.6332,4.5902,4.58,4.5778,4.581,4.5806,4.5323,4.4783,4.3933,4.3086,4.2107,4.1376,4.0926,4.0815,4.0931,4.1033,6.7075,6.8108,6.8417,6.8288,6.7827,6.7252,6.7698,6.8548,6.7839,6.8012,6.8639,6.79,6.7563,6.7577,6.7191,6.6474,6.5462,6.5365,6.4427,6.3574,6.3199,6.2893,6.2557,6.2014,6.167,6.14,6.025,5.9438,5.9451,5.9978,6.0296,6.0835,6.195,6.2936,6.3245,6.3006,6.2803,6.2567,6.1996,6.14,6.0624,5.9526,5.8413,5.7432,5.7284,5.6767,5.6012,5.651,5.691,5.7322,5.778,5.8446,5.8934,5.8856,5.8776,5.8676,5.8304,5.789,5.7315,5.6331,5.5408,5.4878,5.473,5.4822,5.4699,5.5084,5.4848,5.4575,5.4322,5.3782,5.253,5.1657,5.1043,5.0571,5.0622,5.1078,5.2012,5.3284,5.4063,5.4255,5.4192,5.4045,5.3261,5.245,5.1319,5.0185,5.0165,5.0183,5.0425,5.0562,5.0687,5.0636,5.085,5.0476,4.9537,4.8803,4.8074,4.7151,4.6281,4.5975,4.568,4.5826,4.5841,4.5865,4.5605,4.4995,4.4375,4.363,4.277,4.1877,4.1315,4.0896,4.0936,4.1046,4.1094,6.7279,6.7912,6.843,6.8574,6.832,6.7319,6.7713,6.8743,6.802,6.8046,6.9115,6.806,6.789,6.8239,6.7963,6.7182,6.6434,6.6125,6.5332,6.4496,6.3755,6.3213,6.245,6.1762,6.1231,6.0723,5.981,5.9032,5.9106,5.9728,6.0068,6.0701,6.1839,6.2901,6.3262,6.3172,6.2805,6.2592,6.1489,6.0762,5.9875,5.8303,5.7219,5.6543,5.6495,5.6439,5.6288,5.6842,5.7473,5.7929,5.8438,5.908,5.9296,5.9319,5.9084,5.8796,5.8424,5.79,5.7216,5.6259,5.5524,5.5144,5.532,5.5552,5.5724,5.5695,5.5232,5.4634,5.4337,5.3642,5.2194,5.1217,5.0657,5.0236,5.0718,5.1246,5.2316,5.346,5.4142,5.4655,5.4634,5.4637,5.33,5.2394,5.1503,5.0678,5.0658,5.0706,5.083,5.0979,5.1047,5.0942,5.0842,5.0205,4.9473,4.8519,4.7539,4.6506,4.5794,4.5623,4.5481,4.5607,4.5625,4.5553,4.5162,4.4612,4.3909,4.3123,4.2422,4.1671,4.1209,4.0759,4.0859,4.0953,4.0947,6.7153,6.7336,6.8961,6.9637,6.9601,6.9601,6.9212,6.8998,6.8712,6.8326,6.8054,6.7733,6.7689,6.7797,6.7724,6.7322,6.6794,6.6523,6.5935,6.5101,6.4078,6.3342,6.2419,6.1596,6.0588,6.0047,5.9268,5.8795,5.8896,5.9219,5.9674,6.0659,6.1851,6.2793,6.2903,6.2805,6.2768,6.2482,6.0524,5.9721,5.9027,5.7374,5.6393,5.6261,5.6252,5.6332,5.6809,5.7564,5.8201,5.8593,5.9408,5.9923,6.0006,5.9885,5.9609,5.9321,5.8835,5.8375,5.7914,5.6518,5.5948,5.5808,5.6031,5.6114,5.5893,5.5695,5.5418,5.4695,5.3952,5.2829,5.1605,5.064,5.0267,5.0247,5.0741,5.1573,5.2627,5.3646,5.4345,5.4943,5.5245,5.5218,5.3592,5.2297,5.1585,5.1117,5.1161,5.1191,5.1206,5.1226,5.1236,5.1008,5.0735,4.9765,4.8945,4.7994,4.6997,4.5953,4.535,4.5186,4.5036,4.5015,4.5045,4.5127,4.4636,4.3968,4.3323,4.2637,4.1727,4.0864,4.0911,4.0664,4.0763,4.0747,4.068,6.7905,6.9019,6.9573,7.0174,7.0527,6.9445,6.9614,7.0598,7.0331,6.9706,6.8857,6.8157,6.7687,6.7687,6.7687,6.7515,6.7286,6.723,6.6787,6.5832,6.4473,6.3449,6.2367,6.085,5.9742,5.9268,5.8693,5.8321,5.822,5.8702,5.9543,6.0569,6.2116,6.315,6.3154,6.2886,6.2424,6.1765,6.0313,5.9199,5.8979,5.7499,5.6566,5.6794,5.6868,5.7132,5.7656,5.8556,5.9113,5.9408,6.0245,6.0444,6.0326,6.0099,5.9533,5.9192,5.8719,5.8209,5.7997,5.7364,5.7004,5.6789,5.6814,5.7018,5.718,5.6169,5.5476,5.4449,5.3284,5.2033,5.074,5.0369,5.0134,5.0195,5.0753,5.1824,5.286,5.3826,5.4663,5.5082,5.5512,5.4511,5.3117,5.2214,5.1479,5.1228,5.124,5.1281,5.1285,5.1248,5.1199,5.0915,5.0473,4.9412,4.8417,4.7325,4.6242,4.5141,4.4805,4.4782,4.4663,4.438,4.4486,4.4557,4.3943,4.3297,4.2288,4.1311,4.0616,4.0068,4.0016,4.0178,4.0298,4.0217,4.0132,6.8066,6.911,6.9745,7.0281,7.0739,7.0096,7.0463,7.1045,7.0437,6.9718,6.8876,6.802,6.7687,6.7687,6.7687,6.7687,6.765,6.7357,6.7166,6.6163,6.4341,6.3105,6.1743,6.0206,5.9143,5.8592,5.822,5.7915,5.7949,5.8423,5.9373,6.0783,6.2472,6.3086,6.3163,6.2785,6.2274,6.1348,5.9968,5.9019,5.8559,5.7738,5.7047,5.7498,5.7867,5.8153,5.8914,5.9576,6.0175,6.0365,6.052,6.0589,6.0227,5.9703,5.9008,5.8497,5.7736,5.7338,5.7423,5.7496,5.706,5.6843,5.7577,5.779,5.7421,5.6051,5.5051,5.3956,5.2609,5.1398,5.0333,5.0127,5.0277,5.0335,5.1265,5.239,5.3405,5.4393,5.4686,5.5152,5.5041,5.3886,5.2773,5.2091,5.1366,5.1328,5.1323,5.1321,5.1279,5.1125,5.0906,5.0559,4.9878,4.8687,4.7569,4.6535,4.5426,4.4348,4.4216,4.428,4.3816,4.3476,4.3748,4.3737,4.2801,4.1846,4.0761,3.9864,3.9327,3.9051,3.8959,3.9212,3.9671,3.9728,3.9614,6.7644,6.7909,6.9445,7.0147,7.0339,7.1113,7.0971,6.9754,6.8995,6.8383,6.7794,6.782,6.7687,6.7687,6.765,6.754,6.7357,6.6769,6.6459,6.5715,6.395,6.2728,6.1373,5.9943,5.8855,5.8191,5.778,5.7611,5.7816,5.8221,5.9218,6.0771,6.2426,6.2925,6.2944,6.2749,6.2145,6.0957,5.9819,5.913,5.8736,5.7752,5.7794,5.8248,5.8612,5.9075,5.9618,6.0036,6.0251,6.0418,6.055,6.0127,5.9648,5.9088,5.8113,5.7102,5.6199,5.6374,5.6638,5.6748,5.6726,5.6639,5.7231,5.7299,5.6645,5.5461,5.4313,5.3197,5.1879,5.0963,5.0122,5.0302,5.053,5.1211,5.2036,5.3094,5.4155,5.4666,5.4741,5.4826,5.4657,5.3789,5.2617,5.1836,5.1367,5.127,5.121,5.1076,5.0977,5.0641,5.0386,4.9983,4.9126,4.782,4.6742,4.5742,4.4725,4.3676,4.3642,4.3615,4.3086,4.2627,4.2705,4.2443,4.1399,4.037,3.9318,3.8648,3.8183,3.8031,3.8102,3.8317,3.8723,3.9114,3.9189,6.8779,6.9673,7.0195,7.0376,7.0361,7.0179,6.9911,6.9653,6.9466,6.9024,6.8259,6.7863,6.7604,6.765,6.71,6.688,6.6549,6.6145,6.5778,6.4803,6.3574,6.2493,6.1266,5.9868,5.8769,5.7963,5.7478,5.7175,5.7431,5.7858,5.9302,6.0921,6.2231,6.2594,6.2606,6.2545,6.1745,6.0873,5.9778,5.9402,5.9252,5.8666,5.8931,5.9332,5.9501,5.9951,6.0213,5.992,5.9903,5.9823,5.9319,5.8819,5.8719,5.822,5.7438,5.6575,5.5965,5.578,5.5904,5.5941,5.5941,5.5941,5.6235,5.6161,5.5587,5.4686,5.3478,5.2506,5.1647,5.0823,5.057,5.071,5.1028,5.1762,5.2527,5.3327,5.4208,5.4319,5.4381,5.4251,5.4087,5.3203,5.207,5.1758,5.1367,5.125,5.1069,5.0889,5.0565,5.0192,4.9757,4.9336,4.8112,4.6771,4.5925,4.496,4.3982,4.3138,4.3194,4.2978,4.2374,4.1966,4.1808,4.1082,3.9997,3.8922,3.7864,3.7399,3.722,3.7381,3.7452,3.7594,3.7783,3.8209,3.8508,6.9452,7.0208,7.0264,7.0021,6.9531,6.9053,6.8746,6.8683,6.9076,6.8714,6.7728,6.7321,6.7026,6.6623,6.6219,6.5999,6.5925,6.5228,6.4824,6.4412,6.3194,6.2256,6.1092,5.973,5.8563,5.7739,5.7083,5.6572,5.7109,5.8518,5.9971,6.0706,6.1947,6.2189,6.2154,6.1979,6.1625,6.0889,6.0203,5.9809,5.9733,5.9771,6.0108,6.0414,6.0476,6.0458,6.0316,5.9727,5.9369,5.9088,5.8434,5.8127,5.7689,5.6929,5.61,5.5212,5.481,5.4795,5.5023,5.5133,5.5133,5.5133,5.5097,5.4913,5.4574,5.3821,5.3082,5.2274,5.1581,5.106,5.1088,5.1211,5.1667,5.2181,5.281,5.343,5.3693,5.3832,5.3786,5.3653,5.3086,5.2226,5.1641,5.1484,5.1328,5.1211,5.0904,5.0513,5.0038,4.95,4.9017,4.8555,4.7108,4.5637,4.4922,4.4337,4.3588,4.2978,4.2885,4.2544,4.1796,4.1166,4.0784,3.9749,3.851,3.758,3.6776,3.6586,3.649,3.6586,3.6591,3.6576,3.6837,3.7362,3.7595,6.9533,6.961,6.9705,6.9142,6.8301,6.8081,6.7638,6.6993,6.8002,6.7723,6.6752,6.6537,6.6307,6.6051,6.5657,6.5521,6.5312,6.4744,6.4385,6.407,6.2865,6.1964,6.0976,5.9451,5.857,5.7688,5.6978,5.6549,5.7394,5.8652,5.9877,6.055,6.1508,6.1899,6.1722,6.1669,6.144,6.1196,6.0678,6.0315,6.0381,6.0464,6.0655,6.1041,6.088,6.058,5.9928,5.9417,5.8957,5.8446,5.7934,5.755,5.6685,5.5742,5.477,5.4184,5.3973,5.3923,5.4185,5.4289,5.4326,5.4326,5.4289,5.4032,5.3683,5.3251,5.2582,5.2342,5.1754,5.1672,5.1718,5.2302,5.2853,5.2939,5.3172,5.3435,5.3421,5.3357,5.3075,5.283,5.2305,5.1523,5.1445,5.1289,5.0937,5.0976,5.0675,5.017,4.9144,4.8483,4.7958,4.7387,4.585,4.4601,4.4494,4.3931,4.3305,4.2884,4.2674,4.1958,4.1127,4.0371,3.9694,3.8542,3.7303,3.6637,3.598,3.5834,3.5676,3.5632,3.561,3.5543,3.582,3.625,3.6751,6.8134,6.7651,6.8006,6.8054,6.7898,6.7881,6.7559,6.7193,6.7431,6.723,6.6783,6.6678,6.6545,6.617,6.5607,6.542,6.5232,6.4578,6.4374,6.3998,6.3002,6.2011,6.1288,5.9968,5.894,5.7971,5.7233,5.6954,5.7807,5.8932,5.9932,6.0717,6.1451,6.1627,6.163,6.1577,6.1491,6.1417,6.1194,6.0887,6.0871,6.101,6.1195,6.105,6.0722,6.0148,5.9413,5.8454,5.7892,5.7307,5.6599,5.6242,5.5951,5.5275,5.4775,5.4355,5.3924,5.377,5.3678,5.3781,5.3801,5.3661,5.3603,5.3429,5.3142,5.2681,5.2387,5.2276,5.2236,5.2336,5.2541,5.3255,5.3691,5.3535,5.3397,5.3245,5.3138,5.2741,5.2383,5.1942,5.148,5.1309,5.1258,5.0982,5.0685,5.0365,5.006,4.9335,4.7781,4.6801,4.6252,4.5563,4.4343,4.3451,4.356,4.3739,4.3269,4.2657,4.2286,4.1464,4.047,3.957,3.8708,3.7365,3.6194,3.5639,3.5255,3.5085,3.4971,3.4887,3.4783,3.4793,3.4471,3.4731,3.5486,6.6617,6.6661,6.7217,6.7227,6.6952,6.6871,6.6517,6.6113,6.624,6.622,6.6134,6.6322,6.6319,6.6031,6.546,6.5264,6.5112,6.4394,6.4051,6.3746,6.3188,6.2365,6.1392,6.0422,5.9564,5.8578,5.8019,5.7937,5.8521,5.9473,6.0452,6.1062,6.1437,6.1601,6.168,6.1601,6.1562,6.1582,6.1445,6.125,6.1055,6.114,6.1109,6.0839,6.0382,5.9737,5.8748,5.7742,5.7242,5.6725,5.617,5.5943,5.5768,5.5361,5.5015,5.4731,5.4387,5.4033,5.3814,5.3702,5.3645,5.3626,5.372,5.3833,5.3907,5.3567,5.333,5.3222,5.3118,5.3162,5.3033,5.3543,5.3044,5.2704,5.2647,5.255,5.2303,5.1908,5.1716,5.1559,5.1247,5.1197,5.1023,5.0516,5.0213,4.9866,4.9509,4.8369,4.6794,4.5372,4.4756,4.3973,4.2898,4.271,4.3085,4.3324,4.3358,4.2734,4.2103,4.0761,3.966,3.868,3.7628,3.631,3.5381,3.4886,3.4568,3.4293,3.4219,3.4178,3.4128,3.4046,3.3668,3.3255,3.3924,6.49,6.5769,6.6422,6.6358,6.5761,6.5576,6.5174,6.4668,6.4807,6.4985,6.5054,6.5459,6.5287,6.5054,6.4861,6.4784,6.4496,6.3922,6.3629,6.3417,6.275,6.2235,6.154,6.0621,5.99,5.9474,5.9012,5.9117,5.9447,6.0326,6.0993,6.1476,6.164,6.1719,6.1719,6.168,6.164,6.1367,6.1172,6.0937,6.0898,6.0921,6.0729,6.0417,5.9906,5.9136,5.8087,5.7342,5.6884,5.649,5.6075,5.5993,5.5869,5.5605,5.5346,5.5084,5.4878,5.46,5.4412,5.4166,5.4134,5.421,5.4274,5.4214,5.4123,5.4,5.3804,5.3745,5.3628,5.3583,5.3452,5.3261,5.2679,5.2068,5.2051,5.1903,5.1559,5.1245,5.1224,5.1185,5.1086,5.104,5.0558,5.0096,4.9586,4.9276,4.8445,4.7221,4.5962,4.4646,4.3625,4.2844,4.1902,4.197,4.256,4.2827,4.3069,4.2958,4.2179,4.0416,3.8952,3.8319,3.7148,3.5361,3.4544,3.412,3.3636,3.327,3.3276,3.3119,3.2707,3.2354,3.2087,3.1838,3.2338,6.2917,6.3191,6.3958,6.4471,6.48,6.4775,6.4757,6.4679,6.4149,6.4135,6.4217,6.389,6.3906,6.4645,6.4645,6.444,6.3897,6.3439,6.3522,6.3439,6.2567,6.215,6.1619,6.0799,6.0254,6.0,5.9948,6.0306,6.0257,6.091,6.1442,6.1638,6.1639,6.168,6.168,6.1601,6.1328,6.1015,6.0586,6.0273,5.9883,5.9882,5.9999,5.9491,5.8671,5.8188,5.7614,5.6965,5.6554,5.6295,5.6175,5.6152,5.6026,5.5874,5.5543,5.5209,5.5045,5.4748,5.447,5.404,5.39,5.3656,5.348,5.2997,5.2938,5.2933,5.2908,5.3115,5.3106,5.3225,5.3141,5.3205,5.2825,5.2092,5.1775,5.1467,5.1121,5.1102,5.1105,5.0957,5.0835,5.048,4.9896,4.9257,4.8552,4.8093,4.7468,4.626,4.5192,4.3896,4.2577,4.1757,4.0918,4.1619,4.2306,4.2386,4.2544,4.2638,4.223,4.0453,3.9089,3.8297,3.6956,3.4718,3.3763,3.3296,3.285,3.1921,3.1554,3.1212,3.0777,3.0455,3.0306,3.0246,3.0543]}]]